<?xml version="1.0" encoding="UTF-8"?>
<gpx xmlns:xsi="http://www.w3.org/2001/XMLSchema-instance" xmlns="http://www.topografix.com/GPX/1/1" xsi:schemaLocation="http://www.topografix.com/GPX/1/1 http://www.topografix.com/GPX/1/1/gpx.xsd http://www.garmin.com/xmlschemas/GpxExtensions/v3 http://www.garmin.com/xmlschemas/GpxExtensionsv3.xsd http://www.garmin.com/xmlschemas/TrackPointExtension/v1 http://www.garmin.com/xmlschemas/TrackPointExtensionv1.xsd http://www.topografix.com/GPX/gpx_style/0/2 http://www.topografix.com/GPX/gpx_style/0/2/gpx_style.xsd" xmlns:gpxtpx="http://www.garmin.com/xmlschemas/TrackPointExtension/v1" xmlns:gpxx="http://www.garmin.com/xmlschemas/GpxExtensions/v3" xmlns:gpx_style="http://www.topografix.com/GPX/gpx_style/0/2" version="1.1" creator="https://gpx.studio">
<metadata>
    <name>new</name>
    <author>
        <name>gpx.studio</name>
        <link href="https://gpx.studio"></link>
    </author>
</metadata>
<trk>
    <name>new</name>
    <type>Cycling</type>
    <trkseg>
    <trkpt lat="45.792786" lon="15.139872">
        <ele>176.3</ele>
        <time>2023-05-08T14:03:38.000Z</time>
        <extensions>
        <gpxtpx:TrackPointExtension>
        <gpxtpx:Extensions>
            <surface>asphalt</surface>
        </gpxtpx:Extensions>
        </gpxtpx:TrackPointExtension>
        </extensions>
    </trkpt>
    <trkpt lat="45.792792" lon="15.139899">
        <ele>176.5</ele>
        <time>2023-05-08T14:03:38.527Z</time>
        <extensions>
        <gpxtpx:TrackPointExtension>
        <gpxtpx:Extensions>
            <surface>asphalt</surface>
        </gpxtpx:Extensions>
        </gpxtpx:TrackPointExtension>
        </extensions>
    </trkpt>
    <trkpt lat="45.792893" lon="15.140338">
        <ele>175.8</ele>
        <time>2023-05-08T14:03:47.128Z</time>
        <extensions>
        <gpxtpx:TrackPointExtension>
        <gpxtpx:Extensions>
            <surface>asphalt</surface>
        </gpxtpx:Extensions>
        </gpxtpx:TrackPointExtension>
        </extensions>
    </trkpt>
    <trkpt lat="45.792971" lon="15.140646">
        <ele>174.8</ele>
        <time>2023-05-08T14:03:53.225Z</time>
        <extensions>
        <gpxtpx:TrackPointExtension>
        <gpxtpx:Extensions>
            <surface>asphalt</surface>
        </gpxtpx:Extensions>
        </gpxtpx:TrackPointExtension>
        </extensions>
    </trkpt>
    <trkpt lat="45.793108" lon="15.141049">
        <ele>172.8</ele>
        <time>2023-05-08T14:04:01.567Z</time>
        <extensions>
        <gpxtpx:TrackPointExtension>
        <gpxtpx:Extensions>
            <surface>asphalt</surface>
        </gpxtpx:Extensions>
        </gpxtpx:TrackPointExtension>
        </extensions>
    </trkpt>
    <trkpt lat="45.793311" lon="15.141613">
        <ele>170.0</ele>
        <time>2023-05-08T14:04:13.377Z</time>
        <extensions>
        <gpxtpx:TrackPointExtension>
        <gpxtpx:Extensions>
            <surface>asphalt</surface>
        </gpxtpx:Extensions>
        </gpxtpx:TrackPointExtension>
        </extensions>
    </trkpt>
    <trkpt lat="45.79365" lon="15.142396">
        <ele>167.8</ele>
        <time>2023-05-08T14:04:30.526Z</time>
        <extensions>
        <gpxtpx:TrackPointExtension>
        <gpxtpx:Extensions>
            <surface>asphalt</surface>
        </gpxtpx:Extensions>
        </gpxtpx:TrackPointExtension>
        </extensions>
    </trkpt>
    <trkpt lat="45.793946" lon="15.143065">
        <ele>170.3</ele>
        <time>2023-05-08T14:04:45.269Z</time>
    </trkpt>
    <trkpt lat="45.794231" lon="15.143631">
        <ele>171.3</ele>
        <time>2023-05-08T14:04:58.259Z</time>
    </trkpt>
    <trkpt lat="45.79464" lon="15.144401">
        <ele>173.8</ele>
        <time>2023-05-08T14:05:16.270Z</time>
    </trkpt>
    <trkpt lat="45.794785" lon="15.144648">
        <ele>174.8</ele>
        <time>2023-05-08T14:05:22.277Z</time>
    </trkpt>
    <trkpt lat="45.794986" lon="15.145045">
        <ele>176.5</ele>
        <time>2023-05-08T14:05:31.406Z</time>
    </trkpt>
    <trkpt lat="45.795592" lon="15.146359">
        <ele>182.3</ele>
        <time>2023-05-08T14:06:00.719Z</time>
    </trkpt>
    <trkpt lat="45.795835" lon="15.146807">
        <ele>182.3</ele>
        <time>2023-05-08T14:06:11.280Z</time>
    </trkpt>
    <trkpt lat="45.795997" lon="15.14704">
        <ele>183.5</ele>
        <time>2023-05-08T14:06:17.402Z</time>
    </trkpt>
    <trkpt lat="45.796339" lon="15.147467">
        <ele>183.3</ele>
        <time>2023-05-08T14:06:29.502Z</time>
    </trkpt>
    <trkpt lat="45.796573" lon="15.147702">
        <ele>182.5</ele>
        <time>2023-05-08T14:06:37.125Z</time>
    </trkpt>
    <trkpt lat="45.797199" lon="15.148238">
        <ele>180.5</ele>
        <time>2023-05-08T14:06:56.581Z</time>
    </trkpt>
    <trkpt lat="45.797631" lon="15.148596">
        <ele>177.3</ele>
        <time>2023-05-08T14:07:09.895Z</time>
    </trkpt>
    <trkpt lat="45.797875" lon="15.148855">
        <ele>176.0</ele>
        <time>2023-05-08T14:07:17.995Z</time>
    </trkpt>
    <trkpt lat="45.798005" lon="15.149013">
        <ele>175.5</ele>
        <time>2023-05-08T14:07:22.542Z</time>
    </trkpt>
    <trkpt lat="45.798215" lon="15.149304">
        <ele>175.5</ele>
        <time>2023-05-08T14:07:30.334Z</time>
    </trkpt>
    <trkpt lat="45.7985" lon="15.149803">
        <ele>175.8</ele>
        <time>2023-05-08T14:07:42.335Z</time>
    </trkpt>
    <trkpt lat="45.798585" lon="15.149989">
        <ele>175.8</ele>
        <time>2023-05-08T14:07:46.472Z</time>
    </trkpt>
    <trkpt lat="45.798841" lon="15.150554">
        <ele>173.8</ele>
        <time>2023-05-08T14:07:59.009Z</time>
    </trkpt>
    <trkpt lat="45.798996" lon="15.150913">
        <ele>173.3</ele>
        <time>2023-05-08T14:08:06.865Z</time>
    </trkpt>
    <trkpt lat="45.799104" lon="15.151141">
        <ele>172.5</ele>
        <time>2023-05-08T14:08:11.993Z</time>
    </trkpt>
    <trkpt lat="45.799418" lon="15.151766">
        <ele>172.8</ele>
        <time>2023-05-08T14:08:26.326Z</time>
    </trkpt>
    <trkpt lat="45.799753" lon="15.152257">
        <ele>174.0</ele>
        <time>2023-05-08T14:08:39.107Z</time>
    </trkpt>
    <trkpt lat="45.80003" lon="15.152623">
        <ele>174.3</ele>
        <time>2023-05-08T14:08:49.157Z</time>
    </trkpt>
    <trkpt lat="45.800251" lon="15.152941">
        <ele>174.8</ele>
        <time>2023-05-08T14:08:57.510Z</time>
    </trkpt>
    <trkpt lat="45.800321" lon="15.153031">
        <ele>175.0</ele>
        <time>2023-05-08T14:09:00.018Z</time>
    </trkpt>
    <trkpt lat="45.80044" lon="15.153218">
        <ele>175.5</ele>
        <time>2023-05-08T14:09:04.728Z</time>
    </trkpt>
    <trkpt lat="45.800961" lon="15.153938">
        <ele>179.3</ele>
        <time>2023-05-08T14:09:24.034Z</time>
    </trkpt>
    <trkpt lat="45.801133" lon="15.15424">
        <ele>182.0</ele>
        <time>2023-05-08T14:09:31.289Z</time>
    </trkpt>
    <trkpt lat="45.801366" lon="15.154721">
        <ele>185.0</ele>
        <time>2023-05-08T14:09:42.186Z</time>
    </trkpt>
    <trkpt lat="45.801564" lon="15.155242">
        <ele>186.8</ele>
        <time>2023-05-08T14:09:53.225Z</time>
    </trkpt>
    <trkpt lat="45.801748" lon="15.155799">
        <ele>188.8</ele>
        <time>2023-05-08T14:10:04.692Z</time>
    </trkpt>
    <trkpt lat="45.801842" lon="15.156164">
        <ele>191.0</ele>
        <time>2023-05-08T14:10:11.931Z</time>
    </trkpt>
    <trkpt lat="45.801919" lon="15.156501">
        <ele>192.5</ele>
        <time>2023-05-08T14:10:18.528Z</time>
    </trkpt>
    <trkpt lat="45.802003" lon="15.156959">
        <ele>191.8</ele>
        <time>2023-05-08T14:10:27.338Z</time>
    </trkpt>
    <trkpt lat="45.802082" lon="15.157429">
        <ele>189.3</ele>
        <time>2023-05-08T14:10:36.332Z</time>
    </trkpt>
    <trkpt lat="45.802153" lon="15.157917">
        <ele>187.5</ele>
        <time>2023-05-08T14:10:45.606Z</time>
    </trkpt>
    <trkpt lat="45.802217" lon="15.158426">
        <ele>185.8</ele>
        <time>2023-05-08T14:10:55.228Z</time>
    </trkpt>
    <trkpt lat="45.802239" lon="15.158763">
        <ele>184.3</ele>
        <time>2023-05-08T14:11:01.525Z</time>
    </trkpt>
    <trkpt lat="45.802264" lon="15.159089">
        <ele>182.5</ele>
        <time>2023-05-08T14:11:07.626Z</time>
    </trkpt>
    <trkpt lat="45.802278" lon="15.159298">
        <ele>181.5</ele>
        <time>2023-05-08T14:11:11.532Z</time>
    </trkpt>
    <trkpt lat="45.802358" lon="15.159277">
        <ele>180.8</ele>
        <time>2023-05-08T14:11:13.702Z</time>
        <extensions>
        <gpxtpx:TrackPointExtension>
        <gpxtpx:Extensions>
            <surface>asphalt</surface>
        </gpxtpx:Extensions>
        </gpxtpx:TrackPointExtension>
        </extensions>
    </trkpt>
    <trkpt lat="45.802361" lon="15.159384">
        <ele>180.3</ele>
        <time>2023-05-08T14:11:15.694Z</time>
    </trkpt>
    <trkpt lat="45.802358" lon="15.159428">
        <ele>180.0</ele>
        <time>2023-05-08T14:11:16.516Z</time>
    </trkpt>
    <trkpt lat="45.802358" lon="15.159467">
        <ele>179.8</ele>
        <time>2023-05-08T14:11:17.241Z</time>
    </trkpt>
    <trkpt lat="45.802357" lon="15.159559">
        <ele>179.3</ele>
        <time>2023-05-08T14:11:18.952Z</time>
    </trkpt>
    <trkpt lat="45.802369" lon="15.160217">
        <ele>176.8</ele>
        <time>2023-05-08T14:11:31.197Z</time>
    </trkpt>
    <trkpt lat="45.802361" lon="15.160319">
        <ele>176.5</ele>
        <time>2023-05-08T14:11:33.106Z</time>
    </trkpt>
    <trkpt lat="45.802358" lon="15.16064">
        <ele>176.0</ele>
        <time>2023-05-08T14:11:39.078Z</time>
    </trkpt>
    <trkpt lat="45.802361" lon="15.160743">
        <ele>175.8</ele>
        <time>2023-05-08T14:11:40.995Z</time>
    </trkpt>
    <trkpt lat="45.80237" lon="15.160804">
        <ele>175.5</ele>
        <time>2023-05-08T14:11:42.155Z</time>
    </trkpt>
    <trkpt lat="45.802392" lon="15.160934">
        <ele>175.3</ele>
        <time>2023-05-08T14:11:44.643Z</time>
    </trkpt>
    <trkpt lat="45.802395" lon="15.160986">
        <ele>175.3</ele>
        <time>2023-05-08T14:11:45.613Z</time>
    </trkpt>
    <trkpt lat="45.80239" lon="15.161087">
        <ele>175.3</ele>
        <time>2023-05-08T14:11:47.496Z</time>
    </trkpt>
    <trkpt lat="45.802336" lon="15.161303">
        <ele>175.3</ele>
        <time>2023-05-08T14:11:51.765Z</time>
    </trkpt>
    <trkpt lat="45.802318" lon="15.161403">
        <ele>175.3</ele>
        <time>2023-05-08T14:11:53.686Z</time>
    </trkpt>
    <trkpt lat="45.802301" lon="15.161516">
        <ele>175.3</ele>
        <time>2023-05-08T14:11:55.836Z</time>
    </trkpt>
    <trkpt lat="45.802304" lon="15.161615">
        <ele>175.0</ele>
        <time>2023-05-08T14:11:57.679Z</time>
    </trkpt>
    <trkpt lat="45.802329" lon="15.161682">
        <ele>174.8</ele>
        <time>2023-05-08T14:11:59.092Z</time>
    </trkpt>
    <trkpt lat="45.802365" lon="15.161738">
        <ele>174.5</ele>
        <time>2023-05-08T14:12:00.509Z</time>
    </trkpt>
    <trkpt lat="45.802594" lon="15.161837">
        <ele>172.8</ele>
        <time>2023-05-08T14:12:06.891Z</time>
    </trkpt>
    <trkpt lat="45.803131" lon="15.162003">
        <ele>173.3</ele>
        <time>2023-05-08T14:12:21.550Z</time>
    </trkpt>
    <trkpt lat="45.803937" lon="15.162252">
        <ele>173.3</ele>
        <time>2023-05-08T14:12:43.552Z</time>
    </trkpt>
    <trkpt lat="45.804099" lon="15.162295">
        <ele>173.3</ele>
        <time>2023-05-08T14:12:47.948Z</time>
    </trkpt>
    <trkpt lat="45.804188" lon="15.162323">
        <ele>174.5</ele>
        <time>2023-05-08T14:12:50.379Z</time>
    </trkpt>
    <trkpt lat="45.804291" lon="15.162344">
        <ele>175.5</ele>
        <time>2023-05-08T14:12:53.155Z</time>
    </trkpt>
    <trkpt lat="45.804396" lon="15.162382">
        <ele>177.0</ele>
        <time>2023-05-08T14:12:56.044Z</time>
    </trkpt>
    <trkpt lat="45.804433" lon="15.162383">
        <ele>177.3</ele>
        <time>2023-05-08T14:12:57.031Z</time>
    </trkpt>
    <trkpt lat="45.804481" lon="15.162362">
        <ele>177.5</ele>
        <time>2023-05-08T14:12:58.370Z</time>
    </trkpt>
    <trkpt lat="45.804664" lon="15.162431">
        <ele>180.0</ele>
        <time>2023-05-08T14:13:03.419Z</time>
    </trkpt>
    <trkpt lat="45.804774" lon="15.162493">
        <ele>181.8</ele>
        <time>2023-05-08T14:13:06.573Z</time>
    </trkpt>
    <trkpt lat="45.804854" lon="15.162473">
        <ele>182.3</ele>
        <time>2023-05-08T14:13:08.740Z</time>
    </trkpt>
    <trkpt lat="45.804939" lon="15.162551">
        <ele>183.3</ele>
        <time>2023-05-08T14:13:11.432Z</time>
    </trkpt>
    <trkpt lat="45.805024" lon="15.162631">
        <ele>184.3</ele>
        <time>2023-05-08T14:13:14.145Z</time>
    </trkpt>
    <trkpt lat="45.805016" lon="15.162757">
        <ele>184.3</ele>
        <time>2023-05-08T14:13:16.498Z</time>
    </trkpt>
    <trkpt lat="45.805032" lon="15.162798">
        <ele>184.5</ele>
        <time>2023-05-08T14:13:17.372Z</time>
    </trkpt>
    <trkpt lat="45.805084" lon="15.162901">
        <ele>185.3</ele>
        <time>2023-05-08T14:13:19.737Z</time>
    </trkpt>
    <trkpt lat="45.80529" lon="15.163234">
        <ele>186.3</ele>
        <time>2023-05-08T14:13:28.019Z</time>
    </trkpt>
    <trkpt lat="45.805496" lon="15.163618">
        <ele>187.0</ele>
        <time>2023-05-08T14:13:37.033Z</time>
    </trkpt>
    <trkpt lat="45.805634" lon="15.163853">
        <ele>187.5</ele>
        <time>2023-05-08T14:13:42.749Z</time>
    </trkpt>
    <trkpt lat="45.805679" lon="15.163828">
        <ele>187.5</ele>
        <time>2023-05-08T14:13:44.036Z</time>
    </trkpt>
    <trkpt lat="45.805781" lon="15.163997">
        <ele>187.8</ele>
        <time>2023-05-08T14:13:48.194Z</time>
    </trkpt>
    <trkpt lat="45.805869" lon="15.164042">
        <ele>187.8</ele>
        <time>2023-05-08T14:13:50.687Z</time>
    </trkpt>
    <trkpt lat="45.805844" lon="15.164196">
        <ele>187.8</ele>
        <time>2023-05-08T14:13:53.628Z</time>
    </trkpt>
    <trkpt lat="45.805815" lon="15.164429">
        <ele>187.5</ele>
        <time>2023-05-08T14:13:58.031Z</time>
    </trkpt>
    <trkpt lat="45.80586" lon="15.164437">
        <ele>187.5</ele>
        <time>2023-05-08T14:13:59.241Z</time>
    </trkpt>
    <trkpt lat="45.80594" lon="15.164398">
        <ele>187.3</ele>
        <time>2023-05-08T14:14:01.495Z</time>
    </trkpt>
    <trkpt lat="45.805972" lon="15.164395">
        <ele>187.0</ele>
        <time>2023-05-08T14:14:02.350Z</time>
    </trkpt>
    <trkpt lat="45.806099" lon="15.164438">
        <ele>186.5</ele>
        <time>2023-05-08T14:14:05.832Z</time>
    </trkpt>
    <trkpt lat="45.806163" lon="15.164446">
        <ele>186.3</ele>
        <time>2023-05-08T14:14:07.546Z</time>
    </trkpt>
    <trkpt lat="45.806259" lon="15.164459">
        <ele>185.8</ele>
        <time>2023-05-08T14:14:10.119Z</time>
    </trkpt>
    <trkpt lat="45.806606" lon="15.164454">
        <ele>184.3</ele>
        <time>2023-05-08T14:14:19.379Z</time>
    </trkpt>
    <trkpt lat="45.807078" lon="15.164476">
        <ele>183.3</ele>
        <time>2023-05-08T14:14:31.981Z</time>
    </trkpt>
    <trkpt lat="45.807292" lon="15.164488">
        <ele>182.8</ele>
        <time>2023-05-08T14:14:37.696Z</time>
    </trkpt>
    <trkpt lat="45.807633" lon="15.164513">
        <ele>181.3</ele>
        <time>2023-05-08T14:14:46.808Z</time>
    </trkpt>
    <trkpt lat="45.808047" lon="15.164524">
        <ele>179.5</ele>
        <time>2023-05-08T14:14:57.858Z</time>
    </trkpt>
    <trkpt lat="45.808172" lon="15.16461">
        <ele>177.8</ele>
        <time>2023-05-08T14:15:01.557Z</time>
    </trkpt>
    <trkpt lat="45.808307" lon="15.164615">
        <ele>177.0</ele>
        <time>2023-05-08T14:15:05.160Z</time>
    </trkpt>
    <trkpt lat="45.808488" lon="15.164559">
        <ele>178.0</ele>
        <time>2023-05-08T14:15:10.101Z</time>
    </trkpt>
    <trkpt lat="45.808732" lon="15.164584">
        <ele>178.3</ele>
        <time>2023-05-08T14:15:16.629Z</time>
    </trkpt>
    <trkpt lat="45.808842" lon="15.164608">
        <ele>178.3</ele>
        <time>2023-05-08T14:15:19.598Z</time>
    </trkpt>
    <trkpt lat="45.808901" lon="15.164602">
        <ele>178.5</ele>
        <time>2023-05-08T14:15:21.176Z</time>
    </trkpt>
    <trkpt lat="45.809011" lon="15.164615">
        <ele>178.8</ele>
        <time>2023-05-08T14:15:24.121Z</time>
    </trkpt>
    <trkpt lat="45.809193" lon="15.164713">
        <ele>178.5</ele>
        <time>2023-05-08T14:15:29.308Z</time>
    </trkpt>
    <trkpt lat="45.809294" lon="15.164787">
        <ele>179.5</ele>
        <time>2023-05-08T14:15:32.334Z</time>
    </trkpt>
    <trkpt lat="45.809433" lon="15.164912">
        <ele>180.8</ele>
        <time>2023-05-08T14:15:36.711Z</time>
    </trkpt>
    <trkpt lat="45.809455" lon="15.164867">
        <ele>181.5</ele>
        <time>2023-05-08T14:15:37.733Z</time>
    </trkpt>
    <trkpt lat="45.809743" lon="15.165206">
        <ele>183.8</ele>
        <time>2023-05-08T14:15:47.674Z</time>
        <extensions>
        <gpxtpx:TrackPointExtension>
        <gpxtpx:Extensions>
            <surface>asphalt</surface>
        </gpxtpx:Extensions>
        </gpxtpx:TrackPointExtension>
        </extensions>
    </trkpt>
    <trkpt lat="45.81016" lon="15.165755">
        <ele>185.3</ele>
        <time>2023-05-08T14:16:02.778Z</time>
        <extensions>
        <gpxtpx:TrackPointExtension>
        <gpxtpx:Extensions>
            <surface>asphalt</surface>
        </gpxtpx:Extensions>
        </gpxtpx:TrackPointExtension>
        </extensions>
    </trkpt>
    <trkpt lat="45.810294" lon="15.165949">
        <ele>186.8</ele>
        <time>2023-05-08T14:16:07.858Z</time>
        <extensions>
        <gpxtpx:TrackPointExtension>
        <gpxtpx:Extensions>
            <surface>asphalt</surface>
        </gpxtpx:Extensions>
        </gpxtpx:TrackPointExtension>
        </extensions>
    </trkpt>
    <trkpt lat="45.810454" lon="15.166199">
        <ele>188.8</ele>
        <time>2023-05-08T14:16:14.171Z</time>
        <extensions>
        <gpxtpx:TrackPointExtension>
        <gpxtpx:Extensions>
            <surface>asphalt</surface>
        </gpxtpx:Extensions>
        </gpxtpx:TrackPointExtension>
        </extensions>
    </trkpt>
    <trkpt lat="45.810685" lon="15.166693">
        <ele>190.5</ele>
        <time>2023-05-08T14:16:25.236Z</time>
        <extensions>
        <gpxtpx:TrackPointExtension>
        <gpxtpx:Extensions>
            <surface>asphalt</surface>
        </gpxtpx:Extensions>
        </gpxtpx:TrackPointExtension>
        </extensions>
    </trkpt>
    <trkpt lat="45.810995" lon="15.167401">
        <ele>188.8</ele>
        <time>2023-05-08T14:16:40.788Z</time>
        <extensions>
        <gpxtpx:TrackPointExtension>
        <gpxtpx:Extensions>
            <surface>asphalt</surface>
        </gpxtpx:Extensions>
        </gpxtpx:TrackPointExtension>
        </extensions>
    </trkpt>
    <trkpt lat="45.811128" lon="15.167724">
        <ele>188.8</ele>
        <time>2023-05-08T14:16:47.766Z</time>
        <extensions>
        <gpxtpx:TrackPointExtension>
        <gpxtpx:Extensions>
            <surface>asphalt</surface>
        </gpxtpx:Extensions>
        </gpxtpx:TrackPointExtension>
        </extensions>
    </trkpt>
    <trkpt lat="45.811249" lon="15.168088">
        <ele>188.3</ele>
        <time>2023-05-08T14:16:55.267Z</time>
        <extensions>
        <gpxtpx:TrackPointExtension>
        <gpxtpx:Extensions>
            <surface>asphalt</surface>
        </gpxtpx:Extensions>
        </gpxtpx:TrackPointExtension>
        </extensions>
    </trkpt>
    <trkpt lat="45.81129" lon="15.168252">
        <ele>187.8</ele>
        <time>2023-05-08T14:16:58.507Z</time>
        <extensions>
        <gpxtpx:TrackPointExtension>
        <gpxtpx:Extensions>
            <surface>asphalt</surface>
        </gpxtpx:Extensions>
        </gpxtpx:TrackPointExtension>
        </extensions>
    </trkpt>
    <trkpt lat="45.811354" lon="15.168577">
        <ele>186.8</ele>
        <time>2023-05-08T14:17:04.789Z</time>
        <extensions>
        <gpxtpx:TrackPointExtension>
        <gpxtpx:Extensions>
            <surface>asphalt</surface>
        </gpxtpx:Extensions>
        </gpxtpx:TrackPointExtension>
        </extensions>
    </trkpt>
    <trkpt lat="45.811449" lon="15.169259">
        <ele>183.3</ele>
        <time>2023-05-08T14:17:17.725Z</time>
        <extensions>
        <gpxtpx:TrackPointExtension>
        <gpxtpx:Extensions>
            <surface>asphalt</surface>
        </gpxtpx:Extensions>
        </gpxtpx:TrackPointExtension>
        </extensions>
    </trkpt>
    <trkpt lat="45.811498" lon="15.169567">
        <ele>183.3</ele>
        <time>2023-05-08T14:17:23.601Z</time>
        <extensions>
        <gpxtpx:TrackPointExtension>
        <gpxtpx:Extensions>
            <surface>asphalt</surface>
        </gpxtpx:Extensions>
        </gpxtpx:TrackPointExtension>
        </extensions>
    </trkpt>
    <trkpt lat="45.811709" lon="15.17029">
        <ele>182.8</ele>
        <time>2023-05-08T14:17:38.180Z</time>
        <extensions>
        <gpxtpx:TrackPointExtension>
        <gpxtpx:Extensions>
            <surface>asphalt</surface>
        </gpxtpx:Extensions>
        </gpxtpx:TrackPointExtension>
        </extensions>
    </trkpt>
    <trkpt lat="45.811878" lon="15.170772">
        <ele>181.5</ele>
        <time>2023-05-08T14:17:48.216Z</time>
        <extensions>
        <gpxtpx:TrackPointExtension>
        <gpxtpx:Extensions>
            <surface>asphalt</surface>
        </gpxtpx:Extensions>
        </gpxtpx:TrackPointExtension>
        </extensions>
    </trkpt>
    <trkpt lat="45.812293" lon="15.172021">
        <ele>177.5</ele>
        <time>2023-05-08T14:18:13.953Z</time>
        <extensions>
        <gpxtpx:TrackPointExtension>
        <gpxtpx:Extensions>
            <surface>asphalt</surface>
        </gpxtpx:Extensions>
        </gpxtpx:TrackPointExtension>
        </extensions>
    </trkpt>
    <trkpt lat="45.812334" lon="15.172146">
        <ele>177.3</ele>
        <time>2023-05-08T14:18:16.522Z</time>
        <extensions>
        <gpxtpx:TrackPointExtension>
        <gpxtpx:Extensions>
            <surface>asphalt</surface>
        </gpxtpx:Extensions>
        </gpxtpx:TrackPointExtension>
        </extensions>
    </trkpt>
    <trkpt lat="45.812593" lon="15.172872">
        <ele>178.0</ele>
        <time>2023-05-08T14:18:31.692Z</time>
        <extensions>
        <gpxtpx:TrackPointExtension>
        <gpxtpx:Extensions>
            <surface>asphalt</surface>
        </gpxtpx:Extensions>
        </gpxtpx:TrackPointExtension>
        </extensions>
    </trkpt>
    <trkpt lat="45.812916" lon="15.173857">
        <ele>179.3</ele>
        <time>2023-05-08T14:18:51.940Z</time>
        <extensions>
        <gpxtpx:TrackPointExtension>
        <gpxtpx:Extensions>
            <surface>asphalt</surface>
        </gpxtpx:Extensions>
        </gpxtpx:TrackPointExtension>
        </extensions>
    </trkpt>
    <trkpt lat="45.812958" lon="15.173978">
        <ele>179.5</ele>
        <time>2023-05-08T14:18:54.454Z</time>
        <extensions>
        <gpxtpx:TrackPointExtension>
        <gpxtpx:Extensions>
            <surface>asphalt</surface>
        </gpxtpx:Extensions>
        </gpxtpx:TrackPointExtension>
        </extensions>
    </trkpt>
    <trkpt lat="45.813016" lon="15.174168">
        <ele>179.5</ele>
        <time>2023-05-08T14:18:58.312Z</time>
        <extensions>
        <gpxtpx:TrackPointExtension>
        <gpxtpx:Extensions>
            <surface>asphalt</surface>
        </gpxtpx:Extensions>
        </gpxtpx:TrackPointExtension>
        </extensions>
    </trkpt>
    <trkpt lat="45.813057" lon="15.174298">
        <ele>179.0</ele>
        <time>2023-05-08T14:19:00.966Z</time>
        <extensions>
        <gpxtpx:TrackPointExtension>
        <gpxtpx:Extensions>
            <surface>asphalt</surface>
        </gpxtpx:Extensions>
        </gpxtpx:TrackPointExtension>
        </extensions>
    </trkpt>
    <trkpt lat="45.813233" lon="15.174816">
        <ele>177.3</ele>
        <time>2023-05-08T14:19:11.685Z</time>
        <extensions>
        <gpxtpx:TrackPointExtension>
        <gpxtpx:Extensions>
            <surface>asphalt</surface>
        </gpxtpx:Extensions>
        </gpxtpx:TrackPointExtension>
        </extensions>
    </trkpt>
    <trkpt lat="45.813365" lon="15.175201">
        <ele>176.0</ele>
        <time>2023-05-08T14:19:19.665Z</time>
        <extensions>
        <gpxtpx:TrackPointExtension>
        <gpxtpx:Extensions>
            <surface>asphalt</surface>
        </gpxtpx:Extensions>
        </gpxtpx:TrackPointExtension>
        </extensions>
    </trkpt>
    <trkpt lat="45.81347" lon="15.175485">
        <ele>175.5</ele>
        <time>2023-05-08T14:19:25.644Z</time>
        <extensions>
        <gpxtpx:TrackPointExtension>
        <gpxtpx:Extensions>
            <surface>asphalt</surface>
        </gpxtpx:Extensions>
        </gpxtpx:TrackPointExtension>
        </extensions>
    </trkpt>
    <trkpt lat="45.813549" lon="15.175685">
        <ele>175.5</ele>
        <time>2023-05-08T14:19:29.919Z</time>
        <extensions>
        <gpxtpx:TrackPointExtension>
        <gpxtpx:Extensions>
            <surface>asphalt</surface>
        </gpxtpx:Extensions>
        </gpxtpx:TrackPointExtension>
        </extensions>
    </trkpt>
    <trkpt lat="45.813632" lon="15.175866">
        <ele>175.8</ele>
        <time>2023-05-08T14:19:33.949Z</time>
        <extensions>
        <gpxtpx:TrackPointExtension>
        <gpxtpx:Extensions>
            <surface>asphalt</surface>
        </gpxtpx:Extensions>
        </gpxtpx:TrackPointExtension>
        </extensions>
    </trkpt>
    <trkpt lat="45.813722" lon="15.176046">
        <ele>176.5</ele>
        <time>2023-05-08T14:19:38.069Z</time>
        <extensions>
        <gpxtpx:TrackPointExtension>
        <gpxtpx:Extensions>
            <surface>asphalt</surface>
        </gpxtpx:Extensions>
        </gpxtpx:TrackPointExtension>
        </extensions>
    </trkpt>
    <trkpt lat="45.813911" lon="15.176326">
        <ele>177.8</ele>
        <time>2023-05-08T14:19:45.319Z</time>
        <extensions>
        <gpxtpx:TrackPointExtension>
        <gpxtpx:Extensions>
            <surface>asphalt</surface>
        </gpxtpx:Extensions>
        </gpxtpx:TrackPointExtension>
        </extensions>
    </trkpt>
    <trkpt lat="45.814239" lon="15.176729">
        <ele>177.8</ele>
        <time>2023-05-08T14:19:56.843Z</time>
        <extensions>
        <gpxtpx:TrackPointExtension>
        <gpxtpx:Extensions>
            <surface>asphalt</surface>
        </gpxtpx:Extensions>
        </gpxtpx:TrackPointExtension>
        </extensions>
    </trkpt>
    <trkpt lat="45.814343" lon="15.176846">
        <ele>177.8</ele>
        <time>2023-05-08T14:20:00.369Z</time>
        <extensions>
        <gpxtpx:TrackPointExtension>
        <gpxtpx:Extensions>
            <surface>asphalt</surface>
        </gpxtpx:Extensions>
        </gpxtpx:TrackPointExtension>
        </extensions>
    </trkpt>
    <trkpt lat="45.81443" lon="15.176898">
        <ele>177.8</ele>
        <time>2023-05-08T14:20:02.884Z</time>
        <extensions>
        <gpxtpx:TrackPointExtension>
        <gpxtpx:Extensions>
            <surface>asphalt</surface>
        </gpxtpx:Extensions>
        </gpxtpx:TrackPointExtension>
        </extensions>
    </trkpt>
    <trkpt lat="45.814276" lon="15.177087">
        <ele>176.5</ele>
        <time>2023-05-08T14:20:08.292Z</time>
        <extensions>
        <gpxtpx:TrackPointExtension>
        <gpxtpx:Extensions>
            <surface>asphalt</surface>
        </gpxtpx:Extensions>
        </gpxtpx:TrackPointExtension>
        </extensions>
    </trkpt>
    <trkpt lat="45.814267" lon="15.177101">
        <ele>176.5</ele>
        <time>2023-05-08T14:20:08.646Z</time>
        <extensions>
        <gpxtpx:TrackPointExtension>
        <gpxtpx:Extensions>
            <surface>asphalt</surface>
        </gpxtpx:Extensions>
        </gpxtpx:TrackPointExtension>
        </extensions>
    </trkpt>
    <trkpt lat="45.814002" lon="15.177445">
        <ele>174.0</ele>
        <time>2023-05-08T14:20:18.182Z</time>
        <extensions>
        <gpxtpx:TrackPointExtension>
        <gpxtpx:Extensions>
            <surface>asphalt</surface>
        </gpxtpx:Extensions>
        </gpxtpx:TrackPointExtension>
        </extensions>
    </trkpt>
    <trkpt lat="45.813251" lon="15.178404">
        <ele>174.0</ele>
        <time>2023-05-08T14:20:45.012Z</time>
    </trkpt>
    <trkpt lat="45.813011" lon="15.178691">
        <ele>174.0</ele>
        <time>2023-05-08T14:20:53.349Z</time>
    </trkpt>
    <trkpt lat="45.81286" lon="15.178863">
        <ele>171.5</ele>
        <time>2023-05-08T14:20:58.494Z</time>
    </trkpt>
    <trkpt lat="45.812599" lon="15.179151">
        <ele>172.8</ele>
        <time>2023-05-08T14:21:07.281Z</time>
    </trkpt>
    <trkpt lat="45.812325" lon="15.179419">
        <ele>174.0</ele>
        <time>2023-05-08T14:21:16.130Z</time>
    </trkpt>
    <trkpt lat="45.812268" lon="15.179474">
        <ele>174.5</ele>
        <time>2023-05-08T14:21:17.963Z</time>
    </trkpt>
    <trkpt lat="45.812201" lon="15.179542">
        <ele>175.0</ele>
        <time>2023-05-08T14:21:20.153Z</time>
    </trkpt>
    <trkpt lat="45.812155" lon="15.179575">
        <ele>175.3</ele>
        <time>2023-05-08T14:21:21.525Z</time>
    </trkpt>
    <trkpt lat="45.812145" lon="15.179582">
        <ele>175.3</ele>
        <time>2023-05-08T14:21:21.821Z</time>
    </trkpt>
    <trkpt lat="45.811966" lon="15.179729">
        <ele>176.5</ele>
        <time>2023-05-08T14:21:27.325Z</time>
    </trkpt>
    <trkpt lat="45.812062" lon="15.179726">
        <ele>176.0</ele>
        <time>2023-05-08T14:21:29.887Z</time>
    </trkpt>
    <trkpt lat="45.812255" lon="15.179753">
        <ele>175.0</ele>
        <time>2023-05-08T14:21:35.061Z</time>
    </trkpt>
    <trkpt lat="45.812309" lon="15.179766">
        <ele>174.8</ele>
        <time>2023-05-08T14:21:36.522Z</time>
    </trkpt>
    <trkpt lat="45.81236" lon="15.179768">
        <ele>174.5</ele>
        <time>2023-05-08T14:21:37.883Z</time>
    </trkpt>
    <trkpt lat="45.812406" lon="15.17976">
        <ele>174.0</ele>
        <time>2023-05-08T14:21:39.119Z</time>
    </trkpt>
    <trkpt lat="45.812464" lon="15.179738">
        <ele>173.8</ele>
        <time>2023-05-08T14:21:40.720Z</time>
    </trkpt>
    <trkpt lat="45.812487" lon="15.179726">
        <ele>173.5</ele>
        <time>2023-05-08T14:21:41.373Z</time>
        <extensions>
        <gpxtpx:TrackPointExtension>
        <gpxtpx:Extensions>
            <surface>paved</surface>
        </gpxtpx:Extensions>
        </gpxtpx:TrackPointExtension>
        </extensions>
    </trkpt>
    <trkpt lat="45.812553" lon="15.179672">
        <ele>173.5</ele>
        <time>2023-05-08T14:21:43.400Z</time>
        <extensions>
        <gpxtpx:TrackPointExtension>
        <gpxtpx:Extensions>
            <surface>paved</surface>
        </gpxtpx:Extensions>
        </gpxtpx:TrackPointExtension>
        </extensions>
    </trkpt>
    <trkpt lat="45.812863" lon="15.179313">
        <ele>172.5</ele>
        <time>2023-05-08T14:21:54.031Z</time>
        <extensions>
        <gpxtpx:TrackPointExtension>
        <gpxtpx:Extensions>
            <surface>paved</surface>
        </gpxtpx:Extensions>
        </gpxtpx:TrackPointExtension>
        </extensions>
    </trkpt>
    <trkpt lat="45.812972" lon="15.179209">
        <ele>172.0</ele>
        <time>2023-05-08T14:21:57.524Z</time>
        <extensions>
        <gpxtpx:TrackPointExtension>
        <gpxtpx:Extensions>
            <surface>paved</surface>
        </gpxtpx:Extensions>
        </gpxtpx:TrackPointExtension>
        </extensions>
    </trkpt>
    <trkpt lat="45.813041" lon="15.179163">
        <ele>171.5</ele>
        <time>2023-05-08T14:21:59.554Z</time>
        <extensions>
        <gpxtpx:TrackPointExtension>
        <gpxtpx:Extensions>
            <surface>paved</surface>
        </gpxtpx:Extensions>
        </gpxtpx:TrackPointExtension>
        </extensions>
    </trkpt>
    <trkpt lat="45.813133" lon="15.179112">
        <ele>171.3</ele>
        <time>2023-05-08T14:22:02.186Z</time>
        <extensions>
        <gpxtpx:TrackPointExtension>
        <gpxtpx:Extensions>
            <surface>paved</surface>
        </gpxtpx:Extensions>
        </gpxtpx:TrackPointExtension>
        </extensions>
    </trkpt>
    <trkpt lat="45.813257" lon="15.17956">
        <ele>173.8</ele>
        <time>2023-05-08T14:22:11.152Z</time>
        <extensions>
        <gpxtpx:TrackPointExtension>
        <gpxtpx:Extensions>
            <surface>asphalt</surface>
        </gpxtpx:Extensions>
        </gpxtpx:TrackPointExtension>
        </extensions>
    </trkpt>
    <trkpt lat="45.813354" lon="15.179798">
        <ele>175.3</ele>
        <time>2023-05-08T14:22:16.280Z</time>
        <extensions>
        <gpxtpx:TrackPointExtension>
        <gpxtpx:Extensions>
            <surface>asphalt</surface>
        </gpxtpx:Extensions>
        </gpxtpx:TrackPointExtension>
        </extensions>
    </trkpt>
    <trkpt lat="45.813425" lon="15.179955">
        <ele>175.8</ele>
        <time>2023-05-08T14:22:19.761Z</time>
        <extensions>
        <gpxtpx:TrackPointExtension>
        <gpxtpx:Extensions>
            <surface>asphalt</surface>
        </gpxtpx:Extensions>
        </gpxtpx:TrackPointExtension>
        </extensions>
    </trkpt>
    <trkpt lat="45.813711" lon="15.180367">
        <ele>175.0</ele>
        <time>2023-05-08T14:22:30.576Z</time>
        <extensions>
        <gpxtpx:TrackPointExtension>
        <gpxtpx:Extensions>
            <surface>asphalt</surface>
        </gpxtpx:Extensions>
        </gpxtpx:TrackPointExtension>
        </extensions>
    </trkpt>
    <trkpt lat="45.813725" lon="15.180381">
        <ele>174.8</ele>
        <time>2023-05-08T14:22:31.031Z</time>
        <extensions>
        <gpxtpx:TrackPointExtension>
        <gpxtpx:Extensions>
            <surface>asphalt</surface>
        </gpxtpx:Extensions>
        </gpxtpx:TrackPointExtension>
        </extensions>
    </trkpt>
    <trkpt lat="45.814129" lon="15.180794">
        <ele>174.8</ele>
        <time>2023-05-08T14:22:44.269Z</time>
        <extensions>
        <gpxtpx:TrackPointExtension>
        <gpxtpx:Extensions>
            <surface>asphalt</surface>
        </gpxtpx:Extensions>
        </gpxtpx:TrackPointExtension>
        </extensions>
    </trkpt>
    <trkpt lat="45.814928" lon="15.18155">
        <ele>175.3</ele>
        <time>2023-05-08T14:23:09.810Z</time>
        <extensions>
        <gpxtpx:TrackPointExtension>
        <gpxtpx:Extensions>
            <surface>asphalt</surface>
        </gpxtpx:Extensions>
        </gpxtpx:TrackPointExtension>
        </extensions>
    </trkpt>
    <trkpt lat="45.81541" lon="15.181998">
        <ele>174.5</ele>
        <time>2023-05-08T14:23:25.136Z</time>
        <extensions>
        <gpxtpx:TrackPointExtension>
        <gpxtpx:Extensions>
            <surface>asphalt</surface>
        </gpxtpx:Extensions>
        </gpxtpx:TrackPointExtension>
        </extensions>
    </trkpt>
    <trkpt lat="45.815517" lon="15.182138">
        <ele>174.3</ele>
        <time>2023-05-08T14:23:29.000Z</time>
        <extensions>
        <gpxtpx:TrackPointExtension>
        <gpxtpx:Extensions>
            <surface>asphalt</surface>
        </gpxtpx:Extensions>
        </gpxtpx:TrackPointExtension>
        </extensions>
    </trkpt>
    <trkpt lat="45.815651" lon="15.182354">
        <ele>174.0</ele>
        <time>2023-05-08T14:23:34.378Z</time>
        <extensions>
        <gpxtpx:TrackPointExtension>
        <gpxtpx:Extensions>
            <surface>asphalt</surface>
        </gpxtpx:Extensions>
        </gpxtpx:TrackPointExtension>
        </extensions>
    </trkpt>
    <trkpt lat="45.815782" lon="15.182548">
        <ele>174.0</ele>
        <time>2023-05-08T14:23:39.402Z</time>
        <extensions>
        <gpxtpx:TrackPointExtension>
        <gpxtpx:Extensions>
            <surface>asphalt</surface>
        </gpxtpx:Extensions>
        </gpxtpx:TrackPointExtension>
        </extensions>
    </trkpt>
    <trkpt lat="45.815937" lon="15.182742">
        <ele>173.3</ele>
        <time>2023-05-08T14:23:44.891Z</time>
        <extensions>
        <gpxtpx:TrackPointExtension>
        <gpxtpx:Extensions>
            <surface>asphalt</surface>
        </gpxtpx:Extensions>
        </gpxtpx:TrackPointExtension>
        </extensions>
    </trkpt>
    <trkpt lat="45.816076" lon="15.182963">
        <ele>172.5</ele>
        <time>2023-05-08T14:23:50.427Z</time>
        <extensions>
        <gpxtpx:TrackPointExtension>
        <gpxtpx:Extensions>
            <surface>asphalt</surface>
        </gpxtpx:Extensions>
        </gpxtpx:TrackPointExtension>
        </extensions>
    </trkpt>
    <trkpt lat="45.816321" lon="15.183234">
        <ele>171.8</ele>
        <time>2023-05-08T14:23:58.682Z</time>
        <extensions>
        <gpxtpx:TrackPointExtension>
        <gpxtpx:Extensions>
            <surface>asphalt</surface>
        </gpxtpx:Extensions>
        </gpxtpx:TrackPointExtension>
        </extensions>
    </trkpt>
    <trkpt lat="45.81659" lon="15.183677">
        <ele>174.5</ele>
        <time>2023-05-08T14:24:09.610Z</time>
        <extensions>
        <gpxtpx:TrackPointExtension>
        <gpxtpx:Extensions>
            <surface>asphalt</surface>
        </gpxtpx:Extensions>
        </gpxtpx:TrackPointExtension>
        </extensions>
    </trkpt>
    <trkpt lat="45.816779" lon="15.183945">
        <ele>177.5</ele>
        <time>2023-05-08T14:24:16.701Z</time>
        <extensions>
        <gpxtpx:TrackPointExtension>
        <gpxtpx:Extensions>
            <surface>asphalt</surface>
        </gpxtpx:Extensions>
        </gpxtpx:TrackPointExtension>
        </extensions>
    </trkpt>
    <trkpt lat="45.816877" lon="15.184051">
        <ele>178.3</ele>
        <time>2023-05-08T14:24:19.976Z</time>
        <extensions>
        <gpxtpx:TrackPointExtension>
        <gpxtpx:Extensions>
            <surface>asphalt</surface>
        </gpxtpx:Extensions>
        </gpxtpx:TrackPointExtension>
        </extensions>
    </trkpt>
    <trkpt lat="45.817063" lon="15.184208">
        <ele>179.3</ele>
        <time>2023-05-08T14:24:25.734Z</time>
        <extensions>
        <gpxtpx:TrackPointExtension>
        <gpxtpx:Extensions>
            <surface>asphalt</surface>
        </gpxtpx:Extensions>
        </gpxtpx:TrackPointExtension>
        </extensions>
    </trkpt>
    <trkpt lat="45.817435" lon="15.184463">
        <ele>179.3</ele>
        <time>2023-05-08T14:24:36.736Z</time>
        <extensions>
        <gpxtpx:TrackPointExtension>
        <gpxtpx:Extensions>
            <surface>asphalt</surface>
        </gpxtpx:Extensions>
        </gpxtpx:TrackPointExtension>
        </extensions>
    </trkpt>
    <trkpt lat="45.817681" lon="15.184665">
        <ele>179.5</ele>
        <time>2023-05-08T14:24:44.299Z</time>
        <extensions>
        <gpxtpx:TrackPointExtension>
        <gpxtpx:Extensions>
            <surface>asphalt</surface>
        </gpxtpx:Extensions>
        </gpxtpx:TrackPointExtension>
        </extensions>
    </trkpt>
    <trkpt lat="45.817919" lon="15.184803">
        <ele>179.5</ele>
        <time>2023-05-08T14:24:51.149Z</time>
        <extensions>
        <gpxtpx:TrackPointExtension>
        <gpxtpx:Extensions>
            <surface>asphalt</surface>
        </gpxtpx:Extensions>
        </gpxtpx:TrackPointExtension>
        </extensions>
    </trkpt>
    <trkpt lat="45.81805" lon="15.184873">
        <ele>179.5</ele>
        <time>2023-05-08T14:24:54.879Z</time>
        <extensions>
        <gpxtpx:TrackPointExtension>
        <gpxtpx:Extensions>
            <surface>asphalt</surface>
        </gpxtpx:Extensions>
        </gpxtpx:TrackPointExtension>
        </extensions>
    </trkpt>
    <trkpt lat="45.818162" lon="15.184895">
        <ele>179.3</ele>
        <time>2023-05-08T14:24:57.895Z</time>
        <extensions>
        <gpxtpx:TrackPointExtension>
        <gpxtpx:Extensions>
            <surface>asphalt</surface>
        </gpxtpx:Extensions>
        </gpxtpx:TrackPointExtension>
        </extensions>
    </trkpt>
    <trkpt lat="45.818601" lon="15.184932">
        <ele>177.5</ele>
        <time>2023-05-08T14:25:09.630Z</time>
        <extensions>
        <gpxtpx:TrackPointExtension>
        <gpxtpx:Extensions>
            <surface>asphalt</surface>
        </gpxtpx:Extensions>
        </gpxtpx:TrackPointExtension>
        </extensions>
    </trkpt>
    <trkpt lat="45.818824" lon="15.185104">
        <ele>176.3</ele>
        <time>2023-05-08T14:25:16.386Z</time>
        <extensions>
        <gpxtpx:TrackPointExtension>
        <gpxtpx:Extensions>
            <surface>asphalt</surface>
        </gpxtpx:Extensions>
        </gpxtpx:TrackPointExtension>
        </extensions>
    </trkpt>
    <trkpt lat="45.819184" lon="15.185455">
        <ele>174.3</ele>
        <time>2023-05-08T14:25:28.001Z</time>
        <extensions>
        <gpxtpx:TrackPointExtension>
        <gpxtpx:Extensions>
            <surface>asphalt</surface>
        </gpxtpx:Extensions>
        </gpxtpx:TrackPointExtension>
        </extensions>
    </trkpt>
    <trkpt lat="45.81937" lon="15.185688">
        <ele>173.5</ele>
        <time>2023-05-08T14:25:34.590Z</time>
        <extensions>
        <gpxtpx:TrackPointExtension>
        <gpxtpx:Extensions>
            <surface>asphalt</surface>
        </gpxtpx:Extensions>
        </gpxtpx:TrackPointExtension>
        </extensions>
    </trkpt>
    <trkpt lat="45.819738" lon="15.186177">
        <ele>173.3</ele>
        <time>2023-05-08T14:25:47.975Z</time>
        <extensions>
        <gpxtpx:TrackPointExtension>
        <gpxtpx:Extensions>
            <surface>asphalt</surface>
        </gpxtpx:Extensions>
        </gpxtpx:TrackPointExtension>
        </extensions>
    </trkpt>
    <trkpt lat="45.819966" lon="15.186509">
        <ele>173.5</ele>
        <time>2023-05-08T14:25:56.643Z</time>
        <extensions>
        <gpxtpx:TrackPointExtension>
        <gpxtpx:Extensions>
            <surface>asphalt</surface>
        </gpxtpx:Extensions>
        </gpxtpx:TrackPointExtension>
        </extensions>
    </trkpt>
    <trkpt lat="45.820031" lon="15.186623">
        <ele>174.0</ele>
        <time>2023-05-08T14:25:59.382Z</time>
        <extensions>
        <gpxtpx:TrackPointExtension>
        <gpxtpx:Extensions>
            <surface>asphalt</surface>
        </gpxtpx:Extensions>
        </gpxtpx:TrackPointExtension>
        </extensions>
    </trkpt>
    <trkpt lat="45.820262" lon="15.187096">
        <ele>176.0</ele>
        <time>2023-05-08T14:26:10.123Z</time>
        <extensions>
        <gpxtpx:TrackPointExtension>
        <gpxtpx:Extensions>
            <surface>asphalt</surface>
        </gpxtpx:Extensions>
        </gpxtpx:TrackPointExtension>
        </extensions>
    </trkpt>
    <trkpt lat="45.820335" lon="15.187061">
        <ele>176.3</ele>
        <time>2023-05-08T14:26:12.177Z</time>
    </trkpt>
    <trkpt lat="45.820441" lon="15.186995">
        <ele>176.5</ele>
        <time>2023-05-08T14:26:15.260Z</time>
    </trkpt>
    <trkpt lat="45.82046" lon="15.186971">
        <ele>176.5</ele>
        <time>2023-05-08T14:26:15.935Z</time>
    </trkpt>
    <trkpt lat="45.820534" lon="15.186796">
        <ele>176.3</ele>
        <time>2023-05-08T14:26:19.741Z</time>
    </trkpt>
    <trkpt lat="45.820555" lon="15.186764">
        <ele>176.3</ele>
        <time>2023-05-08T14:26:20.558Z</time>
    </trkpt>
    <trkpt lat="45.820582" lon="15.186739">
        <ele>176.3</ele>
        <time>2023-05-08T14:26:21.415Z</time>
    </trkpt>
    <trkpt lat="45.820614" lon="15.186739">
        <ele>176.3</ele>
        <time>2023-05-08T14:26:22.268Z</time>
    </trkpt>
    <trkpt lat="45.820944" lon="15.187011">
        <ele>177.8</ele>
        <time>2023-05-08T14:26:32.424Z</time>
    </trkpt>
    <trkpt lat="45.821043" lon="15.187079">
        <ele>177.8</ele>
        <time>2023-05-08T14:26:35.353Z</time>
    </trkpt>
    <trkpt lat="45.821401" lon="15.187447">
        <ele>178.8</ele>
        <time>2023-05-08T14:26:47.105Z</time>
    </trkpt>
    <trkpt lat="45.821446" lon="15.187494">
        <ele>179.0</ele>
        <time>2023-05-08T14:26:48.590Z</time>
    </trkpt>
    <trkpt lat="45.821537" lon="15.187496">
        <ele>179.0</ele>
        <time>2023-05-08T14:26:51.018Z</time>
    </trkpt>
    <trkpt lat="45.821572" lon="15.18746">
        <ele>178.8</ele>
        <time>2023-05-08T14:26:52.167Z</time>
    </trkpt>
    <trkpt lat="45.821613" lon="15.18738">
        <ele>178.3</ele>
        <time>2023-05-08T14:26:54.013Z</time>
    </trkpt>
    <trkpt lat="45.821633" lon="15.187364">
        <ele>178.0</ele>
        <time>2023-05-08T14:26:54.624Z</time>
    </trkpt>
    <trkpt lat="45.821654" lon="15.187361">
        <ele>178.0</ele>
        <time>2023-05-08T14:26:55.187Z</time>
    </trkpt>
    <trkpt lat="45.82169" lon="15.187372">
        <ele>177.8</ele>
        <time>2023-05-08T14:26:56.169Z</time>
    </trkpt>
    <trkpt lat="45.821734" lon="15.18741">
        <ele>177.5</ele>
        <time>2023-05-08T14:26:57.539Z</time>
    </trkpt>
    <trkpt lat="45.821785" lon="15.18748">
        <ele>177.0</ele>
        <time>2023-05-08T14:26:59.422Z</time>
    </trkpt>
    <trkpt lat="45.821818" lon="15.187523">
        <ele>176.8</ele>
        <time>2023-05-08T14:27:00.611Z</time>
    </trkpt>
    <trkpt lat="45.821839" lon="15.187537">
        <ele>176.5</ele>
        <time>2023-05-08T14:27:01.228Z</time>
    </trkpt>
    <trkpt lat="45.821916" lon="15.187561">
        <ele>175.3</ele>
        <time>2023-05-08T14:27:03.330Z</time>
    </trkpt>
    <trkpt lat="45.821943" lon="15.187586">
        <ele>175.0</ele>
        <time>2023-05-08T14:27:04.187Z</time>
    </trkpt>
    <trkpt lat="45.821971" lon="15.187633">
        <ele>174.5</ele>
        <time>2023-05-08T14:27:05.336Z</time>
    </trkpt>
    <trkpt lat="45.821992" lon="15.187681">
        <ele>174.3</ele>
        <time>2023-05-08T14:27:06.390Z</time>
    </trkpt>
    <trkpt lat="45.822007" lon="15.187742">
        <ele>174.0</ele>
        <time>2023-05-08T14:27:07.593Z</time>
    </trkpt>
    <trkpt lat="45.822018" lon="15.187853">
        <ele>174.0</ele>
        <time>2023-05-08T14:27:09.678Z</time>
    </trkpt>
    <trkpt lat="45.822009" lon="15.188086">
        <ele>174.3</ele>
        <time>2023-05-08T14:27:14.017Z</time>
    </trkpt>
    <trkpt lat="45.821965" lon="15.18825">
        <ele>175.0</ele>
        <time>2023-05-08T14:27:17.285Z</time>
    </trkpt>
    <trkpt lat="45.821838" lon="15.188412">
        <ele>176.5</ele>
        <time>2023-05-08T14:27:21.819Z</time>
    </trkpt>
    <trkpt lat="45.821703" lon="15.188511">
        <ele>178.3</ele>
        <time>2023-05-08T14:27:25.864Z</time>
    </trkpt>
    <trkpt lat="45.821641" lon="15.18854">
        <ele>178.8</ele>
        <time>2023-05-08T14:27:27.604Z</time>
    </trkpt>
    <trkpt lat="45.821549" lon="15.188558">
        <ele>178.8</ele>
        <time>2023-05-08T14:27:30.081Z</time>
    </trkpt>
    <trkpt lat="45.821428" lon="15.188554">
        <ele>178.8</ele>
        <time>2023-05-08T14:27:33.310Z</time>
    </trkpt>
    <trkpt lat="45.821424" lon="15.188617">
        <ele>178.8</ele>
        <time>2023-05-08T14:27:34.486Z</time>
        <extensions>
        <gpxtpx:TrackPointExtension>
        <gpxtpx:Extensions>
            <surface>asphalt</surface>
        </gpxtpx:Extensions>
        </gpxtpx:TrackPointExtension>
        </extensions>
    </trkpt>
    <trkpt lat="45.821392" lon="15.188678">
        <ele>178.5</ele>
        <time>2023-05-08T14:27:35.905Z</time>
        <extensions>
        <gpxtpx:TrackPointExtension>
        <gpxtpx:Extensions>
            <surface>asphalt</surface>
        </gpxtpx:Extensions>
        </gpxtpx:TrackPointExtension>
        </extensions>
    </trkpt>
    <trkpt lat="45.82116" lon="15.188985">
        <ele>178.5</ele>
        <time>2023-05-08T14:27:44.327Z</time>
        <extensions>
        <gpxtpx:TrackPointExtension>
        <gpxtpx:Extensions>
            <surface>asphalt</surface>
        </gpxtpx:Extensions>
        </gpxtpx:TrackPointExtension>
        </extensions>
    </trkpt>
    <trkpt lat="45.820943" lon="15.189174">
        <ele>178.8</ele>
        <time>2023-05-08T14:27:51.101Z</time>
        <extensions>
        <gpxtpx:TrackPointExtension>
        <gpxtpx:Extensions>
            <surface>asphalt</surface>
        </gpxtpx:Extensions>
        </gpxtpx:TrackPointExtension>
        </extensions>
    </trkpt>
    <trkpt lat="45.820833" lon="15.189304">
        <ele>179.0</ele>
        <time>2023-05-08T14:27:54.904Z</time>
        <extensions>
        <gpxtpx:TrackPointExtension>
        <gpxtpx:Extensions>
            <surface>asphalt</surface>
        </gpxtpx:Extensions>
        </gpxtpx:TrackPointExtension>
        </extensions>
    </trkpt>
    <trkpt lat="45.820759" lon="15.189405">
        <ele>179.3</ele>
        <time>2023-05-08T14:27:57.629Z</time>
        <extensions>
        <gpxtpx:TrackPointExtension>
        <gpxtpx:Extensions>
            <surface>asphalt</surface>
        </gpxtpx:Extensions>
        </gpxtpx:TrackPointExtension>
        </extensions>
    </trkpt>
    <trkpt lat="45.820724" lon="15.189521">
        <ele>179.5</ele>
        <time>2023-05-08T14:27:59.979Z</time>
        <extensions>
        <gpxtpx:TrackPointExtension>
        <gpxtpx:Extensions>
            <surface>asphalt</surface>
        </gpxtpx:Extensions>
        </gpxtpx:TrackPointExtension>
        </extensions>
    </trkpt>
    <trkpt lat="45.820678" lon="15.189952">
        <ele>180.3</ele>
        <time>2023-05-08T14:28:08.088Z</time>
        <extensions>
        <gpxtpx:TrackPointExtension>
        <gpxtpx:Extensions>
            <surface>asphalt</surface>
        </gpxtpx:Extensions>
        </gpxtpx:TrackPointExtension>
        </extensions>
    </trkpt>
    <trkpt lat="45.820646" lon="15.19009">
        <ele>180.5</ele>
        <time>2023-05-08T14:28:10.792Z</time>
        <extensions>
        <gpxtpx:TrackPointExtension>
        <gpxtpx:Extensions>
            <surface>asphalt</surface>
        </gpxtpx:Extensions>
        </gpxtpx:TrackPointExtension>
        </extensions>
    </trkpt>
    <trkpt lat="45.820626" lon="15.190135">
        <ele>180.5</ele>
        <time>2023-05-08T14:28:11.784Z</time>
        <extensions>
        <gpxtpx:TrackPointExtension>
        <gpxtpx:Extensions>
            <surface>asphalt</surface>
        </gpxtpx:Extensions>
        </gpxtpx:TrackPointExtension>
        </extensions>
    </trkpt>
    <trkpt lat="45.820549" lon="15.190342">
        <ele>180.8</ele>
        <time>2023-05-08T14:28:16.147Z</time>
        <extensions>
        <gpxtpx:TrackPointExtension>
        <gpxtpx:Extensions>
            <surface>asphalt</surface>
        </gpxtpx:Extensions>
        </gpxtpx:TrackPointExtension>
        </extensions>
    </trkpt>
    <trkpt lat="45.82045" lon="15.190547">
        <ele>181.0</ele>
        <time>2023-05-08T14:28:20.785Z</time>
        <extensions>
        <gpxtpx:TrackPointExtension>
        <gpxtpx:Extensions>
            <surface>asphalt</surface>
        </gpxtpx:Extensions>
        </gpxtpx:TrackPointExtension>
        </extensions>
    </trkpt>
    <trkpt lat="45.820366" lon="15.190702">
        <ele>181.0</ele>
        <time>2023-05-08T14:28:24.436Z</time>
        <extensions>
        <gpxtpx:TrackPointExtension>
        <gpxtpx:Extensions>
            <surface>asphalt</surface>
        </gpxtpx:Extensions>
        </gpxtpx:TrackPointExtension>
        </extensions>
    </trkpt>
    <trkpt lat="45.820284" lon="15.190892">
        <ele>181.3</ele>
        <time>2023-05-08T14:28:28.592Z</time>
        <extensions>
        <gpxtpx:TrackPointExtension>
        <gpxtpx:Extensions>
            <surface>asphalt</surface>
        </gpxtpx:Extensions>
        </gpxtpx:TrackPointExtension>
        </extensions>
    </trkpt>
    <trkpt lat="45.820254" lon="15.190999">
        <ele>181.3</ele>
        <time>2023-05-08T14:28:30.737Z</time>
        <extensions>
        <gpxtpx:TrackPointExtension>
        <gpxtpx:Extensions>
            <surface>asphalt</surface>
        </gpxtpx:Extensions>
        </gpxtpx:TrackPointExtension>
        </extensions>
    </trkpt>
    <trkpt lat="45.820248" lon="15.191089">
        <ele>181.3</ele>
        <time>2023-05-08T14:28:32.418Z</time>
        <extensions>
        <gpxtpx:TrackPointExtension>
        <gpxtpx:Extensions>
            <surface>asphalt</surface>
        </gpxtpx:Extensions>
        </gpxtpx:TrackPointExtension>
        </extensions>
    </trkpt>
    <trkpt lat="45.820259" lon="15.191171">
        <ele>181.3</ele>
        <time>2023-05-08T14:28:33.971Z</time>
        <extensions>
        <gpxtpx:TrackPointExtension>
        <gpxtpx:Extensions>
            <surface>asphalt</surface>
        </gpxtpx:Extensions>
        </gpxtpx:TrackPointExtension>
        </extensions>
    </trkpt>
    <trkpt lat="45.82068" lon="15.192048">
        <ele>180.8</ele>
        <time>2023-05-08T14:28:53.776Z</time>
        <extensions>
        <gpxtpx:TrackPointExtension>
        <gpxtpx:Extensions>
            <surface>asphalt</surface>
        </gpxtpx:Extensions>
        </gpxtpx:TrackPointExtension>
        </extensions>
    </trkpt>
    <trkpt lat="45.821005" lon="15.192619">
        <ele>182.8</ele>
        <time>2023-05-08T14:29:07.487Z</time>
        <extensions>
        <gpxtpx:TrackPointExtension>
        <gpxtpx:Extensions>
            <surface>asphalt</surface>
        </gpxtpx:Extensions>
        </gpxtpx:TrackPointExtension>
        </extensions>
    </trkpt>
    <trkpt lat="45.821156" lon="15.192899">
        <ele>183.8</ele>
        <time>2023-05-08T14:29:14.071Z</time>
        <extensions>
        <gpxtpx:TrackPointExtension>
        <gpxtpx:Extensions>
            <surface>asphalt</surface>
        </gpxtpx:Extensions>
        </gpxtpx:TrackPointExtension>
        </extensions>
    </trkpt>
    <trkpt lat="45.82136" lon="15.192812">
        <ele>185.5</ele>
        <time>2023-05-08T14:29:19.750Z</time>
        <extensions>
        <gpxtpx:TrackPointExtension>
        <gpxtpx:Extensions>
            <surface>asphalt</surface>
        </gpxtpx:Extensions>
        </gpxtpx:TrackPointExtension>
        </extensions>
    </trkpt>
    <trkpt lat="45.821495" lon="15.192821">
        <ele>186.3</ele>
        <time>2023-05-08T14:29:23.356Z</time>
        <extensions>
        <gpxtpx:TrackPointExtension>
        <gpxtpx:Extensions>
            <surface>asphalt</surface>
        </gpxtpx:Extensions>
        </gpxtpx:TrackPointExtension>
        </extensions>
    </trkpt>
    <trkpt lat="45.82194" lon="15.192858">
        <ele>185.3</ele>
        <time>2023-05-08T14:29:35.251Z</time>
        <extensions>
        <gpxtpx:TrackPointExtension>
        <gpxtpx:Extensions>
            <surface>asphalt</surface>
        </gpxtpx:Extensions>
        </gpxtpx:TrackPointExtension>
        </extensions>
    </trkpt>
    <trkpt lat="45.822115" lon="15.192856">
        <ele>183.8</ele>
        <time>2023-05-08T14:29:39.921Z</time>
        <extensions>
        <gpxtpx:TrackPointExtension>
        <gpxtpx:Extensions>
            <surface>asphalt</surface>
        </gpxtpx:Extensions>
        </gpxtpx:TrackPointExtension>
        </extensions>
    </trkpt>
    <trkpt lat="45.822141" lon="15.192863">
        <ele>183.5</ele>
        <time>2023-05-08T14:29:40.626Z</time>
        <extensions>
        <gpxtpx:TrackPointExtension>
        <gpxtpx:Extensions>
            <surface>asphalt</surface>
        </gpxtpx:Extensions>
        </gpxtpx:TrackPointExtension>
        </extensions>
    </trkpt>
    <trkpt lat="45.822183" lon="15.192889">
        <ele>183.3</ele>
        <time>2023-05-08T14:29:41.846Z</time>
        <extensions>
        <gpxtpx:TrackPointExtension>
        <gpxtpx:Extensions>
            <surface>asphalt</surface>
        </gpxtpx:Extensions>
        </gpxtpx:TrackPointExtension>
        </extensions>
    </trkpt>
    <trkpt lat="45.822586" lon="15.19318">
        <ele>181.0</ele>
        <time>2023-05-08T14:29:53.885Z</time>
        <extensions>
        <gpxtpx:TrackPointExtension>
        <gpxtpx:Extensions>
            <surface>asphalt</surface>
        </gpxtpx:Extensions>
        </gpxtpx:TrackPointExtension>
        </extensions>
    </trkpt>
    <trkpt lat="45.822664" lon="15.193241">
        <ele>180.8</ele>
        <time>2023-05-08T14:29:56.255Z</time>
        <extensions>
        <gpxtpx:TrackPointExtension>
        <gpxtpx:Extensions>
            <surface>asphalt</surface>
        </gpxtpx:Extensions>
        </gpxtpx:TrackPointExtension>
        </extensions>
    </trkpt>
    <trkpt lat="45.822723" lon="15.193301">
        <ele>180.5</ele>
        <time>2023-05-08T14:29:58.184Z</time>
        <extensions>
        <gpxtpx:TrackPointExtension>
        <gpxtpx:Extensions>
            <surface>asphalt</surface>
        </gpxtpx:Extensions>
        </gpxtpx:TrackPointExtension>
        </extensions>
    </trkpt>
    <trkpt lat="45.822761" lon="15.193368">
        <ele>180.3</ele>
        <time>2023-05-08T14:29:59.790Z</time>
        <extensions>
        <gpxtpx:TrackPointExtension>
        <gpxtpx:Extensions>
            <surface>asphalt</surface>
        </gpxtpx:Extensions>
        </gpxtpx:TrackPointExtension>
        </extensions>
    </trkpt>
    <trkpt lat="45.822811" lon="15.193521">
        <ele>179.8</ele>
        <time>2023-05-08T14:30:02.932Z</time>
        <extensions>
        <gpxtpx:TrackPointExtension>
        <gpxtpx:Extensions>
            <surface>asphalt</surface>
        </gpxtpx:Extensions>
        </gpxtpx:TrackPointExtension>
        </extensions>
    </trkpt>
    <trkpt lat="45.822835" lon="15.193625">
        <ele>179.5</ele>
        <time>2023-05-08T14:30:04.969Z</time>
        <extensions>
        <gpxtpx:TrackPointExtension>
        <gpxtpx:Extensions>
            <surface>asphalt</surface>
        </gpxtpx:Extensions>
        </gpxtpx:TrackPointExtension>
        </extensions>
    </trkpt>
    <trkpt lat="45.822866" lon="15.193697">
        <ele>179.3</ele>
        <time>2023-05-08T14:30:06.542Z</time>
        <extensions>
        <gpxtpx:TrackPointExtension>
        <gpxtpx:Extensions>
            <surface>asphalt</surface>
        </gpxtpx:Extensions>
        </gpxtpx:TrackPointExtension>
        </extensions>
    </trkpt>
    <trkpt lat="45.822902" lon="15.193738">
        <ele>179.3</ele>
        <time>2023-05-08T14:30:07.768Z</time>
        <extensions>
        <gpxtpx:TrackPointExtension>
        <gpxtpx:Extensions>
            <surface>asphalt</surface>
        </gpxtpx:Extensions>
        </gpxtpx:TrackPointExtension>
        </extensions>
    </trkpt>
    <trkpt lat="45.823026" lon="15.193836">
        <ele>178.8</ele>
        <time>2023-05-08T14:30:11.545Z</time>
        <extensions>
        <gpxtpx:TrackPointExtension>
        <gpxtpx:Extensions>
            <surface>asphalt</surface>
        </gpxtpx:Extensions>
        </gpxtpx:TrackPointExtension>
        </extensions>
    </trkpt>
    <trkpt lat="45.82308" lon="15.193895">
        <ele>178.8</ele>
        <time>2023-05-08T14:30:13.356Z</time>
        <extensions>
        <gpxtpx:TrackPointExtension>
        <gpxtpx:Extensions>
            <surface>asphalt</surface>
        </gpxtpx:Extensions>
        </gpxtpx:TrackPointExtension>
        </extensions>
    </trkpt>
    <trkpt lat="45.823127" lon="15.193976">
        <ele>178.8</ele>
        <time>2023-05-08T14:30:15.316Z</time>
        <extensions>
        <gpxtpx:TrackPointExtension>
        <gpxtpx:Extensions>
            <surface>asphalt</surface>
        </gpxtpx:Extensions>
        </gpxtpx:TrackPointExtension>
        </extensions>
    </trkpt>
    <trkpt lat="45.823185" lon="15.194133">
        <ele>178.8</ele>
        <time>2023-05-08T14:30:18.620Z</time>
        <extensions>
        <gpxtpx:TrackPointExtension>
        <gpxtpx:Extensions>
            <surface>asphalt</surface>
        </gpxtpx:Extensions>
        </gpxtpx:TrackPointExtension>
        </extensions>
    </trkpt>
    <trkpt lat="45.823248" lon="15.194344">
        <ele>178.8</ele>
        <time>2023-05-08T14:30:22.889Z</time>
        <extensions>
        <gpxtpx:TrackPointExtension>
        <gpxtpx:Extensions>
            <surface>asphalt</surface>
        </gpxtpx:Extensions>
        </gpxtpx:TrackPointExtension>
        </extensions>
    </trkpt>
    <trkpt lat="45.823357" lon="15.194754">
        <ele>178.0</ele>
        <time>2023-05-08T14:30:31.049Z</time>
        <extensions>
        <gpxtpx:TrackPointExtension>
        <gpxtpx:Extensions>
            <surface>asphalt</surface>
        </gpxtpx:Extensions>
        </gpxtpx:TrackPointExtension>
        </extensions>
    </trkpt>
    <trkpt lat="45.823378" lon="15.194813">
        <ele>177.8</ele>
        <time>2023-05-08T14:30:32.281Z</time>
        <extensions>
        <gpxtpx:TrackPointExtension>
        <gpxtpx:Extensions>
            <surface>asphalt</surface>
        </gpxtpx:Extensions>
        </gpxtpx:TrackPointExtension>
        </extensions>
    </trkpt>
    <trkpt lat="45.823411" lon="15.1949">
        <ele>177.5</ele>
        <time>2023-05-08T14:30:34.123Z</time>
        <extensions>
        <gpxtpx:TrackPointExtension>
        <gpxtpx:Extensions>
            <surface>asphalt</surface>
        </gpxtpx:Extensions>
        </gpxtpx:TrackPointExtension>
        </extensions>
    </trkpt>
    <trkpt lat="45.823619" lon="15.195304">
        <ele>176.3</ele>
        <time>2023-05-08T14:30:43.464Z</time>
        <extensions>
        <gpxtpx:TrackPointExtension>
        <gpxtpx:Extensions>
            <surface>asphalt</surface>
        </gpxtpx:Extensions>
        </gpxtpx:TrackPointExtension>
        </extensions>
    </trkpt>
    <trkpt lat="45.823731" lon="15.195575">
        <ele>176.0</ele>
        <time>2023-05-08T14:30:49.323Z</time>
        <extensions>
        <gpxtpx:TrackPointExtension>
        <gpxtpx:Extensions>
            <surface>asphalt</surface>
        </gpxtpx:Extensions>
        </gpxtpx:TrackPointExtension>
        </extensions>
    </trkpt>
    <trkpt lat="45.823944" lon="15.196269">
        <ele>176.3</ele>
        <time>2023-05-08T14:31:03.425Z</time>
        <extensions>
        <gpxtpx:TrackPointExtension>
        <gpxtpx:Extensions>
            <surface>asphalt</surface>
        </gpxtpx:Extensions>
        </gpxtpx:TrackPointExtension>
        </extensions>
    </trkpt>
    <trkpt lat="45.82413" lon="15.19691">
        <ele>178.0</ele>
        <time>2023-05-08T14:31:16.337Z</time>
        <extensions>
        <gpxtpx:TrackPointExtension>
        <gpxtpx:Extensions>
            <surface>asphalt</surface>
        </gpxtpx:Extensions>
        </gpxtpx:TrackPointExtension>
        </extensions>
    </trkpt>
    <trkpt lat="45.824391" lon="15.197841">
        <ele>181.3</ele>
        <time>2023-05-08T14:31:34.999Z</time>
        <extensions>
        <gpxtpx:TrackPointExtension>
        <gpxtpx:Extensions>
            <surface>asphalt</surface>
        </gpxtpx:Extensions>
        </gpxtpx:TrackPointExtension>
        </extensions>
    </trkpt>
    <trkpt lat="45.824573" lon="15.198602">
        <ele>183.5</ele>
        <time>2023-05-08T14:31:49.961Z</time>
        <extensions>
        <gpxtpx:TrackPointExtension>
        <gpxtpx:Extensions>
            <surface>asphalt</surface>
        </gpxtpx:Extensions>
        </gpxtpx:TrackPointExtension>
        </extensions>
    </trkpt>
    <trkpt lat="45.824822" lon="15.199446">
        <ele>183.3</ele>
        <time>2023-05-08T14:32:07.005Z</time>
        <extensions>
        <gpxtpx:TrackPointExtension>
        <gpxtpx:Extensions>
            <surface>asphalt</surface>
        </gpxtpx:Extensions>
        </gpxtpx:TrackPointExtension>
        </extensions>
    </trkpt>
    <trkpt lat="45.824896" lon="15.199777">
        <ele>184.0</ele>
        <time>2023-05-08T14:32:13.469Z</time>
        <extensions>
        <gpxtpx:TrackPointExtension>
        <gpxtpx:Extensions>
            <surface>asphalt</surface>
        </gpxtpx:Extensions>
        </gpxtpx:TrackPointExtension>
        </extensions>
    </trkpt>
    <trkpt lat="45.824973" lon="15.20001">
        <ele>184.3</ele>
        <time>2023-05-08T14:32:18.264Z</time>
        <extensions>
        <gpxtpx:TrackPointExtension>
        <gpxtpx:Extensions>
            <surface>asphalt</surface>
        </gpxtpx:Extensions>
        </gpxtpx:TrackPointExtension>
        </extensions>
    </trkpt>
    <trkpt lat="45.825083" lon="15.200293">
        <ele>183.8</ele>
        <time>2023-05-08T14:32:24.290Z</time>
        <extensions>
        <gpxtpx:TrackPointExtension>
        <gpxtpx:Extensions>
            <surface>asphalt</surface>
        </gpxtpx:Extensions>
        </gpxtpx:TrackPointExtension>
        </extensions>
    </trkpt>
    <trkpt lat="45.825181" lon="15.200599">
        <ele>183.3</ele>
        <time>2023-05-08T14:32:30.552Z</time>
        <extensions>
        <gpxtpx:TrackPointExtension>
        <gpxtpx:Extensions>
            <surface>asphalt</surface>
        </gpxtpx:Extensions>
        </gpxtpx:TrackPointExtension>
        </extensions>
    </trkpt>
    <trkpt lat="45.825305" lon="15.201174">
        <ele>185.0</ele>
        <time>2023-05-08T14:32:41.745Z</time>
        <extensions>
        <gpxtpx:TrackPointExtension>
        <gpxtpx:Extensions>
            <surface>asphalt</surface>
        </gpxtpx:Extensions>
        </gpxtpx:TrackPointExtension>
        </extensions>
    </trkpt>
    <trkpt lat="45.825358" lon="15.201522">
        <ele>186.8</ele>
        <time>2023-05-08T14:32:48.369Z</time>
        <extensions>
        <gpxtpx:TrackPointExtension>
        <gpxtpx:Extensions>
            <surface>asphalt</surface>
        </gpxtpx:Extensions>
        </gpxtpx:TrackPointExtension>
        </extensions>
    </trkpt>
    <trkpt lat="45.82537" lon="15.201705">
        <ele>187.8</ele>
        <time>2023-05-08T14:32:51.787Z</time>
        <extensions>
        <gpxtpx:TrackPointExtension>
        <gpxtpx:Extensions>
            <surface>asphalt</surface>
        </gpxtpx:Extensions>
        </gpxtpx:TrackPointExtension>
        </extensions>
    </trkpt>
    <trkpt lat="45.825409" lon="15.201854">
        <ele>187.3</ele>
        <time>2023-05-08T14:32:54.746Z</time>
        <extensions>
        <gpxtpx:TrackPointExtension>
        <gpxtpx:Extensions>
            <surface>asphalt</surface>
        </gpxtpx:Extensions>
        </gpxtpx:TrackPointExtension>
        </extensions>
    </trkpt>
    <trkpt lat="45.825468" lon="15.201956">
        <ele>186.5</ele>
        <time>2023-05-08T14:32:57.211Z</time>
        <extensions>
        <gpxtpx:TrackPointExtension>
        <gpxtpx:Extensions>
            <surface>asphalt</surface>
        </gpxtpx:Extensions>
        </gpxtpx:TrackPointExtension>
        </extensions>
    </trkpt>
    <trkpt lat="45.82565" lon="15.202122">
        <ele>184.3</ele>
        <time>2023-05-08T14:33:02.966Z</time>
        <extensions>
        <gpxtpx:TrackPointExtension>
        <gpxtpx:Extensions>
            <surface>asphalt</surface>
        </gpxtpx:Extensions>
        </gpxtpx:TrackPointExtension>
        </extensions>
    </trkpt>
    <trkpt lat="45.825703" lon="15.202198">
        <ele>183.8</ele>
        <time>2023-05-08T14:33:04.965Z</time>
        <extensions>
        <gpxtpx:TrackPointExtension>
        <gpxtpx:Extensions>
            <surface>asphalt</surface>
        </gpxtpx:Extensions>
        </gpxtpx:TrackPointExtension>
        </extensions>
    </trkpt>
    <trkpt lat="45.825858" lon="15.202497">
        <ele>182.5</ele>
        <time>2023-05-08T14:33:11.895Z</time>
        <extensions>
        <gpxtpx:TrackPointExtension>
        <gpxtpx:Extensions>
            <surface>asphalt</surface>
        </gpxtpx:Extensions>
        </gpxtpx:TrackPointExtension>
        </extensions>
    </trkpt>
    <trkpt lat="45.826165" lon="15.20318">
        <ele>181.8</ele>
        <time>2023-05-08T14:33:27.009Z</time>
        <extensions>
        <gpxtpx:TrackPointExtension>
        <gpxtpx:Extensions>
            <surface>asphalt</surface>
        </gpxtpx:Extensions>
        </gpxtpx:TrackPointExtension>
        </extensions>
    </trkpt>
    <trkpt lat="45.82633" lon="15.203659">
        <ele>184.0</ele>
        <time>2023-05-08T14:33:36.945Z</time>
        <extensions>
        <gpxtpx:TrackPointExtension>
        <gpxtpx:Extensions>
            <surface>asphalt</surface>
        </gpxtpx:Extensions>
        </gpxtpx:TrackPointExtension>
        </extensions>
    </trkpt>
    <trkpt lat="45.826382" lon="15.203881">
        <ele>186.0</ele>
        <time>2023-05-08T14:33:41.300Z</time>
        <extensions>
        <gpxtpx:TrackPointExtension>
        <gpxtpx:Extensions>
            <surface>asphalt</surface>
        </gpxtpx:Extensions>
        </gpxtpx:TrackPointExtension>
        </extensions>
    </trkpt>
    <trkpt lat="45.826459" lon="15.20429">
        <ele>189.8</ele>
        <time>2023-05-08T14:33:49.178Z</time>
        <extensions>
        <gpxtpx:TrackPointExtension>
        <gpxtpx:Extensions>
            <surface>asphalt</surface>
        </gpxtpx:Extensions>
        </gpxtpx:TrackPointExtension>
        </extensions>
    </trkpt>
    <trkpt lat="45.826491" lon="15.204701">
        <ele>194.0</ele>
        <time>2023-05-08T14:33:56.868Z</time>
        <extensions>
        <gpxtpx:TrackPointExtension>
        <gpxtpx:Extensions>
            <surface>asphalt</surface>
        </gpxtpx:Extensions>
        </gpxtpx:TrackPointExtension>
        </extensions>
    </trkpt>
    <trkpt lat="45.826492" lon="15.204813">
        <ele>195.3</ele>
        <time>2023-05-08T14:33:58.950Z</time>
        <extensions>
        <gpxtpx:TrackPointExtension>
        <gpxtpx:Extensions>
            <surface>asphalt</surface>
        </gpxtpx:Extensions>
        </gpxtpx:TrackPointExtension>
        </extensions>
    </trkpt>
    <trkpt lat="45.826457" lon="15.2051">
        <ele>197.8</ele>
        <time>2023-05-08T14:34:04.368Z</time>
        <extensions>
        <gpxtpx:TrackPointExtension>
        <gpxtpx:Extensions>
            <surface>asphalt</surface>
        </gpxtpx:Extensions>
        </gpxtpx:TrackPointExtension>
        </extensions>
    </trkpt>
    <trkpt lat="45.826456" lon="15.205268">
        <ele>197.3</ele>
        <time>2023-05-08T14:34:07.492Z</time>
        <extensions>
        <gpxtpx:TrackPointExtension>
        <gpxtpx:Extensions>
            <surface>asphalt</surface>
        </gpxtpx:Extensions>
        </gpxtpx:TrackPointExtension>
        </extensions>
    </trkpt>
    <trkpt lat="45.826474" lon="15.205409">
        <ele>196.8</ele>
        <time>2023-05-08T14:34:10.157Z</time>
        <extensions>
        <gpxtpx:TrackPointExtension>
        <gpxtpx:Extensions>
            <surface>asphalt</surface>
        </gpxtpx:Extensions>
        </gpxtpx:TrackPointExtension>
        </extensions>
    </trkpt>
    <trkpt lat="45.826515" lon="15.205603">
        <ele>196.0</ele>
        <time>2023-05-08T14:34:13.926Z</time>
        <extensions>
        <gpxtpx:TrackPointExtension>
        <gpxtpx:Extensions>
            <surface>asphalt</surface>
        </gpxtpx:Extensions>
        </gpxtpx:TrackPointExtension>
        </extensions>
    </trkpt>
    <trkpt lat="45.826534" lon="15.205744">
        <ele>195.8</ele>
        <time>2023-05-08T14:34:16.596Z</time>
        <extensions>
        <gpxtpx:TrackPointExtension>
        <gpxtpx:Extensions>
            <surface>asphalt</surface>
        </gpxtpx:Extensions>
        </gpxtpx:TrackPointExtension>
        </extensions>
    </trkpt>
    <trkpt lat="45.826533" lon="15.205823">
        <ele>195.5</ele>
        <time>2023-05-08T14:34:18.065Z</time>
        <extensions>
        <gpxtpx:TrackPointExtension>
        <gpxtpx:Extensions>
            <surface>asphalt</surface>
        </gpxtpx:Extensions>
        </gpxtpx:TrackPointExtension>
        </extensions>
    </trkpt>
    <trkpt lat="45.826515" lon="15.205955">
        <ele>194.3</ele>
        <time>2023-05-08T14:34:20.566Z</time>
        <extensions>
        <gpxtpx:TrackPointExtension>
        <gpxtpx:Extensions>
            <surface>asphalt</surface>
        </gpxtpx:Extensions>
        </gpxtpx:TrackPointExtension>
        </extensions>
    </trkpt>
    <trkpt lat="45.826466" lon="15.206079">
        <ele>193.3</ele>
        <time>2023-05-08T14:34:23.216Z</time>
        <extensions>
        <gpxtpx:TrackPointExtension>
        <gpxtpx:Extensions>
            <surface>asphalt</surface>
        </gpxtpx:Extensions>
        </gpxtpx:TrackPointExtension>
        </extensions>
    </trkpt>
    <trkpt lat="45.826384" lon="15.206206">
        <ele>192.8</ele>
        <time>2023-05-08T14:34:26.435Z</time>
        <extensions>
        <gpxtpx:TrackPointExtension>
        <gpxtpx:Extensions>
            <surface>asphalt</surface>
        </gpxtpx:Extensions>
        </gpxtpx:TrackPointExtension>
        </extensions>
    </trkpt>
    <trkpt lat="45.826292" lon="15.206384">
        <ele>191.8</ele>
        <time>2023-05-08T14:34:30.556Z</time>
        <extensions>
        <gpxtpx:TrackPointExtension>
        <gpxtpx:Extensions>
            <surface>asphalt</surface>
        </gpxtpx:Extensions>
        </gpxtpx:TrackPointExtension>
        </extensions>
    </trkpt>
    <trkpt lat="45.826255" lon="15.206585">
        <ele>190.5</ele>
        <time>2023-05-08T14:34:34.422Z</time>
        <extensions>
        <gpxtpx:TrackPointExtension>
        <gpxtpx:Extensions>
            <surface>asphalt</surface>
        </gpxtpx:Extensions>
        </gpxtpx:TrackPointExtension>
        </extensions>
    </trkpt>
    <trkpt lat="45.826245" lon="15.206792">
        <ele>189.8</ele>
        <time>2023-05-08T14:34:38.280Z</time>
        <extensions>
        <gpxtpx:TrackPointExtension>
        <gpxtpx:Extensions>
            <surface>asphalt</surface>
        </gpxtpx:Extensions>
        </gpxtpx:TrackPointExtension>
        </extensions>
    </trkpt>
    <trkpt lat="45.826261" lon="15.207104">
        <ele>189.3</ele>
        <time>2023-05-08T14:34:44.097Z</time>
        <extensions>
        <gpxtpx:TrackPointExtension>
        <gpxtpx:Extensions>
            <surface>asphalt</surface>
        </gpxtpx:Extensions>
        </gpxtpx:TrackPointExtension>
        </extensions>
    </trkpt>
    <trkpt lat="45.826335" lon="15.207571">
        <ele>188.0</ele>
        <time>2023-05-08T14:34:53.003Z</time>
        <extensions>
        <gpxtpx:TrackPointExtension>
        <gpxtpx:Extensions>
            <surface>asphalt</surface>
        </gpxtpx:Extensions>
        </gpxtpx:TrackPointExtension>
        </extensions>
    </trkpt>
    <trkpt lat="45.826358" lon="15.207651">
        <ele>187.8</ele>
        <time>2023-05-08T14:34:54.612Z</time>
        <extensions>
        <gpxtpx:TrackPointExtension>
        <gpxtpx:Extensions>
            <surface>asphalt</surface>
        </gpxtpx:Extensions>
        </gpxtpx:TrackPointExtension>
        </extensions>
    </trkpt>
    <trkpt lat="45.826413" lon="15.20773">
        <ele>187.5</ele>
        <time>2023-05-08T14:34:56.688Z</time>
        <extensions>
        <gpxtpx:TrackPointExtension>
        <gpxtpx:Extensions>
            <surface>asphalt</surface>
        </gpxtpx:Extensions>
        </gpxtpx:TrackPointExtension>
        </extensions>
    </trkpt>
    <trkpt lat="45.826629" lon="15.207911">
        <ele>186.0</ele>
        <time>2023-05-08T14:35:03.363Z</time>
        <extensions>
        <gpxtpx:TrackPointExtension>
        <gpxtpx:Extensions>
            <surface>asphalt</surface>
        </gpxtpx:Extensions>
        </gpxtpx:TrackPointExtension>
        </extensions>
    </trkpt>
    <trkpt lat="45.826757" lon="15.207964">
        <ele>185.3</ele>
        <time>2023-05-08T14:35:06.918Z</time>
        <extensions>
        <gpxtpx:TrackPointExtension>
        <gpxtpx:Extensions>
            <surface>asphalt</surface>
        </gpxtpx:Extensions>
        </gpxtpx:TrackPointExtension>
        </extensions>
    </trkpt>
    <trkpt lat="45.826856" lon="15.207969">
        <ele>184.8</ele>
        <time>2023-05-08T14:35:09.561Z</time>
        <extensions>
        <gpxtpx:TrackPointExtension>
        <gpxtpx:Extensions>
            <surface>asphalt</surface>
        </gpxtpx:Extensions>
        </gpxtpx:TrackPointExtension>
        </extensions>
    </trkpt>
    <trkpt lat="45.82703" lon="15.207916">
        <ele>183.3</ele>
        <time>2023-05-08T14:35:14.307Z</time>
        <extensions>
        <gpxtpx:TrackPointExtension>
        <gpxtpx:Extensions>
            <surface>asphalt</surface>
        </gpxtpx:Extensions>
        </gpxtpx:TrackPointExtension>
        </extensions>
    </trkpt>
    <trkpt lat="45.827141" lon="15.207919">
        <ele>182.5</ele>
        <time>2023-05-08T14:35:17.269Z</time>
        <extensions>
        <gpxtpx:TrackPointExtension>
        <gpxtpx:Extensions>
            <surface>asphalt</surface>
        </gpxtpx:Extensions>
        </gpxtpx:TrackPointExtension>
        </extensions>
    </trkpt>
    <trkpt lat="45.827219" lon="15.20794">
        <ele>182.0</ele>
        <time>2023-05-08T14:35:19.386Z</time>
        <extensions>
        <gpxtpx:TrackPointExtension>
        <gpxtpx:Extensions>
            <surface>asphalt</surface>
        </gpxtpx:Extensions>
        </gpxtpx:TrackPointExtension>
        </extensions>
    </trkpt>
    <trkpt lat="45.827289" lon="15.207986">
        <ele>181.5</ele>
        <time>2023-05-08T14:35:21.440Z</time>
        <extensions>
        <gpxtpx:TrackPointExtension>
        <gpxtpx:Extensions>
            <surface>asphalt</surface>
        </gpxtpx:Extensions>
        </gpxtpx:TrackPointExtension>
        </extensions>
    </trkpt>
    <trkpt lat="45.827422" lon="15.208168">
        <ele>181.0</ele>
        <time>2023-05-08T14:35:26.344Z</time>
        <extensions>
        <gpxtpx:TrackPointExtension>
        <gpxtpx:Extensions>
            <surface>asphalt</surface>
        </gpxtpx:Extensions>
        </gpxtpx:TrackPointExtension>
        </extensions>
    </trkpt>
    <trkpt lat="45.827485" lon="15.208216">
        <ele>180.8</ele>
        <time>2023-05-08T14:35:28.247Z</time>
        <extensions>
        <gpxtpx:TrackPointExtension>
        <gpxtpx:Extensions>
            <surface>asphalt</surface>
        </gpxtpx:Extensions>
        </gpxtpx:TrackPointExtension>
        </extensions>
    </trkpt>
    <trkpt lat="45.827632" lon="15.208299">
        <ele>179.5</ele>
        <time>2023-05-08T14:35:32.462Z</time>
        <extensions>
        <gpxtpx:TrackPointExtension>
        <gpxtpx:Extensions>
            <surface>asphalt</surface>
        </gpxtpx:Extensions>
        </gpxtpx:TrackPointExtension>
        </extensions>
    </trkpt>
    <trkpt lat="45.827728" lon="15.208356">
        <ele>178.8</ele>
        <time>2023-05-08T14:35:35.234Z</time>
        <extensions>
        <gpxtpx:TrackPointExtension>
        <gpxtpx:Extensions>
            <surface>asphalt</surface>
        </gpxtpx:Extensions>
        </gpxtpx:TrackPointExtension>
        </extensions>
    </trkpt>
    <trkpt lat="45.827904" lon="15.208506">
        <ele>177.0</ele>
        <time>2023-05-08T14:35:40.696Z</time>
        <extensions>
        <gpxtpx:TrackPointExtension>
        <gpxtpx:Extensions>
            <surface>asphalt</surface>
        </gpxtpx:Extensions>
        </gpxtpx:TrackPointExtension>
        </extensions>
    </trkpt>
    <trkpt lat="45.827953" lon="15.208562">
        <ele>176.5</ele>
        <time>2023-05-08T14:35:42.367Z</time>
        <extensions>
        <gpxtpx:TrackPointExtension>
        <gpxtpx:Extensions>
            <surface>asphalt</surface>
        </gpxtpx:Extensions>
        </gpxtpx:TrackPointExtension>
        </extensions>
    </trkpt>
    <trkpt lat="45.828213" lon="15.208584">
        <ele>174.8</ele>
        <time>2023-05-08T14:35:49.317Z</time>
        <extensions>
        <gpxtpx:TrackPointExtension>
        <gpxtpx:Extensions>
            <surface>asphalt</surface>
        </gpxtpx:Extensions>
        </gpxtpx:TrackPointExtension>
        </extensions>
    </trkpt>
    <trkpt lat="45.828377" lon="15.208777">
        <ele>174.3</ele>
        <time>2023-05-08T14:35:54.976Z</time>
        <extensions>
        <gpxtpx:TrackPointExtension>
        <gpxtpx:Extensions>
            <surface>asphalt</surface>
        </gpxtpx:Extensions>
        </gpxtpx:TrackPointExtension>
        </extensions>
    </trkpt>
    <trkpt lat="45.82857" lon="15.208771">
        <ele>173.3</ele>
        <time>2023-05-08T14:36:00.127Z</time>
        <extensions>
        <gpxtpx:TrackPointExtension>
        <gpxtpx:Extensions>
            <surface>asphalt</surface>
        </gpxtpx:Extensions>
        </gpxtpx:TrackPointExtension>
        </extensions>
    </trkpt>
    <trkpt lat="45.828653" lon="15.208842">
        <ele>173.5</ele>
        <time>2023-05-08T14:36:02.705Z</time>
        <extensions>
        <gpxtpx:TrackPointExtension>
        <gpxtpx:Extensions>
            <surface>asphalt</surface>
        </gpxtpx:Extensions>
        </gpxtpx:TrackPointExtension>
        </extensions>
    </trkpt>
    <trkpt lat="45.828697" lon="15.208957">
        <ele>174.0</ele>
        <time>2023-05-08T14:36:05.144Z</time>
        <extensions>
        <gpxtpx:TrackPointExtension>
        <gpxtpx:Extensions>
            <surface>asphalt</surface>
        </gpxtpx:Extensions>
        </gpxtpx:TrackPointExtension>
        </extensions>
    </trkpt>
    <trkpt lat="45.828763" lon="15.20904">
        <ele>174.5</ele>
        <time>2023-05-08T14:36:07.485Z</time>
        <extensions>
        <gpxtpx:TrackPointExtension>
        <gpxtpx:Extensions>
            <surface>asphalt</surface>
        </gpxtpx:Extensions>
        </gpxtpx:TrackPointExtension>
        </extensions>
    </trkpt>
    <trkpt lat="45.829034" lon="15.209266">
        <ele>175.8</ele>
        <time>2023-05-08T14:36:15.849Z</time>
        <extensions>
        <gpxtpx:TrackPointExtension>
        <gpxtpx:Extensions>
            <surface>asphalt</surface>
        </gpxtpx:Extensions>
        </gpxtpx:TrackPointExtension>
        </extensions>
    </trkpt>
    <trkpt lat="45.829214" lon="15.209412">
        <ele>176.3</ele>
        <time>2023-05-08T14:36:21.366Z</time>
        <extensions>
        <gpxtpx:TrackPointExtension>
        <gpxtpx:Extensions>
            <surface>asphalt</surface>
        </gpxtpx:Extensions>
        </gpxtpx:TrackPointExtension>
        </extensions>
    </trkpt>
    <trkpt lat="45.82939" lon="15.209612">
        <ele>175.8</ele>
        <time>2023-05-08T14:36:27.356Z</time>
        <extensions>
        <gpxtpx:TrackPointExtension>
        <gpxtpx:Extensions>
            <surface>asphalt</surface>
        </gpxtpx:Extensions>
        </gpxtpx:TrackPointExtension>
        </extensions>
    </trkpt>
    <trkpt lat="45.829631" lon="15.209915">
        <ele>176.0</ele>
        <time>2023-05-08T14:36:35.906Z</time>
        <extensions>
        <gpxtpx:TrackPointExtension>
        <gpxtpx:Extensions>
            <surface>asphalt</surface>
        </gpxtpx:Extensions>
        </gpxtpx:TrackPointExtension>
        </extensions>
    </trkpt>
    <trkpt lat="45.829745" lon="15.210117">
        <ele>176.3</ele>
        <time>2023-05-08T14:36:40.739Z</time>
        <extensions>
        <gpxtpx:TrackPointExtension>
        <gpxtpx:Extensions>
            <surface>asphalt</surface>
        </gpxtpx:Extensions>
        </gpxtpx:TrackPointExtension>
        </extensions>
    </trkpt>
    <trkpt lat="45.829903" lon="15.21045">
        <ele>176.5</ele>
        <time>2023-05-08T14:36:48.230Z</time>
        <extensions>
        <gpxtpx:TrackPointExtension>
        <gpxtpx:Extensions>
            <surface>asphalt</surface>
        </gpxtpx:Extensions>
        </gpxtpx:TrackPointExtension>
        </extensions>
    </trkpt>
    <trkpt lat="45.830235" lon="15.211287">
        <ele>176.8</ele>
        <time>2023-05-08T14:37:06.139Z</time>
        <extensions>
        <gpxtpx:TrackPointExtension>
        <gpxtpx:Extensions>
            <surface>asphalt</surface>
        </gpxtpx:Extensions>
        </gpxtpx:TrackPointExtension>
        </extensions>
    </trkpt>
    <trkpt lat="45.830365" lon="15.211633">
        <ele>176.5</ele>
        <time>2023-05-08T14:37:13.448Z</time>
        <extensions>
        <gpxtpx:TrackPointExtension>
        <gpxtpx:Extensions>
            <surface>asphalt</surface>
        </gpxtpx:Extensions>
        </gpxtpx:TrackPointExtension>
        </extensions>
    </trkpt>
    <trkpt lat="45.830463" lon="15.211929">
        <ele>175.8</ele>
        <time>2023-05-08T14:37:19.541Z</time>
        <extensions>
        <gpxtpx:TrackPointExtension>
        <gpxtpx:Extensions>
            <surface>asphalt</surface>
        </gpxtpx:Extensions>
        </gpxtpx:TrackPointExtension>
        </extensions>
    </trkpt>
    <trkpt lat="45.830556" lon="15.212385">
        <ele>176.3</ele>
        <time>2023-05-08T14:37:28.376Z</time>
        <extensions>
        <gpxtpx:TrackPointExtension>
        <gpxtpx:Extensions>
            <surface>asphalt</surface>
        </gpxtpx:Extensions>
        </gpxtpx:TrackPointExtension>
        </extensions>
    </trkpt>
    <trkpt lat="45.830661" lon="15.213066">
        <ele>173.8</ele>
        <time>2023-05-08T14:37:41.345Z</time>
        <extensions>
        <gpxtpx:TrackPointExtension>
        <gpxtpx:Extensions>
            <surface>asphalt</surface>
        </gpxtpx:Extensions>
        </gpxtpx:TrackPointExtension>
        </extensions>
    </trkpt>
    <trkpt lat="45.830665" lon="15.213629">
        <ele>173.5</ele>
        <time>2023-05-08T14:37:51.814Z</time>
        <extensions>
        <gpxtpx:TrackPointExtension>
        <gpxtpx:Extensions>
            <surface>asphalt</surface>
        </gpxtpx:Extensions>
        </gpxtpx:TrackPointExtension>
        </extensions>
    </trkpt>
    <trkpt lat="45.830631" lon="15.213975">
        <ele>174.8</ele>
        <time>2023-05-08T14:37:58.311Z</time>
        <extensions>
        <gpxtpx:TrackPointExtension>
        <gpxtpx:Extensions>
            <surface>asphalt</surface>
        </gpxtpx:Extensions>
        </gpxtpx:TrackPointExtension>
        </extensions>
    </trkpt>
    <trkpt lat="45.830478" lon="15.214766">
        <ele>174.3</ele>
        <time>2023-05-08T14:38:13.575Z</time>
        <extensions>
        <gpxtpx:TrackPointExtension>
        <gpxtpx:Extensions>
            <surface>asphalt</surface>
        </gpxtpx:Extensions>
        </gpxtpx:TrackPointExtension>
        </extensions>
    </trkpt>
    <trkpt lat="45.830448" lon="15.214989">
        <ele>173.8</ele>
        <time>2023-05-08T14:38:17.798Z</time>
        <extensions>
        <gpxtpx:TrackPointExtension>
        <gpxtpx:Extensions>
            <surface>asphalt</surface>
        </gpxtpx:Extensions>
        </gpxtpx:TrackPointExtension>
        </extensions>
    </trkpt>
    <trkpt lat="45.83044" lon="15.215212">
        <ele>172.8</ele>
        <time>2023-05-08T14:38:21.950Z</time>
        <extensions>
        <gpxtpx:TrackPointExtension>
        <gpxtpx:Extensions>
            <surface>asphalt</surface>
        </gpxtpx:Extensions>
        </gpxtpx:TrackPointExtension>
        </extensions>
    </trkpt>
    <trkpt lat="45.830448" lon="15.216386">
        <ele>170.8</ele>
        <time>2023-05-08T14:38:43.781Z</time>
        <extensions>
        <gpxtpx:TrackPointExtension>
        <gpxtpx:Extensions>
            <surface>asphalt</surface>
        </gpxtpx:Extensions>
        </gpxtpx:TrackPointExtension>
        </extensions>
    </trkpt>
    <trkpt lat="45.830433" lon="15.216619">
        <ele>171.3</ele>
        <time>2023-05-08T14:38:48.132Z</time>
        <extensions>
        <gpxtpx:TrackPointExtension>
        <gpxtpx:Extensions>
            <surface>asphalt</surface>
        </gpxtpx:Extensions>
        </gpxtpx:TrackPointExtension>
        </extensions>
    </trkpt>
    <trkpt lat="45.830405" lon="15.216754">
        <ele>171.5</ele>
        <time>2023-05-08T14:38:50.751Z</time>
        <extensions>
        <gpxtpx:TrackPointExtension>
        <gpxtpx:Extensions>
            <surface>asphalt</surface>
        </gpxtpx:Extensions>
        </gpxtpx:TrackPointExtension>
        </extensions>
    </trkpt>
    <trkpt lat="45.830265" lon="15.217159">
        <ele>172.8</ele>
        <time>2023-05-08T14:38:59.157Z</time>
        <extensions>
        <gpxtpx:TrackPointExtension>
        <gpxtpx:Extensions>
            <surface>asphalt</surface>
        </gpxtpx:Extensions>
        </gpxtpx:TrackPointExtension>
        </extensions>
    </trkpt>
    <trkpt lat="45.830209" lon="15.217435">
        <ele>173.0</ele>
        <time>2023-05-08T14:39:04.502Z</time>
        <extensions>
        <gpxtpx:TrackPointExtension>
        <gpxtpx:Extensions>
            <surface>asphalt</surface>
        </gpxtpx:Extensions>
        </gpxtpx:TrackPointExtension>
        </extensions>
    </trkpt>
    <trkpt lat="45.830211" lon="15.217623">
        <ele>173.0</ele>
        <time>2023-05-08T14:39:07.998Z</time>
        <extensions>
        <gpxtpx:TrackPointExtension>
        <gpxtpx:Extensions>
            <surface>asphalt</surface>
        </gpxtpx:Extensions>
        </gpxtpx:TrackPointExtension>
        </extensions>
    </trkpt>
    <trkpt lat="45.830276" lon="15.218221">
        <ele>172.3</ele>
        <time>2023-05-08T14:39:19.252Z</time>
        <extensions>
        <gpxtpx:TrackPointExtension>
        <gpxtpx:Extensions>
            <surface>asphalt</surface>
        </gpxtpx:Extensions>
        </gpxtpx:TrackPointExtension>
        </extensions>
    </trkpt>
    <trkpt lat="45.830283" lon="15.21839">
        <ele>172.3</ele>
        <time>2023-05-08T14:39:22.400Z</time>
        <extensions>
        <gpxtpx:TrackPointExtension>
        <gpxtpx:Extensions>
            <surface>asphalt</surface>
        </gpxtpx:Extensions>
        </gpxtpx:TrackPointExtension>
        </extensions>
    </trkpt>
    <trkpt lat="45.830284" lon="15.218891">
        <ele>173.0</ele>
        <time>2023-05-08T14:39:31.716Z</time>
        <extensions>
        <gpxtpx:TrackPointExtension>
        <gpxtpx:Extensions>
            <surface>asphalt</surface>
        </gpxtpx:Extensions>
        </gpxtpx:TrackPointExtension>
        </extensions>
    </trkpt>
    <trkpt lat="45.830263" lon="15.219106">
        <ele>173.8</ele>
        <time>2023-05-08T14:39:35.753Z</time>
        <extensions>
        <gpxtpx:TrackPointExtension>
        <gpxtpx:Extensions>
            <surface>asphalt</surface>
        </gpxtpx:Extensions>
        </gpxtpx:TrackPointExtension>
        </extensions>
    </trkpt>
    <trkpt lat="45.830233" lon="15.219216">
        <ele>174.3</ele>
        <time>2023-05-08T14:39:37.949Z</time>
        <extensions>
        <gpxtpx:TrackPointExtension>
        <gpxtpx:Extensions>
            <surface>asphalt</surface>
        </gpxtpx:Extensions>
        </gpxtpx:TrackPointExtension>
        </extensions>
    </trkpt>
    <trkpt lat="45.830184" lon="15.219321">
        <ele>175.0</ele>
        <time>2023-05-08T14:39:40.298Z</time>
        <extensions>
        <gpxtpx:TrackPointExtension>
        <gpxtpx:Extensions>
            <surface>asphalt</surface>
        </gpxtpx:Extensions>
        </gpxtpx:TrackPointExtension>
        </extensions>
    </trkpt>
    <trkpt lat="45.830151" lon="15.219431">
        <ele>175.5</ele>
        <time>2023-05-08T14:39:42.524Z</time>
        <extensions>
        <gpxtpx:TrackPointExtension>
        <gpxtpx:Extensions>
            <surface>asphalt</surface>
        </gpxtpx:Extensions>
        </gpxtpx:TrackPointExtension>
        </extensions>
    </trkpt>
    <trkpt lat="45.830088" lon="15.21969">
        <ele>176.5</ele>
        <time>2023-05-08T14:39:47.625Z</time>
        <extensions>
        <gpxtpx:TrackPointExtension>
        <gpxtpx:Extensions>
            <surface>asphalt</surface>
        </gpxtpx:Extensions>
        </gpxtpx:TrackPointExtension>
        </extensions>
    </trkpt>
    <trkpt lat="45.830062" lon="15.219968">
        <ele>176.8</ele>
        <time>2023-05-08T14:39:52.840Z</time>
        <extensions>
        <gpxtpx:TrackPointExtension>
        <gpxtpx:Extensions>
            <surface>asphalt</surface>
        </gpxtpx:Extensions>
        </gpxtpx:TrackPointExtension>
        </extensions>
    </trkpt>
    <trkpt lat="45.829966" lon="15.220442">
        <ele>178.0</ele>
        <time>2023-05-08T14:40:02.018Z</time>
        <extensions>
        <gpxtpx:TrackPointExtension>
        <gpxtpx:Extensions>
            <surface>asphalt</surface>
        </gpxtpx:Extensions>
        </gpxtpx:TrackPointExtension>
        </extensions>
    </trkpt>
    <trkpt lat="45.82961" lon="15.220427">
        <ele>180.3</ele>
        <time>2023-05-08T14:40:11.522Z</time>
        <extensions>
        <gpxtpx:TrackPointExtension>
        <gpxtpx:Extensions>
            <surface>asphalt</surface>
        </gpxtpx:Extensions>
        </gpxtpx:TrackPointExtension>
        </extensions>
    </trkpt>
    <trkpt lat="45.829544" lon="15.220434">
        <ele>180.5</ele>
        <time>2023-05-08T14:40:13.288Z</time>
        <extensions>
        <gpxtpx:TrackPointExtension>
        <gpxtpx:Extensions>
            <surface>asphalt</surface>
        </gpxtpx:Extensions>
        </gpxtpx:TrackPointExtension>
        </extensions>
    </trkpt>
    <trkpt lat="45.829477" lon="15.220453">
        <ele>181.0</ele>
        <time>2023-05-08T14:40:15.110Z</time>
        <extensions>
        <gpxtpx:TrackPointExtension>
        <gpxtpx:Extensions>
            <surface>asphalt</surface>
        </gpxtpx:Extensions>
        </gpxtpx:TrackPointExtension>
        </extensions>
    </trkpt>
    <trkpt lat="45.829388" lon="15.22051">
        <ele>181.5</ele>
        <time>2023-05-08T14:40:17.710Z</time>
        <extensions>
        <gpxtpx:TrackPointExtension>
        <gpxtpx:Extensions>
            <surface>asphalt</surface>
        </gpxtpx:Extensions>
        </gpxtpx:TrackPointExtension>
        </extensions>
    </trkpt>
    <trkpt lat="45.829287" lon="15.220604">
        <ele>181.8</ele>
        <time>2023-05-08T14:40:20.922Z</time>
        <extensions>
        <gpxtpx:TrackPointExtension>
        <gpxtpx:Extensions>
            <surface>asphalt</surface>
        </gpxtpx:Extensions>
        </gpxtpx:TrackPointExtension>
        </extensions>
    </trkpt>
    <trkpt lat="45.82913" lon="15.220596">
        <ele>182.5</ele>
        <time>2023-05-08T14:40:25.114Z</time>
        <extensions>
        <gpxtpx:TrackPointExtension>
        <gpxtpx:Extensions>
            <surface>asphalt</surface>
        </gpxtpx:Extensions>
        </gpxtpx:TrackPointExtension>
        </extensions>
    </trkpt>
    <trkpt lat="45.828847" lon="15.220606">
        <ele>183.3</ele>
        <time>2023-05-08T14:40:32.668Z</time>
        <extensions>
        <gpxtpx:TrackPointExtension>
        <gpxtpx:Extensions>
            <surface>asphalt</surface>
        </gpxtpx:Extensions>
        </gpxtpx:TrackPointExtension>
        </extensions>
    </trkpt>
    <trkpt lat="45.828763" lon="15.220592">
        <ele>183.5</ele>
        <time>2023-05-08T14:40:34.924Z</time>
        <extensions>
        <gpxtpx:TrackPointExtension>
        <gpxtpx:Extensions>
            <surface>asphalt</surface>
        </gpxtpx:Extensions>
        </gpxtpx:TrackPointExtension>
        </extensions>
    </trkpt>
    <trkpt lat="45.828676" lon="15.220532">
        <ele>183.8</ele>
        <time>2023-05-08T14:40:37.499Z</time>
        <extensions>
        <gpxtpx:TrackPointExtension>
        <gpxtpx:Extensions>
            <surface>asphalt</surface>
        </gpxtpx:Extensions>
        </gpxtpx:TrackPointExtension>
        </extensions>
    </trkpt>
    <trkpt lat="45.828616" lon="15.220453">
        <ele>184.0</ele>
        <time>2023-05-08T14:40:39.672Z</time>
        <extensions>
        <gpxtpx:TrackPointExtension>
        <gpxtpx:Extensions>
            <surface>asphalt</surface>
        </gpxtpx:Extensions>
        </gpxtpx:TrackPointExtension>
        </extensions>
    </trkpt>
    <trkpt lat="45.828576" lon="15.220428">
        <ele>184.3</ele>
        <time>2023-05-08T14:40:40.836Z</time>
        <extensions>
        <gpxtpx:TrackPointExtension>
        <gpxtpx:Extensions>
            <surface>asphalt</surface>
        </gpxtpx:Extensions>
        </gpxtpx:TrackPointExtension>
        </extensions>
    </trkpt>
    <trkpt lat="45.828481" lon="15.220483">
        <ele>184.3</ele>
        <time>2023-05-08T14:40:43.569Z</time>
        <extensions>
        <gpxtpx:TrackPointExtension>
        <gpxtpx:Extensions>
            <surface>asphalt</surface>
        </gpxtpx:Extensions>
        </gpxtpx:TrackPointExtension>
        </extensions>
    </trkpt>
    <trkpt lat="45.828363" lon="15.220658">
        <ele>184.3</ele>
        <time>2023-05-08T14:40:48.097Z</time>
        <extensions>
        <gpxtpx:TrackPointExtension>
        <gpxtpx:Extensions>
            <surface>asphalt</surface>
        </gpxtpx:Extensions>
        </gpxtpx:TrackPointExtension>
        </extensions>
    </trkpt>
    <trkpt lat="45.828039" lon="15.221235">
        <ele>183.3</ele>
        <time>2023-05-08T14:41:01.877Z</time>
        <extensions>
        <gpxtpx:TrackPointExtension>
        <gpxtpx:Extensions>
            <surface>asphalt</surface>
        </gpxtpx:Extensions>
        </gpxtpx:TrackPointExtension>
        </extensions>
    </trkpt>
    <trkpt lat="45.827823" lon="15.22156">
        <ele>182.5</ele>
        <time>2023-05-08T14:41:10.228Z</time>
        <extensions>
        <gpxtpx:TrackPointExtension>
        <gpxtpx:Extensions>
            <surface>asphalt</surface>
        </gpxtpx:Extensions>
        </gpxtpx:TrackPointExtension>
        </extensions>
    </trkpt>
    <trkpt lat="45.827638" lon="15.221776">
        <ele>182.0</ele>
        <time>2023-05-08T14:41:16.592Z</time>
        <extensions>
        <gpxtpx:TrackPointExtension>
        <gpxtpx:Extensions>
            <surface>asphalt</surface>
        </gpxtpx:Extensions>
        </gpxtpx:TrackPointExtension>
        </extensions>
    </trkpt>
    <trkpt lat="45.827024" lon="15.222316">
        <ele>187.3</ele>
        <time>2023-05-08T14:41:35.809Z</time>
        <extensions>
        <gpxtpx:TrackPointExtension>
        <gpxtpx:Extensions>
            <surface>asphalt</surface>
        </gpxtpx:Extensions>
        </gpxtpx:TrackPointExtension>
        </extensions>
    </trkpt>
    <trkpt lat="45.826708" lon="15.222657">
        <ele>191.0</ele>
        <time>2023-05-08T14:41:46.360Z</time>
        <extensions>
        <gpxtpx:TrackPointExtension>
        <gpxtpx:Extensions>
            <surface>asphalt</surface>
        </gpxtpx:Extensions>
        </gpxtpx:TrackPointExtension>
        </extensions>
    </trkpt>
    <trkpt lat="45.826588" lon="15.222773">
        <ele>191.8</ele>
        <time>2023-05-08T14:41:50.221Z</time>
        <extensions>
        <gpxtpx:TrackPointExtension>
        <gpxtpx:Extensions>
            <surface>asphalt</surface>
        </gpxtpx:Extensions>
        </gpxtpx:TrackPointExtension>
        </extensions>
    </trkpt>
    <trkpt lat="45.826523" lon="15.222802">
        <ele>192.5</ele>
        <time>2023-05-08T14:41:52.037Z</time>
        <extensions>
        <gpxtpx:TrackPointExtension>
        <gpxtpx:Extensions>
            <surface>asphalt</surface>
        </gpxtpx:Extensions>
        </gpxtpx:TrackPointExtension>
        </extensions>
    </trkpt>
    <trkpt lat="45.826336" lon="15.222818">
        <ele>195.3</ele>
        <time>2023-05-08T14:41:57.036Z</time>
        <extensions>
        <gpxtpx:TrackPointExtension>
        <gpxtpx:Extensions>
            <surface>asphalt</surface>
        </gpxtpx:Extensions>
        </gpxtpx:TrackPointExtension>
        </extensions>
    </trkpt>
    <trkpt lat="45.826168" lon="15.222861">
        <ele>197.3</ele>
        <time>2023-05-08T14:42:01.590Z</time>
        <extensions>
        <gpxtpx:TrackPointExtension>
        <gpxtpx:Extensions>
            <surface>asphalt</surface>
        </gpxtpx:Extensions>
        </gpxtpx:TrackPointExtension>
        </extensions>
    </trkpt>
    <trkpt lat="45.826061" lon="15.222904">
        <ele>198.5</ele>
        <time>2023-05-08T14:42:04.555Z</time>
        <extensions>
        <gpxtpx:TrackPointExtension>
        <gpxtpx:Extensions>
            <surface>asphalt</surface>
        </gpxtpx:Extensions>
        </gpxtpx:TrackPointExtension>
        </extensions>
    </trkpt>
    <trkpt lat="45.82598" lon="15.222981">
        <ele>199.0</ele>
        <time>2023-05-08T14:42:07.147Z</time>
        <extensions>
        <gpxtpx:TrackPointExtension>
        <gpxtpx:Extensions>
            <surface>asphalt</surface>
        </gpxtpx:Extensions>
        </gpxtpx:TrackPointExtension>
        </extensions>
    </trkpt>
    <trkpt lat="45.825785" lon="15.223127">
        <ele>200.5</ele>
        <time>2023-05-08T14:42:13.016Z</time>
        <extensions>
        <gpxtpx:TrackPointExtension>
        <gpxtpx:Extensions>
            <surface>asphalt</surface>
        </gpxtpx:Extensions>
        </gpxtpx:TrackPointExtension>
        </extensions>
    </trkpt>
    <trkpt lat="45.825674" lon="15.223242">
        <ele>201.0</ele>
        <time>2023-05-08T14:42:16.669Z</time>
        <extensions>
        <gpxtpx:TrackPointExtension>
        <gpxtpx:Extensions>
            <surface>asphalt</surface>
        </gpxtpx:Extensions>
        </gpxtpx:TrackPointExtension>
        </extensions>
    </trkpt>
    <trkpt lat="45.825638" lon="15.22331">
        <ele>201.0</ele>
        <time>2023-05-08T14:42:18.257Z</time>
        <extensions>
        <gpxtpx:TrackPointExtension>
        <gpxtpx:Extensions>
            <surface>asphalt</surface>
        </gpxtpx:Extensions>
        </gpxtpx:TrackPointExtension>
        </extensions>
    </trkpt>
    <trkpt lat="45.825547" lon="15.223577">
        <ele>200.3</ele>
        <time>2023-05-08T14:42:23.784Z</time>
        <extensions>
        <gpxtpx:TrackPointExtension>
        <gpxtpx:Extensions>
            <surface>asphalt</surface>
        </gpxtpx:Extensions>
        </gpxtpx:TrackPointExtension>
        </extensions>
    </trkpt>
    <trkpt lat="45.825425" lon="15.223859">
        <ele>200.0</ele>
        <time>2023-05-08T14:42:29.956Z</time>
        <extensions>
        <gpxtpx:TrackPointExtension>
        <gpxtpx:Extensions>
            <surface>asphalt</surface>
        </gpxtpx:Extensions>
        </gpxtpx:TrackPointExtension>
        </extensions>
    </trkpt>
    <trkpt lat="45.825229" lon="15.224224">
        <ele>201.5</ele>
        <time>2023-05-08T14:42:38.525Z</time>
        <extensions>
        <gpxtpx:TrackPointExtension>
        <gpxtpx:Extensions>
            <surface>asphalt</surface>
        </gpxtpx:Extensions>
        </gpxtpx:TrackPointExtension>
        </extensions>
    </trkpt>
    <trkpt lat="45.825059" lon="15.224436">
        <ele>201.8</ele>
        <time>2023-05-08T14:42:44.535Z</time>
        <extensions>
        <gpxtpx:TrackPointExtension>
        <gpxtpx:Extensions>
            <surface>asphalt</surface>
        </gpxtpx:Extensions>
        </gpxtpx:TrackPointExtension>
        </extensions>
    </trkpt>
    <trkpt lat="45.824812" lon="15.224686">
        <ele>201.0</ele>
        <time>2023-05-08T14:42:52.601Z</time>
        <extensions>
        <gpxtpx:TrackPointExtension>
        <gpxtpx:Extensions>
            <surface>asphalt</surface>
        </gpxtpx:Extensions>
        </gpxtpx:TrackPointExtension>
        </extensions>
    </trkpt>
    <trkpt lat="45.824598" lon="15.224927">
        <ele>199.0</ele>
        <time>2023-05-08T14:42:59.860Z</time>
        <extensions>
        <gpxtpx:TrackPointExtension>
        <gpxtpx:Extensions>
            <surface>asphalt</surface>
        </gpxtpx:Extensions>
        </gpxtpx:TrackPointExtension>
        </extensions>
    </trkpt>
    <trkpt lat="45.824406" lon="15.22518">
        <ele>198.0</ele>
        <time>2023-05-08T14:43:06.816Z</time>
        <extensions>
        <gpxtpx:TrackPointExtension>
        <gpxtpx:Extensions>
            <surface>asphalt</surface>
        </gpxtpx:Extensions>
        </gpxtpx:TrackPointExtension>
        </extensions>
    </trkpt>
    <trkpt lat="45.824218" lon="15.225578">
        <ele>196.5</ele>
        <time>2023-05-08T14:43:15.757Z</time>
        <extensions>
        <gpxtpx:TrackPointExtension>
        <gpxtpx:Extensions>
            <surface>asphalt</surface>
        </gpxtpx:Extensions>
        </gpxtpx:TrackPointExtension>
        </extensions>
    </trkpt>
    <trkpt lat="45.82408" lon="15.225806">
        <ele>195.3</ele>
        <time>2023-05-08T14:43:21.373Z</time>
        <extensions>
        <gpxtpx:TrackPointExtension>
        <gpxtpx:Extensions>
            <surface>asphalt</surface>
        </gpxtpx:Extensions>
        </gpxtpx:TrackPointExtension>
        </extensions>
    </trkpt>
    <trkpt lat="45.823854" lon="15.226122">
        <ele>192.3</ele>
        <time>2023-05-08T14:43:29.793Z</time>
        <extensions>
        <gpxtpx:TrackPointExtension>
        <gpxtpx:Extensions>
            <surface>asphalt</surface>
        </gpxtpx:Extensions>
        </gpxtpx:TrackPointExtension>
        </extensions>
    </trkpt>
    <trkpt lat="45.823803" lon="15.226225">
        <ele>191.5</ele>
        <time>2023-05-08T14:43:32.142Z</time>
        <extensions>
        <gpxtpx:TrackPointExtension>
        <gpxtpx:Extensions>
            <surface>asphalt</surface>
        </gpxtpx:Extensions>
        </gpxtpx:TrackPointExtension>
        </extensions>
    </trkpt>
    <trkpt lat="45.823736" lon="15.226388">
        <ele>190.3</ele>
        <time>2023-05-08T14:43:35.661Z</time>
        <extensions>
        <gpxtpx:TrackPointExtension>
        <gpxtpx:Extensions>
            <surface>asphalt</surface>
        </gpxtpx:Extensions>
        </gpxtpx:TrackPointExtension>
        </extensions>
    </trkpt>
    <trkpt lat="45.823712" lon="15.226486">
        <ele>189.5</ele>
        <time>2023-05-08T14:43:37.592Z</time>
        <extensions>
        <gpxtpx:TrackPointExtension>
        <gpxtpx:Extensions>
            <surface>asphalt</surface>
        </gpxtpx:Extensions>
        </gpxtpx:TrackPointExtension>
        </extensions>
    </trkpt>
    <trkpt lat="45.823632" lon="15.226689">
        <ele>188.0</ele>
        <time>2023-05-08T14:43:41.929Z</time>
        <extensions>
        <gpxtpx:TrackPointExtension>
        <gpxtpx:Extensions>
            <surface>asphalt</surface>
        </gpxtpx:Extensions>
        </gpxtpx:TrackPointExtension>
        </extensions>
    </trkpt>
    <trkpt lat="45.823589" lon="15.226828">
        <ele>186.8</ele>
        <time>2023-05-08T14:43:44.757Z</time>
        <extensions>
        <gpxtpx:TrackPointExtension>
        <gpxtpx:Extensions>
            <surface>asphalt</surface>
        </gpxtpx:Extensions>
        </gpxtpx:TrackPointExtension>
        </extensions>
    </trkpt>
    <trkpt lat="45.823544" lon="15.227094">
        <ele>184.8</ele>
        <time>2023-05-08T14:43:49.847Z</time>
        <extensions>
        <gpxtpx:TrackPointExtension>
        <gpxtpx:Extensions>
            <surface>asphalt</surface>
        </gpxtpx:Extensions>
        </gpxtpx:TrackPointExtension>
        </extensions>
    </trkpt>
    <trkpt lat="45.823506" lon="15.227209">
        <ele>184.3</ele>
        <time>2023-05-08T14:43:52.213Z</time>
        <extensions>
        <gpxtpx:TrackPointExtension>
        <gpxtpx:Extensions>
            <surface>asphalt</surface>
        </gpxtpx:Extensions>
        </gpxtpx:TrackPointExtension>
        </extensions>
    </trkpt>
    <trkpt lat="45.823402" lon="15.227402">
        <ele>183.8</ele>
        <time>2023-05-08T14:43:56.750Z</time>
        <extensions>
        <gpxtpx:TrackPointExtension>
        <gpxtpx:Extensions>
            <surface>asphalt</surface>
        </gpxtpx:Extensions>
        </gpxtpx:TrackPointExtension>
        </extensions>
    </trkpt>
    <trkpt lat="45.823133" lon="15.227549">
        <ele>185.3</ele>
        <time>2023-05-08T14:44:04.431Z</time>
        <extensions>
        <gpxtpx:TrackPointExtension>
        <gpxtpx:Extensions>
            <surface>asphalt</surface>
        </gpxtpx:Extensions>
        </gpxtpx:TrackPointExtension>
        </extensions>
    </trkpt>
    <trkpt lat="45.823129" lon="15.227552">
        <ele>185.5</ele>
        <time>2023-05-08T14:44:04.551Z</time>
        <extensions>
        <gpxtpx:TrackPointExtension>
        <gpxtpx:Extensions>
            <surface>asphalt</surface>
        </gpxtpx:Extensions>
        </gpxtpx:TrackPointExtension>
        </extensions>
    </trkpt>
    <trkpt lat="45.823001" lon="15.227654">
        <ele>186.8</ele>
        <time>2023-05-08T14:44:08.458Z</time>
        <extensions>
        <gpxtpx:TrackPointExtension>
        <gpxtpx:Extensions>
            <surface>asphalt</surface>
        </gpxtpx:Extensions>
        </gpxtpx:TrackPointExtension>
        </extensions>
    </trkpt>
    <trkpt lat="45.822905" lon="15.22776">
        <ele>187.8</ele>
        <time>2023-05-08T14:44:11.690Z</time>
        <extensions>
        <gpxtpx:TrackPointExtension>
        <gpxtpx:Extensions>
            <surface>asphalt</surface>
        </gpxtpx:Extensions>
        </gpxtpx:TrackPointExtension>
        </extensions>
    </trkpt>
    <trkpt lat="45.822818" lon="15.227874">
        <ele>189.0</ele>
        <time>2023-05-08T14:44:14.834Z</time>
        <extensions>
        <gpxtpx:TrackPointExtension>
        <gpxtpx:Extensions>
            <surface>asphalt</surface>
        </gpxtpx:Extensions>
        </gpxtpx:TrackPointExtension>
        </extensions>
    </trkpt>
    <trkpt lat="45.822773" lon="15.227987">
        <ele>189.8</ele>
        <time>2023-05-08T14:44:17.254Z</time>
        <extensions>
        <gpxtpx:TrackPointExtension>
        <gpxtpx:Extensions>
            <surface>asphalt</surface>
        </gpxtpx:Extensions>
        </gpxtpx:TrackPointExtension>
        </extensions>
    </trkpt>
    <trkpt lat="45.82276" lon="15.228125">
        <ele>190.3</ele>
        <time>2023-05-08T14:44:19.843Z</time>
        <extensions>
        <gpxtpx:TrackPointExtension>
        <gpxtpx:Extensions>
            <surface>asphalt</surface>
        </gpxtpx:Extensions>
        </gpxtpx:TrackPointExtension>
        </extensions>
    </trkpt>
    <trkpt lat="45.822747" lon="15.22851">
        <ele>191.3</ele>
        <time>2023-05-08T14:44:27.011Z</time>
        <extensions>
        <gpxtpx:TrackPointExtension>
        <gpxtpx:Extensions>
            <surface>asphalt</surface>
        </gpxtpx:Extensions>
        </gpxtpx:TrackPointExtension>
        </extensions>
    </trkpt>
    <trkpt lat="45.82275" lon="15.228708">
        <ele>191.5</ele>
        <time>2023-05-08T14:44:30.694Z</time>
        <extensions>
        <gpxtpx:TrackPointExtension>
        <gpxtpx:Extensions>
            <surface>asphalt</surface>
        </gpxtpx:Extensions>
        </gpxtpx:TrackPointExtension>
        </extensions>
    </trkpt>
    <trkpt lat="45.822753" lon="15.228925">
        <ele>191.8</ele>
        <time>2023-05-08T14:44:34.730Z</time>
        <extensions>
        <gpxtpx:TrackPointExtension>
        <gpxtpx:Extensions>
            <surface>asphalt</surface>
        </gpxtpx:Extensions>
        </gpxtpx:TrackPointExtension>
        </extensions>
    </trkpt>
    <trkpt lat="45.82261" lon="15.229253">
        <ele>193.3</ele>
        <time>2023-05-08T14:44:41.925Z</time>
        <extensions>
        <gpxtpx:TrackPointExtension>
        <gpxtpx:Extensions>
            <surface>asphalt</surface>
        </gpxtpx:Extensions>
        </gpxtpx:TrackPointExtension>
        </extensions>
    </trkpt>
    <trkpt lat="45.822282" lon="15.229825">
        <ele>190.8</ele>
        <time>2023-05-08T14:44:55.701Z</time>
        <extensions>
        <gpxtpx:TrackPointExtension>
        <gpxtpx:Extensions>
            <surface>asphalt</surface>
        </gpxtpx:Extensions>
        </gpxtpx:TrackPointExtension>
        </extensions>
    </trkpt>
    <trkpt lat="45.822076" lon="15.230168">
        <ele>189.8</ele>
        <time>2023-05-08T14:45:04.122Z</time>
        <extensions>
        <gpxtpx:TrackPointExtension>
        <gpxtpx:Extensions>
            <surface>asphalt</surface>
        </gpxtpx:Extensions>
        </gpxtpx:TrackPointExtension>
        </extensions>
    </trkpt>
    <trkpt lat="45.821957" lon="15.230425">
        <ele>188.8</ele>
        <time>2023-05-08T14:45:09.860Z</time>
        <extensions>
        <gpxtpx:TrackPointExtension>
        <gpxtpx:Extensions>
            <surface>asphalt</surface>
        </gpxtpx:Extensions>
        </gpxtpx:TrackPointExtension>
        </extensions>
    </trkpt>
    <trkpt lat="45.821673" lon="15.230949">
        <ele>186.8</ele>
        <time>2023-05-08T14:45:22.205Z</time>
        <extensions>
        <gpxtpx:TrackPointExtension>
        <gpxtpx:Extensions>
            <surface>asphalt</surface>
        </gpxtpx:Extensions>
        </gpxtpx:TrackPointExtension>
        </extensions>
    </trkpt>
    <trkpt lat="45.821364" lon="15.231403">
        <ele>185.3</ele>
        <time>2023-05-08T14:45:34.007Z</time>
        <extensions>
        <gpxtpx:TrackPointExtension>
        <gpxtpx:Extensions>
            <surface>asphalt</surface>
        </gpxtpx:Extensions>
        </gpxtpx:TrackPointExtension>
        </extensions>
    </trkpt>
    <trkpt lat="45.821164" lon="15.231679">
        <ele>185.0</ele>
        <time>2023-05-08T14:45:41.412Z</time>
        <extensions>
        <gpxtpx:TrackPointExtension>
        <gpxtpx:Extensions>
            <surface>asphalt</surface>
        </gpxtpx:Extensions>
        </gpxtpx:TrackPointExtension>
        </extensions>
    </trkpt>
    <trkpt lat="45.821035" lon="15.232055">
        <ele>182.5</ele>
        <time>2023-05-08T14:45:49.206Z</time>
        <extensions>
        <gpxtpx:TrackPointExtension>
        <gpxtpx:Extensions>
            <surface>asphalt</surface>
        </gpxtpx:Extensions>
        </gpxtpx:TrackPointExtension>
        </extensions>
    </trkpt>
    <trkpt lat="45.82096" lon="15.232195">
        <ele>181.5</ele>
        <time>2023-05-08T14:45:52.490Z</time>
        <extensions>
        <gpxtpx:TrackPointExtension>
        <gpxtpx:Extensions>
            <surface>asphalt</surface>
        </gpxtpx:Extensions>
        </gpxtpx:TrackPointExtension>
        </extensions>
    </trkpt>
    <trkpt lat="45.820805" lon="15.232457">
        <ele>179.5</ele>
        <time>2023-05-08T14:45:58.881Z</time>
        <extensions>
        <gpxtpx:TrackPointExtension>
        <gpxtpx:Extensions>
            <surface>asphalt</surface>
        </gpxtpx:Extensions>
        </gpxtpx:TrackPointExtension>
        </extensions>
    </trkpt>
    <trkpt lat="45.820703" lon="15.232666">
        <ele>178.5</ele>
        <time>2023-05-08T14:46:03.626Z</time>
        <extensions>
        <gpxtpx:TrackPointExtension>
        <gpxtpx:Extensions>
            <surface>asphalt</surface>
        </gpxtpx:Extensions>
        </gpxtpx:TrackPointExtension>
        </extensions>
    </trkpt>
    <trkpt lat="45.820588" lon="15.232922">
        <ele>177.8</ele>
        <time>2023-05-08T14:46:09.290Z</time>
        <extensions>
        <gpxtpx:TrackPointExtension>
        <gpxtpx:Extensions>
            <surface>asphalt</surface>
        </gpxtpx:Extensions>
        </gpxtpx:TrackPointExtension>
        </extensions>
    </trkpt>
    <trkpt lat="45.820521" lon="15.232986">
        <ele>178.0</ele>
        <time>2023-05-08T14:46:11.437Z</time>
        <extensions>
        <gpxtpx:TrackPointExtension>
        <gpxtpx:Extensions>
            <surface>asphalt</surface>
        </gpxtpx:Extensions>
        </gpxtpx:TrackPointExtension>
        </extensions>
    </trkpt>
    <trkpt lat="45.820457" lon="15.232973">
        <ele>178.5</ele>
        <time>2023-05-08T14:46:13.161Z</time>
        <extensions>
        <gpxtpx:TrackPointExtension>
        <gpxtpx:Extensions>
            <surface>asphalt</surface>
        </gpxtpx:Extensions>
        </gpxtpx:TrackPointExtension>
        </extensions>
    </trkpt>
    <trkpt lat="45.82033" lon="15.23282">
        <ele>179.5</ele>
        <time>2023-05-08T14:46:17.586Z</time>
        <extensions>
        <gpxtpx:TrackPointExtension>
        <gpxtpx:Extensions>
            <surface>asphalt</surface>
        </gpxtpx:Extensions>
        </gpxtpx:TrackPointExtension>
        </extensions>
    </trkpt>
    <trkpt lat="45.820241" lon="15.232679">
        <ele>180.3</ele>
        <time>2023-05-08T14:46:21.124Z</time>
        <extensions>
        <gpxtpx:TrackPointExtension>
        <gpxtpx:Extensions>
            <surface>asphalt</surface>
        </gpxtpx:Extensions>
        </gpxtpx:TrackPointExtension>
        </extensions>
    </trkpt>
    <trkpt lat="45.820121" lon="15.232442">
        <ele>180.8</ele>
        <time>2023-05-08T14:46:26.572Z</time>
        <extensions>
        <gpxtpx:TrackPointExtension>
        <gpxtpx:Extensions>
            <surface>asphalt</surface>
        </gpxtpx:Extensions>
        </gpxtpx:TrackPointExtension>
        </extensions>
    </trkpt>
    <trkpt lat="45.820037" lon="15.232204">
        <ele>182.0</ele>
        <time>2023-05-08T14:46:31.533Z</time>
        <extensions>
        <gpxtpx:TrackPointExtension>
        <gpxtpx:Extensions>
            <surface>asphalt</surface>
        </gpxtpx:Extensions>
        </gpxtpx:TrackPointExtension>
        </extensions>
    </trkpt>
    <trkpt lat="45.819886" lon="15.231822">
        <ele>183.3</ele>
        <time>2023-05-08T14:46:39.700Z</time>
        <extensions>
        <gpxtpx:TrackPointExtension>
        <gpxtpx:Extensions>
            <surface>asphalt</surface>
        </gpxtpx:Extensions>
        </gpxtpx:TrackPointExtension>
        </extensions>
    </trkpt>
    <trkpt lat="45.819806" lon="15.231681">
        <ele>183.8</ele>
        <time>2023-05-08T14:46:43.081Z</time>
        <extensions>
        <gpxtpx:TrackPointExtension>
        <gpxtpx:Extensions>
            <surface>asphalt</surface>
        </gpxtpx:Extensions>
        </gpxtpx:TrackPointExtension>
        </extensions>
    </trkpt>
    <trkpt lat="45.819637" lon="15.231436">
        <ele>184.5</ele>
        <time>2023-05-08T14:46:49.492Z</time>
        <extensions>
        <gpxtpx:TrackPointExtension>
        <gpxtpx:Extensions>
            <surface>asphalt</surface>
        </gpxtpx:Extensions>
        </gpxtpx:TrackPointExtension>
        </extensions>
    </trkpt>
    <trkpt lat="45.819499" lon="15.231321">
        <ele>184.5</ele>
        <time>2023-05-08T14:46:53.750Z</time>
        <extensions>
        <gpxtpx:TrackPointExtension>
        <gpxtpx:Extensions>
            <surface>asphalt</surface>
        </gpxtpx:Extensions>
        </gpxtpx:TrackPointExtension>
        </extensions>
    </trkpt>
    <trkpt lat="45.819312" lon="15.23126">
        <ele>184.0</ele>
        <time>2023-05-08T14:46:58.867Z</time>
        <extensions>
        <gpxtpx:TrackPointExtension>
        <gpxtpx:Extensions>
            <surface>asphalt</surface>
        </gpxtpx:Extensions>
        </gpxtpx:TrackPointExtension>
        </extensions>
    </trkpt>
    <trkpt lat="45.819309" lon="15.231197">
        <ele>184.0</ele>
        <time>2023-05-08T14:47:00.041Z</time>
    </trkpt>
    <trkpt lat="45.819265" lon="15.230964">
        <ele>183.8</ele>
        <time>2023-05-08T14:47:04.530Z</time>
    </trkpt>
    <trkpt lat="45.819158" lon="15.230621">
        <ele>184.3</ele>
        <time>2023-05-08T14:47:11.519Z</time>
    </trkpt>
    <trkpt lat="45.819094" lon="15.230499">
        <ele>185.8</ele>
        <time>2023-05-08T14:47:14.359Z</time>
    </trkpt>
    <trkpt lat="45.819158" lon="15.230621">
        <ele>184.3</ele>
        <time>2023-05-08T14:47:17.199Z</time>
    </trkpt>
    <trkpt lat="45.819265" lon="15.230964">
        <ele>183.8</ele>
        <time>2023-05-08T14:47:24.188Z</time>
    </trkpt>
    <trkpt lat="45.819309" lon="15.231197">
        <ele>184.0</ele>
        <time>2023-05-08T14:47:28.677Z</time>
    </trkpt>
    <trkpt lat="45.819312" lon="15.23126">
        <ele>184.0</ele>
        <time>2023-05-08T14:47:29.851Z</time>
    </trkpt>
    <trkpt lat="45.819499" lon="15.231321">
        <ele>184.5</ele>
        <time>2023-05-08T14:47:34.968Z</time>
        <extensions>
        <gpxtpx:TrackPointExtension>
        <gpxtpx:Extensions>
            <surface>asphalt</surface>
        </gpxtpx:Extensions>
        </gpxtpx:TrackPointExtension>
        </extensions>
    </trkpt>
    <trkpt lat="45.819637" lon="15.231436">
        <ele>184.5</ele>
        <time>2023-05-08T14:47:39.226Z</time>
        <extensions>
        <gpxtpx:TrackPointExtension>
        <gpxtpx:Extensions>
            <surface>asphalt</surface>
        </gpxtpx:Extensions>
        </gpxtpx:TrackPointExtension>
        </extensions>
    </trkpt>
    <trkpt lat="45.819806" lon="15.231681">
        <ele>183.8</ele>
        <time>2023-05-08T14:47:45.637Z</time>
        <extensions>
        <gpxtpx:TrackPointExtension>
        <gpxtpx:Extensions>
            <surface>asphalt</surface>
        </gpxtpx:Extensions>
        </gpxtpx:TrackPointExtension>
        </extensions>
    </trkpt>
    <trkpt lat="45.819886" lon="15.231822">
        <ele>183.3</ele>
        <time>2023-05-08T14:47:49.018Z</time>
        <extensions>
        <gpxtpx:TrackPointExtension>
        <gpxtpx:Extensions>
            <surface>asphalt</surface>
        </gpxtpx:Extensions>
        </gpxtpx:TrackPointExtension>
        </extensions>
    </trkpt>
    <trkpt lat="45.820037" lon="15.232204">
        <ele>182.0</ele>
        <time>2023-05-08T14:47:57.185Z</time>
        <extensions>
        <gpxtpx:TrackPointExtension>
        <gpxtpx:Extensions>
            <surface>asphalt</surface>
        </gpxtpx:Extensions>
        </gpxtpx:TrackPointExtension>
        </extensions>
    </trkpt>
    <trkpt lat="45.820121" lon="15.232442">
        <ele>180.8</ele>
        <time>2023-05-08T14:48:02.146Z</time>
        <extensions>
        <gpxtpx:TrackPointExtension>
        <gpxtpx:Extensions>
            <surface>asphalt</surface>
        </gpxtpx:Extensions>
        </gpxtpx:TrackPointExtension>
        </extensions>
    </trkpt>
    <trkpt lat="45.820241" lon="15.232679">
        <ele>180.3</ele>
        <time>2023-05-08T14:48:07.594Z</time>
        <extensions>
        <gpxtpx:TrackPointExtension>
        <gpxtpx:Extensions>
            <surface>asphalt</surface>
        </gpxtpx:Extensions>
        </gpxtpx:TrackPointExtension>
        </extensions>
    </trkpt>
    <trkpt lat="45.82033" lon="15.23282">
        <ele>179.5</ele>
        <time>2023-05-08T14:48:11.132Z</time>
        <extensions>
        <gpxtpx:TrackPointExtension>
        <gpxtpx:Extensions>
            <surface>asphalt</surface>
        </gpxtpx:Extensions>
        </gpxtpx:TrackPointExtension>
        </extensions>
    </trkpt>
    <trkpt lat="45.820457" lon="15.232973">
        <ele>178.5</ele>
        <time>2023-05-08T14:48:15.557Z</time>
        <extensions>
        <gpxtpx:TrackPointExtension>
        <gpxtpx:Extensions>
            <surface>asphalt</surface>
        </gpxtpx:Extensions>
        </gpxtpx:TrackPointExtension>
        </extensions>
    </trkpt>
    <trkpt lat="45.820521" lon="15.232986">
        <ele>178.0</ele>
        <time>2023-05-08T14:48:17.281Z</time>
        <extensions>
        <gpxtpx:TrackPointExtension>
        <gpxtpx:Extensions>
            <surface>asphalt</surface>
        </gpxtpx:Extensions>
        </gpxtpx:TrackPointExtension>
        </extensions>
    </trkpt>
    <trkpt lat="45.820588" lon="15.232922">
        <ele>177.8</ele>
        <time>2023-05-08T14:48:19.428Z</time>
        <extensions>
        <gpxtpx:TrackPointExtension>
        <gpxtpx:Extensions>
            <surface>asphalt</surface>
        </gpxtpx:Extensions>
        </gpxtpx:TrackPointExtension>
        </extensions>
    </trkpt>
    <trkpt lat="45.820703" lon="15.232666">
        <ele>178.5</ele>
        <time>2023-05-08T14:48:25.092Z</time>
        <extensions>
        <gpxtpx:TrackPointExtension>
        <gpxtpx:Extensions>
            <surface>asphalt</surface>
        </gpxtpx:Extensions>
        </gpxtpx:TrackPointExtension>
        </extensions>
    </trkpt>
    <trkpt lat="45.820805" lon="15.232457">
        <ele>179.5</ele>
        <time>2023-05-08T14:48:29.837Z</time>
        <extensions>
        <gpxtpx:TrackPointExtension>
        <gpxtpx:Extensions>
            <surface>asphalt</surface>
        </gpxtpx:Extensions>
        </gpxtpx:TrackPointExtension>
        </extensions>
    </trkpt>
    <trkpt lat="45.82096" lon="15.232195">
        <ele>181.5</ele>
        <time>2023-05-08T14:48:36.228Z</time>
        <extensions>
        <gpxtpx:TrackPointExtension>
        <gpxtpx:Extensions>
            <surface>asphalt</surface>
        </gpxtpx:Extensions>
        </gpxtpx:TrackPointExtension>
        </extensions>
    </trkpt>
    <trkpt lat="45.821035" lon="15.232055">
        <ele>182.5</ele>
        <time>2023-05-08T14:48:39.512Z</time>
        <extensions>
        <gpxtpx:TrackPointExtension>
        <gpxtpx:Extensions>
            <surface>asphalt</surface>
        </gpxtpx:Extensions>
        </gpxtpx:TrackPointExtension>
        </extensions>
    </trkpt>
    <trkpt lat="45.821164" lon="15.231679">
        <ele>185.0</ele>
        <time>2023-05-08T14:48:47.306Z</time>
        <extensions>
        <gpxtpx:TrackPointExtension>
        <gpxtpx:Extensions>
            <surface>asphalt</surface>
        </gpxtpx:Extensions>
        </gpxtpx:TrackPointExtension>
        </extensions>
    </trkpt>
    <trkpt lat="45.821364" lon="15.231403">
        <ele>185.3</ele>
        <time>2023-05-08T14:48:54.711Z</time>
        <extensions>
        <gpxtpx:TrackPointExtension>
        <gpxtpx:Extensions>
            <surface>asphalt</surface>
        </gpxtpx:Extensions>
        </gpxtpx:TrackPointExtension>
        </extensions>
    </trkpt>
    <trkpt lat="45.821673" lon="15.230949">
        <ele>186.8</ele>
        <time>2023-05-08T14:49:06.513Z</time>
        <extensions>
        <gpxtpx:TrackPointExtension>
        <gpxtpx:Extensions>
            <surface>asphalt</surface>
        </gpxtpx:Extensions>
        </gpxtpx:TrackPointExtension>
        </extensions>
    </trkpt>
    <trkpt lat="45.821957" lon="15.230425">
        <ele>188.8</ele>
        <time>2023-05-08T14:49:18.858Z</time>
        <extensions>
        <gpxtpx:TrackPointExtension>
        <gpxtpx:Extensions>
            <surface>asphalt</surface>
        </gpxtpx:Extensions>
        </gpxtpx:TrackPointExtension>
        </extensions>
    </trkpt>
    <trkpt lat="45.822076" lon="15.230168">
        <ele>189.8</ele>
        <time>2023-05-08T14:49:24.596Z</time>
        <extensions>
        <gpxtpx:TrackPointExtension>
        <gpxtpx:Extensions>
            <surface>asphalt</surface>
        </gpxtpx:Extensions>
        </gpxtpx:TrackPointExtension>
        </extensions>
    </trkpt>
    <trkpt lat="45.822282" lon="15.229825">
        <ele>190.8</ele>
        <time>2023-05-08T14:49:33.017Z</time>
        <extensions>
        <gpxtpx:TrackPointExtension>
        <gpxtpx:Extensions>
            <surface>asphalt</surface>
        </gpxtpx:Extensions>
        </gpxtpx:TrackPointExtension>
        </extensions>
    </trkpt>
    <trkpt lat="45.82261" lon="15.229253">
        <ele>193.3</ele>
        <time>2023-05-08T14:49:46.793Z</time>
        <extensions>
        <gpxtpx:TrackPointExtension>
        <gpxtpx:Extensions>
            <surface>asphalt</surface>
        </gpxtpx:Extensions>
        </gpxtpx:TrackPointExtension>
        </extensions>
    </trkpt>
    <trkpt lat="45.822753" lon="15.228925">
        <ele>191.8</ele>
        <time>2023-05-08T14:49:53.988Z</time>
        <extensions>
        <gpxtpx:TrackPointExtension>
        <gpxtpx:Extensions>
            <surface>asphalt</surface>
        </gpxtpx:Extensions>
        </gpxtpx:TrackPointExtension>
        </extensions>
    </trkpt>
    <trkpt lat="45.82275" lon="15.228708">
        <ele>191.5</ele>
        <time>2023-05-08T14:49:58.024Z</time>
        <extensions>
        <gpxtpx:TrackPointExtension>
        <gpxtpx:Extensions>
            <surface>asphalt</surface>
        </gpxtpx:Extensions>
        </gpxtpx:TrackPointExtension>
        </extensions>
    </trkpt>
    <trkpt lat="45.822747" lon="15.22851">
        <ele>191.3</ele>
        <time>2023-05-08T14:50:01.707Z</time>
        <extensions>
        <gpxtpx:TrackPointExtension>
        <gpxtpx:Extensions>
            <surface>asphalt</surface>
        </gpxtpx:Extensions>
        </gpxtpx:TrackPointExtension>
        </extensions>
    </trkpt>
    <trkpt lat="45.82276" lon="15.228125">
        <ele>190.3</ele>
        <time>2023-05-08T14:50:08.875Z</time>
        <extensions>
        <gpxtpx:TrackPointExtension>
        <gpxtpx:Extensions>
            <surface>asphalt</surface>
        </gpxtpx:Extensions>
        </gpxtpx:TrackPointExtension>
        </extensions>
    </trkpt>
    <trkpt lat="45.822773" lon="15.227987">
        <ele>189.8</ele>
        <time>2023-05-08T14:50:11.464Z</time>
        <extensions>
        <gpxtpx:TrackPointExtension>
        <gpxtpx:Extensions>
            <surface>asphalt</surface>
        </gpxtpx:Extensions>
        </gpxtpx:TrackPointExtension>
        </extensions>
    </trkpt>
    <trkpt lat="45.822818" lon="15.227874">
        <ele>189.0</ele>
        <time>2023-05-08T14:50:13.884Z</time>
        <extensions>
        <gpxtpx:TrackPointExtension>
        <gpxtpx:Extensions>
            <surface>asphalt</surface>
        </gpxtpx:Extensions>
        </gpxtpx:TrackPointExtension>
        </extensions>
    </trkpt>
    <trkpt lat="45.822905" lon="15.22776">
        <ele>187.8</ele>
        <time>2023-05-08T14:50:17.028Z</time>
        <extensions>
        <gpxtpx:TrackPointExtension>
        <gpxtpx:Extensions>
            <surface>asphalt</surface>
        </gpxtpx:Extensions>
        </gpxtpx:TrackPointExtension>
        </extensions>
    </trkpt>
    <trkpt lat="45.823001" lon="15.227654">
        <ele>186.8</ele>
        <time>2023-05-08T14:50:20.260Z</time>
        <extensions>
        <gpxtpx:TrackPointExtension>
        <gpxtpx:Extensions>
            <surface>asphalt</surface>
        </gpxtpx:Extensions>
        </gpxtpx:TrackPointExtension>
        </extensions>
    </trkpt>
    <trkpt lat="45.823129" lon="15.227552">
        <ele>185.5</ele>
        <time>2023-05-08T14:50:24.167Z</time>
        <extensions>
        <gpxtpx:TrackPointExtension>
        <gpxtpx:Extensions>
            <surface>asphalt</surface>
        </gpxtpx:Extensions>
        </gpxtpx:TrackPointExtension>
        </extensions>
    </trkpt>
    <trkpt lat="45.823402" lon="15.227402">
        <ele>183.8</ele>
        <time>2023-05-08T14:50:31.968Z</time>
        <extensions>
        <gpxtpx:TrackPointExtension>
        <gpxtpx:Extensions>
            <surface>asphalt</surface>
        </gpxtpx:Extensions>
        </gpxtpx:TrackPointExtension>
        </extensions>
    </trkpt>
    <trkpt lat="45.823506" lon="15.227209">
        <ele>184.3</ele>
        <time>2023-05-08T14:50:36.505Z</time>
        <extensions>
        <gpxtpx:TrackPointExtension>
        <gpxtpx:Extensions>
            <surface>asphalt</surface>
        </gpxtpx:Extensions>
        </gpxtpx:TrackPointExtension>
        </extensions>
    </trkpt>
    <trkpt lat="45.823544" lon="15.227094">
        <ele>184.8</ele>
        <time>2023-05-08T14:50:38.871Z</time>
        <extensions>
        <gpxtpx:TrackPointExtension>
        <gpxtpx:Extensions>
            <surface>asphalt</surface>
        </gpxtpx:Extensions>
        </gpxtpx:TrackPointExtension>
        </extensions>
    </trkpt>
    <trkpt lat="45.823589" lon="15.226828">
        <ele>186.8</ele>
        <time>2023-05-08T14:50:43.961Z</time>
        <extensions>
        <gpxtpx:TrackPointExtension>
        <gpxtpx:Extensions>
            <surface>asphalt</surface>
        </gpxtpx:Extensions>
        </gpxtpx:TrackPointExtension>
        </extensions>
    </trkpt>
    <trkpt lat="45.823632" lon="15.226689">
        <ele>188.0</ele>
        <time>2023-05-08T14:50:46.789Z</time>
        <extensions>
        <gpxtpx:TrackPointExtension>
        <gpxtpx:Extensions>
            <surface>asphalt</surface>
        </gpxtpx:Extensions>
        </gpxtpx:TrackPointExtension>
        </extensions>
    </trkpt>
    <trkpt lat="45.823712" lon="15.226486">
        <ele>189.5</ele>
        <time>2023-05-08T14:50:51.126Z</time>
        <extensions>
        <gpxtpx:TrackPointExtension>
        <gpxtpx:Extensions>
            <surface>asphalt</surface>
        </gpxtpx:Extensions>
        </gpxtpx:TrackPointExtension>
        </extensions>
    </trkpt>
    <trkpt lat="45.823736" lon="15.226388">
        <ele>190.3</ele>
        <time>2023-05-08T14:50:53.057Z</time>
        <extensions>
        <gpxtpx:TrackPointExtension>
        <gpxtpx:Extensions>
            <surface>asphalt</surface>
        </gpxtpx:Extensions>
        </gpxtpx:TrackPointExtension>
        </extensions>
    </trkpt>
    <trkpt lat="45.823803" lon="15.226225">
        <ele>191.5</ele>
        <time>2023-05-08T14:50:56.576Z</time>
        <extensions>
        <gpxtpx:TrackPointExtension>
        <gpxtpx:Extensions>
            <surface>asphalt</surface>
        </gpxtpx:Extensions>
        </gpxtpx:TrackPointExtension>
        </extensions>
    </trkpt>
    <trkpt lat="45.823854" lon="15.226122">
        <ele>192.3</ele>
        <time>2023-05-08T14:50:58.925Z</time>
        <extensions>
        <gpxtpx:TrackPointExtension>
        <gpxtpx:Extensions>
            <surface>asphalt</surface>
        </gpxtpx:Extensions>
        </gpxtpx:TrackPointExtension>
        </extensions>
    </trkpt>
    <trkpt lat="45.82408" lon="15.225806">
        <ele>195.3</ele>
        <time>2023-05-08T14:51:07.345Z</time>
        <extensions>
        <gpxtpx:TrackPointExtension>
        <gpxtpx:Extensions>
            <surface>asphalt</surface>
        </gpxtpx:Extensions>
        </gpxtpx:TrackPointExtension>
        </extensions>
    </trkpt>
    <trkpt lat="45.824218" lon="15.225578">
        <ele>196.5</ele>
        <time>2023-05-08T14:51:12.961Z</time>
        <extensions>
        <gpxtpx:TrackPointExtension>
        <gpxtpx:Extensions>
            <surface>asphalt</surface>
        </gpxtpx:Extensions>
        </gpxtpx:TrackPointExtension>
        </extensions>
    </trkpt>
    <trkpt lat="45.824406" lon="15.22518">
        <ele>198.0</ele>
        <time>2023-05-08T14:51:21.902Z</time>
        <extensions>
        <gpxtpx:TrackPointExtension>
        <gpxtpx:Extensions>
            <surface>asphalt</surface>
        </gpxtpx:Extensions>
        </gpxtpx:TrackPointExtension>
        </extensions>
    </trkpt>
    <trkpt lat="45.824598" lon="15.224927">
        <ele>199.0</ele>
        <time>2023-05-08T14:51:28.858Z</time>
        <extensions>
        <gpxtpx:TrackPointExtension>
        <gpxtpx:Extensions>
            <surface>asphalt</surface>
        </gpxtpx:Extensions>
        </gpxtpx:TrackPointExtension>
        </extensions>
    </trkpt>
    <trkpt lat="45.824812" lon="15.224686">
        <ele>201.0</ele>
        <time>2023-05-08T14:51:36.117Z</time>
        <extensions>
        <gpxtpx:TrackPointExtension>
        <gpxtpx:Extensions>
            <surface>asphalt</surface>
        </gpxtpx:Extensions>
        </gpxtpx:TrackPointExtension>
        </extensions>
    </trkpt>
    <trkpt lat="45.825059" lon="15.224436">
        <ele>201.8</ele>
        <time>2023-05-08T14:51:44.183Z</time>
        <extensions>
        <gpxtpx:TrackPointExtension>
        <gpxtpx:Extensions>
            <surface>asphalt</surface>
        </gpxtpx:Extensions>
        </gpxtpx:TrackPointExtension>
        </extensions>
    </trkpt>
    <trkpt lat="45.825229" lon="15.224224">
        <ele>201.5</ele>
        <time>2023-05-08T14:51:50.193Z</time>
        <extensions>
        <gpxtpx:TrackPointExtension>
        <gpxtpx:Extensions>
            <surface>asphalt</surface>
        </gpxtpx:Extensions>
        </gpxtpx:TrackPointExtension>
        </extensions>
    </trkpt>
    <trkpt lat="45.825425" lon="15.223859">
        <ele>200.0</ele>
        <time>2023-05-08T14:51:58.762Z</time>
        <extensions>
        <gpxtpx:TrackPointExtension>
        <gpxtpx:Extensions>
            <surface>asphalt</surface>
        </gpxtpx:Extensions>
        </gpxtpx:TrackPointExtension>
        </extensions>
    </trkpt>
    <trkpt lat="45.825547" lon="15.223577">
        <ele>200.3</ele>
        <time>2023-05-08T14:52:04.934Z</time>
        <extensions>
        <gpxtpx:TrackPointExtension>
        <gpxtpx:Extensions>
            <surface>asphalt</surface>
        </gpxtpx:Extensions>
        </gpxtpx:TrackPointExtension>
        </extensions>
    </trkpt>
    <trkpt lat="45.825638" lon="15.22331">
        <ele>201.0</ele>
        <time>2023-05-08T14:52:10.461Z</time>
        <extensions>
        <gpxtpx:TrackPointExtension>
        <gpxtpx:Extensions>
            <surface>asphalt</surface>
        </gpxtpx:Extensions>
        </gpxtpx:TrackPointExtension>
        </extensions>
    </trkpt>
    <trkpt lat="45.825674" lon="15.223242">
        <ele>201.0</ele>
        <time>2023-05-08T14:52:12.049Z</time>
        <extensions>
        <gpxtpx:TrackPointExtension>
        <gpxtpx:Extensions>
            <surface>asphalt</surface>
        </gpxtpx:Extensions>
        </gpxtpx:TrackPointExtension>
        </extensions>
    </trkpt>
    <trkpt lat="45.825785" lon="15.223127">
        <ele>200.5</ele>
        <time>2023-05-08T14:52:15.702Z</time>
        <extensions>
        <gpxtpx:TrackPointExtension>
        <gpxtpx:Extensions>
            <surface>asphalt</surface>
        </gpxtpx:Extensions>
        </gpxtpx:TrackPointExtension>
        </extensions>
    </trkpt>
    <trkpt lat="45.82598" lon="15.222981">
        <ele>199.0</ele>
        <time>2023-05-08T14:52:21.571Z</time>
        <extensions>
        <gpxtpx:TrackPointExtension>
        <gpxtpx:Extensions>
            <surface>asphalt</surface>
        </gpxtpx:Extensions>
        </gpxtpx:TrackPointExtension>
        </extensions>
    </trkpt>
    <trkpt lat="45.826061" lon="15.222904">
        <ele>198.5</ele>
        <time>2023-05-08T14:52:24.163Z</time>
        <extensions>
        <gpxtpx:TrackPointExtension>
        <gpxtpx:Extensions>
            <surface>asphalt</surface>
        </gpxtpx:Extensions>
        </gpxtpx:TrackPointExtension>
        </extensions>
    </trkpt>
    <trkpt lat="45.826168" lon="15.222861">
        <ele>197.3</ele>
        <time>2023-05-08T14:52:27.128Z</time>
        <extensions>
        <gpxtpx:TrackPointExtension>
        <gpxtpx:Extensions>
            <surface>asphalt</surface>
        </gpxtpx:Extensions>
        </gpxtpx:TrackPointExtension>
        </extensions>
    </trkpt>
    <trkpt lat="45.826336" lon="15.222818">
        <ele>195.3</ele>
        <time>2023-05-08T14:52:31.682Z</time>
        <extensions>
        <gpxtpx:TrackPointExtension>
        <gpxtpx:Extensions>
            <surface>asphalt</surface>
        </gpxtpx:Extensions>
        </gpxtpx:TrackPointExtension>
        </extensions>
    </trkpt>
    <trkpt lat="45.826523" lon="15.222802">
        <ele>192.5</ele>
        <time>2023-05-08T14:52:36.681Z</time>
        <extensions>
        <gpxtpx:TrackPointExtension>
        <gpxtpx:Extensions>
            <surface>asphalt</surface>
        </gpxtpx:Extensions>
        </gpxtpx:TrackPointExtension>
        </extensions>
    </trkpt>
    <trkpt lat="45.826588" lon="15.222773">
        <ele>191.8</ele>
        <time>2023-05-08T14:52:38.497Z</time>
        <extensions>
        <gpxtpx:TrackPointExtension>
        <gpxtpx:Extensions>
            <surface>asphalt</surface>
        </gpxtpx:Extensions>
        </gpxtpx:TrackPointExtension>
        </extensions>
    </trkpt>
    <trkpt lat="45.826708" lon="15.222657">
        <ele>191.0</ele>
        <time>2023-05-08T14:52:42.358Z</time>
        <extensions>
        <gpxtpx:TrackPointExtension>
        <gpxtpx:Extensions>
            <surface>asphalt</surface>
        </gpxtpx:Extensions>
        </gpxtpx:TrackPointExtension>
        </extensions>
    </trkpt>
    <trkpt lat="45.827024" lon="15.222316">
        <ele>187.3</ele>
        <time>2023-05-08T14:52:52.909Z</time>
        <extensions>
        <gpxtpx:TrackPointExtension>
        <gpxtpx:Extensions>
            <surface>asphalt</surface>
        </gpxtpx:Extensions>
        </gpxtpx:TrackPointExtension>
        </extensions>
    </trkpt>
    <trkpt lat="45.827638" lon="15.221776">
        <ele>182.0</ele>
        <time>2023-05-08T14:53:12.126Z</time>
        <extensions>
        <gpxtpx:TrackPointExtension>
        <gpxtpx:Extensions>
            <surface>asphalt</surface>
        </gpxtpx:Extensions>
        </gpxtpx:TrackPointExtension>
        </extensions>
    </trkpt>
    <trkpt lat="45.827823" lon="15.22156">
        <ele>182.5</ele>
        <time>2023-05-08T14:53:18.490Z</time>
        <extensions>
        <gpxtpx:TrackPointExtension>
        <gpxtpx:Extensions>
            <surface>asphalt</surface>
        </gpxtpx:Extensions>
        </gpxtpx:TrackPointExtension>
        </extensions>
    </trkpt>
    <trkpt lat="45.828039" lon="15.221235">
        <ele>183.3</ele>
        <time>2023-05-08T14:53:26.841Z</time>
        <extensions>
        <gpxtpx:TrackPointExtension>
        <gpxtpx:Extensions>
            <surface>asphalt</surface>
        </gpxtpx:Extensions>
        </gpxtpx:TrackPointExtension>
        </extensions>
    </trkpt>
    <trkpt lat="45.828363" lon="15.220658">
        <ele>184.3</ele>
        <time>2023-05-08T14:53:40.621Z</time>
        <extensions>
        <gpxtpx:TrackPointExtension>
        <gpxtpx:Extensions>
            <surface>asphalt</surface>
        </gpxtpx:Extensions>
        </gpxtpx:TrackPointExtension>
        </extensions>
    </trkpt>
    <trkpt lat="45.828481" lon="15.220483">
        <ele>184.3</ele>
        <time>2023-05-08T14:53:45.149Z</time>
        <extensions>
        <gpxtpx:TrackPointExtension>
        <gpxtpx:Extensions>
            <surface>asphalt</surface>
        </gpxtpx:Extensions>
        </gpxtpx:TrackPointExtension>
        </extensions>
    </trkpt>
    <trkpt lat="45.828576" lon="15.220428">
        <ele>184.3</ele>
        <time>2023-05-08T14:53:47.882Z</time>
        <extensions>
        <gpxtpx:TrackPointExtension>
        <gpxtpx:Extensions>
            <surface>asphalt</surface>
        </gpxtpx:Extensions>
        </gpxtpx:TrackPointExtension>
        </extensions>
    </trkpt>
    <trkpt lat="45.828616" lon="15.220453">
        <ele>184.0</ele>
        <time>2023-05-08T14:53:49.046Z</time>
        <extensions>
        <gpxtpx:TrackPointExtension>
        <gpxtpx:Extensions>
            <surface>asphalt</surface>
        </gpxtpx:Extensions>
        </gpxtpx:TrackPointExtension>
        </extensions>
    </trkpt>
    <trkpt lat="45.828676" lon="15.220532">
        <ele>183.8</ele>
        <time>2023-05-08T14:53:51.219Z</time>
        <extensions>
        <gpxtpx:TrackPointExtension>
        <gpxtpx:Extensions>
            <surface>asphalt</surface>
        </gpxtpx:Extensions>
        </gpxtpx:TrackPointExtension>
        </extensions>
    </trkpt>
    <trkpt lat="45.828763" lon="15.220592">
        <ele>183.5</ele>
        <time>2023-05-08T14:53:53.794Z</time>
        <extensions>
        <gpxtpx:TrackPointExtension>
        <gpxtpx:Extensions>
            <surface>asphalt</surface>
        </gpxtpx:Extensions>
        </gpxtpx:TrackPointExtension>
        </extensions>
    </trkpt>
    <trkpt lat="45.828847" lon="15.220606">
        <ele>183.3</ele>
        <time>2023-05-08T14:53:56.050Z</time>
        <extensions>
        <gpxtpx:TrackPointExtension>
        <gpxtpx:Extensions>
            <surface>asphalt</surface>
        </gpxtpx:Extensions>
        </gpxtpx:TrackPointExtension>
        </extensions>
    </trkpt>
    <trkpt lat="45.82913" lon="15.220596">
        <ele>182.5</ele>
        <time>2023-05-08T14:54:03.604Z</time>
        <extensions>
        <gpxtpx:TrackPointExtension>
        <gpxtpx:Extensions>
            <surface>asphalt</surface>
        </gpxtpx:Extensions>
        </gpxtpx:TrackPointExtension>
        </extensions>
    </trkpt>
    <trkpt lat="45.829287" lon="15.220604">
        <ele>181.8</ele>
        <time>2023-05-08T14:54:07.796Z</time>
        <extensions>
        <gpxtpx:TrackPointExtension>
        <gpxtpx:Extensions>
            <surface>asphalt</surface>
        </gpxtpx:Extensions>
        </gpxtpx:TrackPointExtension>
        </extensions>
    </trkpt>
    <trkpt lat="45.829388" lon="15.22051">
        <ele>181.5</ele>
        <time>2023-05-08T14:54:11.008Z</time>
        <extensions>
        <gpxtpx:TrackPointExtension>
        <gpxtpx:Extensions>
            <surface>asphalt</surface>
        </gpxtpx:Extensions>
        </gpxtpx:TrackPointExtension>
        </extensions>
    </trkpt>
    <trkpt lat="45.829477" lon="15.220453">
        <ele>181.0</ele>
        <time>2023-05-08T14:54:13.608Z</time>
        <extensions>
        <gpxtpx:TrackPointExtension>
        <gpxtpx:Extensions>
            <surface>asphalt</surface>
        </gpxtpx:Extensions>
        </gpxtpx:TrackPointExtension>
        </extensions>
    </trkpt>
    <trkpt lat="45.829544" lon="15.220434">
        <ele>180.5</ele>
        <time>2023-05-08T14:54:15.430Z</time>
        <extensions>
        <gpxtpx:TrackPointExtension>
        <gpxtpx:Extensions>
            <surface>asphalt</surface>
        </gpxtpx:Extensions>
        </gpxtpx:TrackPointExtension>
        </extensions>
    </trkpt>
    <trkpt lat="45.82961" lon="15.220427">
        <ele>180.3</ele>
        <time>2023-05-08T14:54:17.196Z</time>
        <extensions>
        <gpxtpx:TrackPointExtension>
        <gpxtpx:Extensions>
            <surface>asphalt</surface>
        </gpxtpx:Extensions>
        </gpxtpx:TrackPointExtension>
        </extensions>
    </trkpt>
    <trkpt lat="45.829966" lon="15.220442">
        <ele>178.0</ele>
        <time>2023-05-08T14:54:26.700Z</time>
        <extensions>
        <gpxtpx:TrackPointExtension>
        <gpxtpx:Extensions>
            <surface>asphalt</surface>
        </gpxtpx:Extensions>
        </gpxtpx:TrackPointExtension>
        </extensions>
    </trkpt>
    <trkpt lat="45.830104" lon="15.220413">
        <ele>176.3</ele>
        <time>2023-05-08T14:54:30.422Z</time>
        <extensions>
        <gpxtpx:TrackPointExtension>
        <gpxtpx:Extensions>
            <surface>asphalt</surface>
        </gpxtpx:Extensions>
        </gpxtpx:TrackPointExtension>
        </extensions>
    </trkpt>
    <trkpt lat="45.830461" lon="15.220317">
        <ele>170.8</ele>
        <time>2023-05-08T14:54:40.114Z</time>
        <extensions>
        <gpxtpx:TrackPointExtension>
        <gpxtpx:Extensions>
            <surface>asphalt</surface>
        </gpxtpx:Extensions>
        </gpxtpx:TrackPointExtension>
        </extensions>
    </trkpt>
    <trkpt lat="45.830635" lon="15.220316">
        <ele>168.0</ele>
        <time>2023-05-08T14:54:44.757Z</time>
        <extensions>
        <gpxtpx:TrackPointExtension>
        <gpxtpx:Extensions>
            <surface>asphalt</surface>
        </gpxtpx:Extensions>
        </gpxtpx:TrackPointExtension>
        </extensions>
    </trkpt>
    <trkpt lat="45.83075" lon="15.220351">
        <ele>166.5</ele>
        <time>2023-05-08T14:54:47.894Z</time>
        <extensions>
        <gpxtpx:TrackPointExtension>
        <gpxtpx:Extensions>
            <surface>asphalt</surface>
        </gpxtpx:Extensions>
        </gpxtpx:TrackPointExtension>
        </extensions>
    </trkpt>
    <trkpt lat="45.830836" lon="15.220388">
        <ele>165.3</ele>
        <time>2023-05-08T14:54:50.289Z</time>
        <extensions>
        <gpxtpx:TrackPointExtension>
        <gpxtpx:Extensions>
            <surface>asphalt</surface>
        </gpxtpx:Extensions>
        </gpxtpx:TrackPointExtension>
        </extensions>
    </trkpt>
    <trkpt lat="45.830915" lon="15.220458">
        <ele>164.8</ele>
        <time>2023-05-08T14:54:52.766Z</time>
        <extensions>
        <gpxtpx:TrackPointExtension>
        <gpxtpx:Extensions>
            <surface>asphalt</surface>
        </gpxtpx:Extensions>
        </gpxtpx:TrackPointExtension>
        </extensions>
    </trkpt>
    <trkpt lat="45.831031" lon="15.220871">
        <ele>164.3</ele>
        <time>2023-05-08T14:55:01.046Z</time>
        <extensions>
        <gpxtpx:TrackPointExtension>
        <gpxtpx:Extensions>
            <surface>asphalt</surface>
        </gpxtpx:Extensions>
        </gpxtpx:TrackPointExtension>
        </extensions>
    </trkpt>
    <trkpt lat="45.831102" lon="15.221152">
        <ele>163.8</ele>
        <time>2023-05-08T14:55:06.604Z</time>
        <extensions>
        <gpxtpx:TrackPointExtension>
        <gpxtpx:Extensions>
            <surface>asphalt</surface>
        </gpxtpx:Extensions>
        </gpxtpx:TrackPointExtension>
        </extensions>
    </trkpt>
    <trkpt lat="45.831166" lon="15.221474">
        <ele>163.5</ele>
        <time>2023-05-08T14:55:12.830Z</time>
        <extensions>
        <gpxtpx:TrackPointExtension>
        <gpxtpx:Extensions>
            <surface>asphalt</surface>
        </gpxtpx:Extensions>
        </gpxtpx:TrackPointExtension>
        </extensions>
    </trkpt>
    <trkpt lat="45.831203" lon="15.222077">
        <ele>167.0</ele>
        <time>2023-05-08T14:55:24.085Z</time>
        <extensions>
        <gpxtpx:TrackPointExtension>
        <gpxtpx:Extensions>
            <surface>asphalt</surface>
        </gpxtpx:Extensions>
        </gpxtpx:TrackPointExtension>
        </extensions>
    </trkpt>
    <trkpt lat="45.831517" lon="15.22211">
        <ele>164.3</ele>
        <time>2023-05-08T14:55:32.487Z</time>
        <extensions>
        <gpxtpx:TrackPointExtension>
        <gpxtpx:Extensions>
            <surface>asphalt</surface>
        </gpxtpx:Extensions>
        </gpxtpx:TrackPointExtension>
        </extensions>
    </trkpt>
    <trkpt lat="45.83191" lon="15.222121">
        <ele>161.8</ele>
        <time>2023-05-08T14:55:42.976Z</time>
        <extensions>
        <gpxtpx:TrackPointExtension>
        <gpxtpx:Extensions>
            <surface>asphalt</surface>
        </gpxtpx:Extensions>
        </gpxtpx:TrackPointExtension>
        </extensions>
    </trkpt>
    <trkpt lat="45.832974" lon="15.221938">
        <ele>162.5</ele>
        <time>2023-05-08T14:56:11.573Z</time>
        <extensions>
        <gpxtpx:TrackPointExtension>
        <gpxtpx:Extensions>
            <surface>wood</surface>
        </gpxtpx:Extensions>
        </gpxtpx:TrackPointExtension>
        </extensions>
    </trkpt>
    <trkpt lat="45.833147" lon="15.221945">
        <ele>163.8</ele>
        <time>2023-05-08T14:56:16.191Z</time>
        <extensions>
        <gpxtpx:TrackPointExtension>
        <gpxtpx:Extensions>
            <surface>asphalt</surface>
        </gpxtpx:Extensions>
        </gpxtpx:TrackPointExtension>
        </extensions>
    </trkpt>
    <trkpt lat="45.83326" lon="15.222135">
        <ele>163.5</ele>
        <time>2023-05-08T14:56:20.835Z</time>
        <extensions>
        <gpxtpx:TrackPointExtension>
        <gpxtpx:Extensions>
            <surface>asphalt</surface>
        </gpxtpx:Extensions>
        </gpxtpx:TrackPointExtension>
        </extensions>
    </trkpt>
    <trkpt lat="45.833369" lon="15.22242">
        <ele>163.0</ele>
        <time>2023-05-08T14:56:26.880Z</time>
        <extensions>
        <gpxtpx:TrackPointExtension>
        <gpxtpx:Extensions>
            <surface>asphalt</surface>
        </gpxtpx:Extensions>
        </gpxtpx:TrackPointExtension>
        </extensions>
    </trkpt>
    <trkpt lat="45.833415" lon="15.222467">
        <ele>163.5</ele>
        <time>2023-05-08T14:56:28.386Z</time>
        <extensions>
        <gpxtpx:TrackPointExtension>
        <gpxtpx:Extensions>
            <surface>asphalt</surface>
        </gpxtpx:Extensions>
        </gpxtpx:TrackPointExtension>
        </extensions>
    </trkpt>
    <trkpt lat="45.833499" lon="15.222467">
        <ele>164.8</ele>
        <time>2023-05-08T14:56:30.627Z</time>
        <extensions>
        <gpxtpx:TrackPointExtension>
        <gpxtpx:Extensions>
            <surface>asphalt</surface>
        </gpxtpx:Extensions>
        </gpxtpx:TrackPointExtension>
        </extensions>
    </trkpt>
    <trkpt lat="45.833563" lon="15.222386">
        <ele>166.3</ele>
        <time>2023-05-08T14:56:32.904Z</time>
        <extensions>
        <gpxtpx:TrackPointExtension>
        <gpxtpx:Extensions>
            <surface>asphalt</surface>
        </gpxtpx:Extensions>
        </gpxtpx:TrackPointExtension>
        </extensions>
    </trkpt>
    <trkpt lat="45.833635" lon="15.222155">
        <ele>168.5</ele>
        <time>2023-05-08T14:56:37.609Z</time>
        <extensions>
        <gpxtpx:TrackPointExtension>
        <gpxtpx:Extensions>
            <surface>asphalt</surface>
        </gpxtpx:Extensions>
        </gpxtpx:TrackPointExtension>
        </extensions>
    </trkpt>
    <trkpt lat="45.833768" lon="15.221733">
        <ele>171.8</ele>
        <time>2023-05-08T14:56:46.221Z</time>
        <extensions>
        <gpxtpx:TrackPointExtension>
        <gpxtpx:Extensions>
            <surface>asphalt</surface>
        </gpxtpx:Extensions>
        </gpxtpx:TrackPointExtension>
        </extensions>
    </trkpt>
    <trkpt lat="45.833808" lon="15.221558">
        <ele>172.5</ele>
        <time>2023-05-08T14:56:49.645Z</time>
        <extensions>
        <gpxtpx:TrackPointExtension>
        <gpxtpx:Extensions>
            <surface>asphalt</surface>
        </gpxtpx:Extensions>
        </gpxtpx:TrackPointExtension>
        </extensions>
    </trkpt>
    <trkpt lat="45.833843" lon="15.221341">
        <ele>173.0</ele>
        <time>2023-05-08T14:56:53.786Z</time>
        <extensions>
        <gpxtpx:TrackPointExtension>
        <gpxtpx:Extensions>
            <surface>asphalt</surface>
        </gpxtpx:Extensions>
        </gpxtpx:TrackPointExtension>
        </extensions>
    </trkpt>
    <trkpt lat="45.83386" lon="15.221161">
        <ele>173.0</ele>
        <time>2023-05-08T14:56:57.163Z</time>
        <extensions>
        <gpxtpx:TrackPointExtension>
        <gpxtpx:Extensions>
            <surface>asphalt</surface>
        </gpxtpx:Extensions>
        </gpxtpx:TrackPointExtension>
        </extensions>
    </trkpt>
    <trkpt lat="45.833907" lon="15.220949">
        <ele>173.5</ele>
        <time>2023-05-08T14:57:01.299Z</time>
        <extensions>
        <gpxtpx:TrackPointExtension>
        <gpxtpx:Extensions>
            <surface>asphalt</surface>
        </gpxtpx:Extensions>
        </gpxtpx:TrackPointExtension>
        </extensions>
    </trkpt>
    <trkpt lat="45.833918" lon="15.220922">
        <ele>173.5</ele>
        <time>2023-05-08T14:57:01.880Z</time>
        <extensions>
        <gpxtpx:TrackPointExtension>
        <gpxtpx:Extensions>
            <surface>asphalt</surface>
        </gpxtpx:Extensions>
        </gpxtpx:TrackPointExtension>
        </extensions>
    </trkpt>
    <trkpt lat="45.833951" lon="15.22085">
        <ele>173.5</ele>
        <time>2023-05-08T14:57:03.482Z</time>
        <extensions>
        <gpxtpx:TrackPointExtension>
        <gpxtpx:Extensions>
            <surface>asphalt</surface>
        </gpxtpx:Extensions>
        </gpxtpx:TrackPointExtension>
        </extensions>
    </trkpt>
    <trkpt lat="45.833908" lon="15.220589">
        <ele>174.3</ele>
        <time>2023-05-08T14:57:08.468Z</time>
        <extensions>
        <gpxtpx:TrackPointExtension>
        <gpxtpx:Extensions>
            <surface>asphalt</surface>
        </gpxtpx:Extensions>
        </gpxtpx:TrackPointExtension>
        </extensions>
    </trkpt>
    <trkpt lat="45.833857" lon="15.220383">
        <ele>174.5</ele>
        <time>2023-05-08T14:57:12.532Z</time>
        <extensions>
        <gpxtpx:TrackPointExtension>
        <gpxtpx:Extensions>
            <surface>asphalt</surface>
        </gpxtpx:Extensions>
        </gpxtpx:TrackPointExtension>
        </extensions>
    </trkpt>
    <trkpt lat="45.833685" lon="15.219873">
        <ele>174.8</ele>
        <time>2023-05-08T14:57:23.067Z</time>
        <extensions>
        <gpxtpx:TrackPointExtension>
        <gpxtpx:Extensions>
            <surface>asphalt</surface>
        </gpxtpx:Extensions>
        </gpxtpx:TrackPointExtension>
        </extensions>
    </trkpt>
    <trkpt lat="45.833661" lon="15.219787">
        <ele>175.0</ele>
        <time>2023-05-08T14:57:24.789Z</time>
        <extensions>
        <gpxtpx:TrackPointExtension>
        <gpxtpx:Extensions>
            <surface>asphalt</surface>
        </gpxtpx:Extensions>
        </gpxtpx:TrackPointExtension>
        </extensions>
    </trkpt>
    <trkpt lat="45.83355" lon="15.219286">
        <ele>176.3</ele>
        <time>2023-05-08T14:57:34.564Z</time>
        <extensions>
        <gpxtpx:TrackPointExtension>
        <gpxtpx:Extensions>
            <surface>asphalt</surface>
        </gpxtpx:Extensions>
        </gpxtpx:TrackPointExtension>
        </extensions>
    </trkpt>
    <trkpt lat="45.833217" lon="15.217695">
        <ele>173.8</ele>
        <time>2023-05-08T14:58:05.452Z</time>
        <extensions>
        <gpxtpx:TrackPointExtension>
        <gpxtpx:Extensions>
            <surface>asphalt</surface>
        </gpxtpx:Extensions>
        </gpxtpx:TrackPointExtension>
        </extensions>
    </trkpt>
    <trkpt lat="45.833183" lon="15.217374">
        <ele>173.5</ele>
        <time>2023-05-08T14:58:11.489Z</time>
        <extensions>
        <gpxtpx:TrackPointExtension>
        <gpxtpx:Extensions>
            <surface>asphalt</surface>
        </gpxtpx:Extensions>
        </gpxtpx:TrackPointExtension>
        </extensions>
    </trkpt>
    <trkpt lat="45.833151" lon="15.216794">
        <ele>175.0</ele>
        <time>2023-05-08T14:58:22.307Z</time>
        <extensions>
        <gpxtpx:TrackPointExtension>
        <gpxtpx:Extensions>
            <surface>asphalt</surface>
        </gpxtpx:Extensions>
        </gpxtpx:TrackPointExtension>
        </extensions>
    </trkpt>
    <trkpt lat="45.83315" lon="15.216467">
        <ele>176.0</ele>
        <time>2023-05-08T14:58:28.387Z</time>
        <extensions>
        <gpxtpx:TrackPointExtension>
        <gpxtpx:Extensions>
            <surface>asphalt</surface>
        </gpxtpx:Extensions>
        </gpxtpx:TrackPointExtension>
        </extensions>
    </trkpt>
    <trkpt lat="45.833135" lon="15.216166">
        <ele>176.5</ele>
        <time>2023-05-08T14:58:33.998Z</time>
        <extensions>
        <gpxtpx:TrackPointExtension>
        <gpxtpx:Extensions>
            <surface>asphalt</surface>
        </gpxtpx:Extensions>
        </gpxtpx:TrackPointExtension>
        </extensions>
    </trkpt>
    <trkpt lat="45.833109" lon="15.215877">
        <ele>176.8</ele>
        <time>2023-05-08T14:58:39.416Z</time>
        <extensions>
        <gpxtpx:TrackPointExtension>
        <gpxtpx:Extensions>
            <surface>asphalt</surface>
        </gpxtpx:Extensions>
        </gpxtpx:TrackPointExtension>
        </extensions>
    </trkpt>
    <trkpt lat="45.833027" lon="15.215279">
        <ele>174.8</ele>
        <time>2023-05-08T14:58:50.748Z</time>
        <extensions>
        <gpxtpx:TrackPointExtension>
        <gpxtpx:Extensions>
            <surface>asphalt</surface>
        </gpxtpx:Extensions>
        </gpxtpx:TrackPointExtension>
        </extensions>
    </trkpt>
    <trkpt lat="45.833031" lon="15.214844">
        <ele>174.0</ele>
        <time>2023-05-08T14:58:58.837Z</time>
        <extensions>
        <gpxtpx:TrackPointExtension>
        <gpxtpx:Extensions>
            <surface>asphalt</surface>
        </gpxtpx:Extensions>
        </gpxtpx:TrackPointExtension>
        </extensions>
    </trkpt>
    <trkpt lat="45.833075" lon="15.213956">
        <ele>174.3</ele>
        <time>2023-05-08T14:59:15.390Z</time>
        <extensions>
        <gpxtpx:TrackPointExtension>
        <gpxtpx:Extensions>
            <surface>asphalt</surface>
        </gpxtpx:Extensions>
        </gpxtpx:TrackPointExtension>
        </extensions>
    </trkpt>
    <trkpt lat="45.833113" lon="15.213629">
        <ele>175.3</ele>
        <time>2023-05-08T14:59:21.554Z</time>
        <extensions>
        <gpxtpx:TrackPointExtension>
        <gpxtpx:Extensions>
            <surface>asphalt</surface>
        </gpxtpx:Extensions>
        </gpxtpx:TrackPointExtension>
        </extensions>
    </trkpt>
    <trkpt lat="45.833274" lon="15.212522">
        <ele>175.5</ele>
        <time>2023-05-08T14:59:42.581Z</time>
        <extensions>
        <gpxtpx:TrackPointExtension>
        <gpxtpx:Extensions>
            <surface>asphalt</surface>
        </gpxtpx:Extensions>
        </gpxtpx:TrackPointExtension>
        </extensions>
    </trkpt>
    <trkpt lat="45.833297" lon="15.212274">
        <ele>175.0</ele>
        <time>2023-05-08T14:59:47.232Z</time>
        <extensions>
        <gpxtpx:TrackPointExtension>
        <gpxtpx:Extensions>
            <surface>asphalt</surface>
        </gpxtpx:Extensions>
        </gpxtpx:TrackPointExtension>
        </extensions>
    </trkpt>
    <trkpt lat="45.833307" lon="15.21203">
        <ele>174.5</ele>
        <time>2023-05-08T14:59:51.776Z</time>
        <extensions>
        <gpxtpx:TrackPointExtension>
        <gpxtpx:Extensions>
            <surface>asphalt</surface>
        </gpxtpx:Extensions>
        </gpxtpx:TrackPointExtension>
        </extensions>
    </trkpt>
    <trkpt lat="45.833275" lon="15.211772">
        <ele>173.5</ele>
        <time>2023-05-08T14:59:56.648Z</time>
        <extensions>
        <gpxtpx:TrackPointExtension>
        <gpxtpx:Extensions>
            <surface>asphalt</surface>
        </gpxtpx:Extensions>
        </gpxtpx:TrackPointExtension>
        </extensions>
    </trkpt>
    <trkpt lat="45.833232" lon="15.211312">
        <ele>170.3</ele>
        <time>2023-05-08T15:00:05.277Z</time>
        <extensions>
        <gpxtpx:TrackPointExtension>
        <gpxtpx:Extensions>
            <surface>asphalt</surface>
        </gpxtpx:Extensions>
        </gpxtpx:TrackPointExtension>
        </extensions>
    </trkpt>
    <trkpt lat="45.833245" lon="15.2111">
        <ele>168.8</ele>
        <time>2023-05-08T15:00:09.234Z</time>
        <extensions>
        <gpxtpx:TrackPointExtension>
        <gpxtpx:Extensions>
            <surface>asphalt</surface>
        </gpxtpx:Extensions>
        </gpxtpx:TrackPointExtension>
        </extensions>
    </trkpt>
    <trkpt lat="45.833277" lon="15.210813">
        <ele>166.8</ele>
        <time>2023-05-08T15:00:14.638Z</time>
        <extensions>
        <gpxtpx:TrackPointExtension>
        <gpxtpx:Extensions>
            <surface>asphalt</surface>
        </gpxtpx:Extensions>
        </gpxtpx:TrackPointExtension>
        </extensions>
    </trkpt>
    <trkpt lat="45.833322" lon="15.210573">
        <ele>167.3</ele>
        <time>2023-05-08T15:00:19.259Z</time>
        <extensions>
        <gpxtpx:TrackPointExtension>
        <gpxtpx:Extensions>
            <surface>asphalt</surface>
        </gpxtpx:Extensions>
        </gpxtpx:TrackPointExtension>
        </extensions>
    </trkpt>
    <trkpt lat="45.833397" lon="15.210368">
        <ele>168.0</ele>
        <time>2023-05-08T15:00:23.564Z</time>
        <extensions>
        <gpxtpx:TrackPointExtension>
        <gpxtpx:Extensions>
            <surface>asphalt</surface>
        </gpxtpx:Extensions>
        </gpxtpx:TrackPointExtension>
        </extensions>
    </trkpt>
    <trkpt lat="45.833528" lon="15.210058">
        <ele>168.8</ele>
        <time>2023-05-08T15:00:30.305Z</time>
        <extensions>
        <gpxtpx:TrackPointExtension>
        <gpxtpx:Extensions>
            <surface>asphalt</surface>
        </gpxtpx:Extensions>
        </gpxtpx:TrackPointExtension>
        </extensions>
    </trkpt>
    <trkpt lat="45.833576" lon="15.209886">
        <ele>169.3</ele>
        <time>2023-05-08T15:00:33.750Z</time>
        <extensions>
        <gpxtpx:TrackPointExtension>
        <gpxtpx:Extensions>
            <surface>asphalt</surface>
        </gpxtpx:Extensions>
        </gpxtpx:TrackPointExtension>
        </extensions>
    </trkpt>
    <trkpt lat="45.833589" lon="15.209621">
        <ele>170.0</ele>
        <time>2023-05-08T15:00:38.689Z</time>
        <extensions>
        <gpxtpx:TrackPointExtension>
        <gpxtpx:Extensions>
            <surface>asphalt</surface>
        </gpxtpx:Extensions>
        </gpxtpx:TrackPointExtension>
        </extensions>
    </trkpt>
    <trkpt lat="45.833572" lon="15.20946">
        <ele>170.5</ele>
        <time>2023-05-08T15:00:41.716Z</time>
        <extensions>
        <gpxtpx:TrackPointExtension>
        <gpxtpx:Extensions>
            <surface>asphalt</surface>
        </gpxtpx:Extensions>
        </gpxtpx:TrackPointExtension>
        </extensions>
    </trkpt>
    <trkpt lat="45.833474" lon="15.209224">
        <ele>170.8</ele>
        <time>2023-05-08T15:00:46.824Z</time>
        <extensions>
        <gpxtpx:TrackPointExtension>
        <gpxtpx:Extensions>
            <surface>asphalt</surface>
        </gpxtpx:Extensions>
        </gpxtpx:TrackPointExtension>
        </extensions>
    </trkpt>
    <trkpt lat="45.833354" lon="15.209067">
        <ele>171.3</ele>
        <time>2023-05-08T15:00:51.157Z</time>
        <extensions>
        <gpxtpx:TrackPointExtension>
        <gpxtpx:Extensions>
            <surface>asphalt</surface>
        </gpxtpx:Extensions>
        </gpxtpx:TrackPointExtension>
        </extensions>
    </trkpt>
    <trkpt lat="45.833241" lon="15.209004">
        <ele>171.3</ele>
        <time>2023-05-08T15:00:54.392Z</time>
        <extensions>
        <gpxtpx:TrackPointExtension>
        <gpxtpx:Extensions>
            <surface>asphalt</surface>
        </gpxtpx:Extensions>
        </gpxtpx:TrackPointExtension>
        </extensions>
    </trkpt>
    <trkpt lat="45.833137" lon="15.208983">
        <ele>171.3</ele>
        <time>2023-05-08T15:00:57.194Z</time>
        <extensions>
        <gpxtpx:TrackPointExtension>
        <gpxtpx:Extensions>
            <surface>asphalt</surface>
        </gpxtpx:Extensions>
        </gpxtpx:TrackPointExtension>
        </extensions>
    </trkpt>
    <trkpt lat="45.83297" lon="15.209001">
        <ele>171.3</ele>
        <time>2023-05-08T15:01:01.663Z</time>
        <extensions>
        <gpxtpx:TrackPointExtension>
        <gpxtpx:Extensions>
            <surface>asphalt</surface>
        </gpxtpx:Extensions>
        </gpxtpx:TrackPointExtension>
        </extensions>
    </trkpt>
    <trkpt lat="45.832525" lon="15.209093">
        <ele>171.3</ele>
        <time>2023-05-08T15:01:13.661Z</time>
        <extensions>
        <gpxtpx:TrackPointExtension>
        <gpxtpx:Extensions>
            <surface>asphalt</surface>
        </gpxtpx:Extensions>
        </gpxtpx:TrackPointExtension>
        </extensions>
    </trkpt>
    <trkpt lat="45.832485" lon="15.209101">
        <ele>171.0</ele>
        <time>2023-05-08T15:01:14.738Z</time>
        <extensions>
        <gpxtpx:TrackPointExtension>
        <gpxtpx:Extensions>
            <surface>asphalt</surface>
        </gpxtpx:Extensions>
        </gpxtpx:TrackPointExtension>
        </extensions>
    </trkpt>
    <trkpt lat="45.832295" lon="15.209144">
        <ele>171.0</ele>
        <time>2023-05-08T15:01:19.871Z</time>
        <extensions>
        <gpxtpx:TrackPointExtension>
        <gpxtpx:Extensions>
            <surface>asphalt</surface>
        </gpxtpx:Extensions>
        </gpxtpx:TrackPointExtension>
        </extensions>
    </trkpt>
    <trkpt lat="45.832089" lon="15.209128">
        <ele>171.0</ele>
        <time>2023-05-08T15:01:25.376Z</time>
        <extensions>
        <gpxtpx:TrackPointExtension>
        <gpxtpx:Extensions>
            <surface>asphalt</surface>
        </gpxtpx:Extensions>
        </gpxtpx:TrackPointExtension>
        </extensions>
    </trkpt>
    <trkpt lat="45.831987" lon="15.2091">
        <ele>171.3</ele>
        <time>2023-05-08T15:01:28.147Z</time>
        <extensions>
        <gpxtpx:TrackPointExtension>
        <gpxtpx:Extensions>
            <surface>asphalt</surface>
        </gpxtpx:Extensions>
        </gpxtpx:TrackPointExtension>
        </extensions>
    </trkpt>
    <trkpt lat="45.831875" lon="15.20904">
        <ele>171.8</ele>
        <time>2023-05-08T15:01:31.337Z</time>
        <extensions>
        <gpxtpx:TrackPointExtension>
        <gpxtpx:Extensions>
            <surface>asphalt</surface>
        </gpxtpx:Extensions>
        </gpxtpx:TrackPointExtension>
        </extensions>
    </trkpt>
    <trkpt lat="45.831669" lon="15.20888">
        <ele>173.3</ele>
        <time>2023-05-08T15:01:37.587Z</time>
        <extensions>
        <gpxtpx:TrackPointExtension>
        <gpxtpx:Extensions>
            <surface>asphalt</surface>
        </gpxtpx:Extensions>
        </gpxtpx:TrackPointExtension>
        </extensions>
    </trkpt>
    <trkpt lat="45.831592" lon="15.208782">
        <ele>173.3</ele>
        <time>2023-05-08T15:01:40.333Z</time>
        <extensions>
        <gpxtpx:TrackPointExtension>
        <gpxtpx:Extensions>
            <surface>asphalt</surface>
        </gpxtpx:Extensions>
        </gpxtpx:TrackPointExtension>
        </extensions>
    </trkpt>
    <trkpt lat="45.831503" lon="15.208633">
        <ele>173.5</ele>
        <time>2023-05-08T15:01:43.982Z</time>
        <extensions>
        <gpxtpx:TrackPointExtension>
        <gpxtpx:Extensions>
            <surface>asphalt</surface>
        </gpxtpx:Extensions>
        </gpxtpx:TrackPointExtension>
        </extensions>
    </trkpt>
    <trkpt lat="45.831405" lon="15.208433">
        <ele>174.3</ele>
        <time>2023-05-08T15:01:48.528Z</time>
        <extensions>
        <gpxtpx:TrackPointExtension>
        <gpxtpx:Extensions>
            <surface>asphalt</surface>
        </gpxtpx:Extensions>
        </gpxtpx:TrackPointExtension>
        </extensions>
    </trkpt>
    <trkpt lat="45.831182" lon="15.207929">
        <ele>175.3</ele>
        <time>2023-05-08T15:01:59.629Z</time>
        <extensions>
        <gpxtpx:TrackPointExtension>
        <gpxtpx:Extensions>
            <surface>asphalt</surface>
        </gpxtpx:Extensions>
        </gpxtpx:TrackPointExtension>
        </extensions>
    </trkpt>
    <trkpt lat="45.830987" lon="15.207416">
        <ele>176.8</ele>
        <time>2023-05-08T15:02:10.495Z</time>
        <extensions>
        <gpxtpx:TrackPointExtension>
        <gpxtpx:Extensions>
            <surface>asphalt</surface>
        </gpxtpx:Extensions>
        </gpxtpx:TrackPointExtension>
        </extensions>
    </trkpt>
    <trkpt lat="45.830834" lon="15.206964">
        <ele>178.0</ele>
        <time>2023-05-08T15:02:19.839Z</time>
        <extensions>
        <gpxtpx:TrackPointExtension>
        <gpxtpx:Extensions>
            <surface>asphalt</surface>
        </gpxtpx:Extensions>
        </gpxtpx:TrackPointExtension>
        </extensions>
    </trkpt>
    <trkpt lat="45.830703" lon="15.20665">
        <ele>178.0</ele>
        <time>2023-05-08T15:02:26.644Z</time>
        <extensions>
        <gpxtpx:TrackPointExtension>
        <gpxtpx:Extensions>
            <surface>asphalt</surface>
        </gpxtpx:Extensions>
        </gpxtpx:TrackPointExtension>
        </extensions>
    </trkpt>
    <trkpt lat="45.830368" lon="15.205951">
        <ele>178.0</ele>
        <time>2023-05-08T15:02:42.419Z</time>
        <extensions>
        <gpxtpx:TrackPointExtension>
        <gpxtpx:Extensions>
            <surface>asphalt</surface>
        </gpxtpx:Extensions>
        </gpxtpx:TrackPointExtension>
        </extensions>
    </trkpt>
    <trkpt lat="45.829941" lon="15.205161">
        <ele>179.0</ele>
        <time>2023-05-08T15:03:01.010Z</time>
        <extensions>
        <gpxtpx:TrackPointExtension>
        <gpxtpx:Extensions>
            <surface>asphalt</surface>
        </gpxtpx:Extensions>
        </gpxtpx:TrackPointExtension>
        </extensions>
    </trkpt>
    <trkpt lat="45.82974" lon="15.20473">
        <ele>178.3</ele>
        <time>2023-05-08T15:03:10.653Z</time>
        <extensions>
        <gpxtpx:TrackPointExtension>
        <gpxtpx:Extensions>
            <surface>asphalt</surface>
        </gpxtpx:Extensions>
        </gpxtpx:TrackPointExtension>
        </extensions>
    </trkpt>
    <trkpt lat="45.829689" lon="15.204526">
        <ele>178.3</ele>
        <time>2023-05-08T15:03:14.683Z</time>
        <extensions>
        <gpxtpx:TrackPointExtension>
        <gpxtpx:Extensions>
            <surface>asphalt</surface>
        </gpxtpx:Extensions>
        </gpxtpx:TrackPointExtension>
        </extensions>
    </trkpt>
    <trkpt lat="45.829666" lon="15.204377">
        <ele>178.5</ele>
        <time>2023-05-08T15:03:17.520Z</time>
        <extensions>
        <gpxtpx:TrackPointExtension>
        <gpxtpx:Extensions>
            <surface>asphalt</surface>
        </gpxtpx:Extensions>
        </gpxtpx:TrackPointExtension>
        </extensions>
    </trkpt>
    <trkpt lat="45.829653" lon="15.204294">
        <ele>178.8</ele>
        <time>2023-05-08T15:03:19.101Z</time>
        <extensions>
        <gpxtpx:TrackPointExtension>
        <gpxtpx:Extensions>
            <surface>asphalt</surface>
        </gpxtpx:Extensions>
        </gpxtpx:TrackPointExtension>
        </extensions>
    </trkpt>
    <trkpt lat="45.829647" lon="15.204017">
        <ele>179.0</ele>
        <time>2023-05-08T15:03:24.254Z</time>
        <extensions>
        <gpxtpx:TrackPointExtension>
        <gpxtpx:Extensions>
            <surface>asphalt</surface>
        </gpxtpx:Extensions>
        </gpxtpx:TrackPointExtension>
        </extensions>
    </trkpt>
    <trkpt lat="45.82966" lon="15.203476">
        <ele>179.3</ele>
        <time>2023-05-08T15:03:34.319Z</time>
        <extensions>
        <gpxtpx:TrackPointExtension>
        <gpxtpx:Extensions>
            <surface>asphalt</surface>
        </gpxtpx:Extensions>
        </gpxtpx:TrackPointExtension>
        </extensions>
    </trkpt>
    <trkpt lat="45.829839" lon="15.200947">
        <ele>182.3</ele>
        <time>2023-05-08T15:04:21.588Z</time>
        <extensions>
        <gpxtpx:TrackPointExtension>
        <gpxtpx:Extensions>
            <surface>asphalt</surface>
        </gpxtpx:Extensions>
        </gpxtpx:TrackPointExtension>
        </extensions>
    </trkpt>
    <trkpt lat="45.829859" lon="15.200669">
        <ele>182.3</ele>
        <time>2023-05-08T15:04:26.784Z</time>
        <extensions>
        <gpxtpx:TrackPointExtension>
        <gpxtpx:Extensions>
            <surface>asphalt</surface>
        </gpxtpx:Extensions>
        </gpxtpx:TrackPointExtension>
        </extensions>
    </trkpt>
    <trkpt lat="45.82986" lon="15.200666">
        <ele>182.5</ele>
        <time>2023-05-08T15:04:26.845Z</time>
        <extensions>
        <gpxtpx:TrackPointExtension>
        <gpxtpx:Extensions>
            <surface>asphalt</surface>
        </gpxtpx:Extensions>
        </gpxtpx:TrackPointExtension>
        </extensions>
    </trkpt>
    <trkpt lat="45.829884" lon="15.200496">
        <ele>182.8</ele>
        <time>2023-05-08T15:04:30.070Z</time>
        <extensions>
        <gpxtpx:TrackPointExtension>
        <gpxtpx:Extensions>
            <surface>asphalt</surface>
        </gpxtpx:Extensions>
        </gpxtpx:TrackPointExtension>
        </extensions>
    </trkpt>
    <trkpt lat="45.829939" lon="15.200341">
        <ele>183.0</ele>
        <time>2023-05-08T15:04:33.304Z</time>
        <extensions>
        <gpxtpx:TrackPointExtension>
        <gpxtpx:Extensions>
            <surface>asphalt</surface>
        </gpxtpx:Extensions>
        </gpxtpx:TrackPointExtension>
        </extensions>
    </trkpt>
    <trkpt lat="45.829963" lon="15.20027">
        <ele>183.3</ele>
        <time>2023-05-08T15:04:34.771Z</time>
        <extensions>
        <gpxtpx:TrackPointExtension>
        <gpxtpx:Extensions>
            <surface>asphalt</surface>
        </gpxtpx:Extensions>
        </gpxtpx:TrackPointExtension>
        </extensions>
    </trkpt>
    <trkpt lat="45.829726" lon="15.200089">
        <ele>183.8</ele>
        <time>2023-05-08T15:04:41.935Z</time>
        <extensions>
        <gpxtpx:TrackPointExtension>
        <gpxtpx:Extensions>
            <surface>asphalt</surface>
        </gpxtpx:Extensions>
        </gpxtpx:TrackPointExtension>
        </extensions>
    </trkpt>
    <trkpt lat="45.829364" lon="15.199773">
        <ele>184.0</ele>
        <time>2023-05-08T15:04:53.242Z</time>
        <extensions>
        <gpxtpx:TrackPointExtension>
        <gpxtpx:Extensions>
            <surface>asphalt</surface>
        </gpxtpx:Extensions>
        </gpxtpx:TrackPointExtension>
        </extensions>
    </trkpt>
    <trkpt lat="45.829118" lon="15.199475">
        <ele>184.0</ele>
        <time>2023-05-08T15:05:01.833Z</time>
        <extensions>
        <gpxtpx:TrackPointExtension>
        <gpxtpx:Extensions>
            <surface>asphalt</surface>
        </gpxtpx:Extensions>
        </gpxtpx:TrackPointExtension>
        </extensions>
    </trkpt>
    <trkpt lat="45.828919" lon="15.199209">
        <ele>184.8</ele>
        <time>2023-05-08T15:05:09.090Z</time>
        <extensions>
        <gpxtpx:TrackPointExtension>
        <gpxtpx:Extensions>
            <surface>asphalt</surface>
        </gpxtpx:Extensions>
        </gpxtpx:TrackPointExtension>
        </extensions>
    </trkpt>
    <trkpt lat="45.82871" lon="15.198864">
        <ele>185.0</ele>
        <time>2023-05-08T15:05:17.590Z</time>
        <extensions>
        <gpxtpx:TrackPointExtension>
        <gpxtpx:Extensions>
            <surface>asphalt</surface>
        </gpxtpx:Extensions>
        </gpxtpx:TrackPointExtension>
        </extensions>
    </trkpt>
    <trkpt lat="45.828534" lon="15.198475">
        <ele>185.0</ele>
        <time>2023-05-08T15:05:26.214Z</time>
        <extensions>
        <gpxtpx:TrackPointExtension>
        <gpxtpx:Extensions>
            <surface>asphalt</surface>
        </gpxtpx:Extensions>
        </gpxtpx:TrackPointExtension>
        </extensions>
    </trkpt>
    <trkpt lat="45.828371" lon="15.198054">
        <ele>184.5</ele>
        <time>2023-05-08T15:05:35.170Z</time>
        <extensions>
        <gpxtpx:TrackPointExtension>
        <gpxtpx:Extensions>
            <surface>asphalt</surface>
        </gpxtpx:Extensions>
        </gpxtpx:TrackPointExtension>
        </extensions>
    </trkpt>
    <trkpt lat="45.827906" lon="15.196686">
        <ele>185.3</ele>
        <time>2023-05-08T15:06:03.474Z</time>
        <extensions>
        <gpxtpx:TrackPointExtension>
        <gpxtpx:Extensions>
            <surface>asphalt</surface>
        </gpxtpx:Extensions>
        </gpxtpx:TrackPointExtension>
        </extensions>
    </trkpt>
    <trkpt lat="45.82762" lon="15.195787">
        <ele>183.5</ele>
        <time>2023-05-08T15:06:21.851Z</time>
        <extensions>
        <gpxtpx:TrackPointExtension>
        <gpxtpx:Extensions>
            <surface>asphalt</surface>
        </gpxtpx:Extensions>
        </gpxtpx:TrackPointExtension>
        </extensions>
    </trkpt>
    <trkpt lat="45.82733" lon="15.194682">
        <ele>188.8</ele>
        <time>2023-05-08T15:06:43.808Z</time>
        <extensions>
        <gpxtpx:TrackPointExtension>
        <gpxtpx:Extensions>
            <surface>asphalt</surface>
        </gpxtpx:Extensions>
        </gpxtpx:TrackPointExtension>
        </extensions>
    </trkpt>
    <trkpt lat="45.827163" lon="15.19371">
        <ele>192.0</ele>
        <time>2023-05-08T15:07:02.424Z</time>
        <extensions>
        <gpxtpx:TrackPointExtension>
        <gpxtpx:Extensions>
            <surface>asphalt</surface>
        </gpxtpx:Extensions>
        </gpxtpx:TrackPointExtension>
        </extensions>
    </trkpt>
    <trkpt lat="45.827109" lon="15.19325">
        <ele>193.3</ele>
        <time>2023-05-08T15:07:11.098Z</time>
        <extensions>
        <gpxtpx:TrackPointExtension>
        <gpxtpx:Extensions>
            <surface>asphalt</surface>
        </gpxtpx:Extensions>
        </gpxtpx:TrackPointExtension>
        </extensions>
    </trkpt>
    <trkpt lat="45.82699" lon="15.190827">
        <ele>180.5</ele>
        <time>2023-05-08T15:07:56.268Z</time>
        <extensions>
        <gpxtpx:TrackPointExtension>
        <gpxtpx:Extensions>
            <surface>asphalt</surface>
        </gpxtpx:Extensions>
        </gpxtpx:TrackPointExtension>
        </extensions>
    </trkpt>
    <trkpt lat="45.826957" lon="15.190505">
        <ele>180.8</ele>
        <time>2023-05-08T15:08:02.320Z</time>
        <extensions>
        <gpxtpx:TrackPointExtension>
        <gpxtpx:Extensions>
            <surface>asphalt</surface>
        </gpxtpx:Extensions>
        </gpxtpx:TrackPointExtension>
        </extensions>
    </trkpt>
    <trkpt lat="45.826945" lon="15.190388">
        <ele>180.8</ele>
        <time>2023-05-08T15:08:04.519Z</time>
        <extensions>
        <gpxtpx:TrackPointExtension>
        <gpxtpx:Extensions>
            <surface>asphalt</surface>
        </gpxtpx:Extensions>
        </gpxtpx:TrackPointExtension>
        </extensions>
    </trkpt>
    <trkpt lat="45.826991" lon="15.190364">
        <ele>181.0</ele>
        <time>2023-05-08T15:08:05.825Z</time>
        <extensions>
        <gpxtpx:TrackPointExtension>
        <gpxtpx:Extensions>
            <surface>asphalt</surface>
        </gpxtpx:Extensions>
        </gpxtpx:TrackPointExtension>
        </extensions>
    </trkpt>
    <trkpt lat="45.827024" lon="15.190331">
        <ele>181.0</ele>
        <time>2023-05-08T15:08:06.898Z</time>
        <extensions>
        <gpxtpx:TrackPointExtension>
        <gpxtpx:Extensions>
            <surface>asphalt</surface>
        </gpxtpx:Extensions>
        </gpxtpx:TrackPointExtension>
        </extensions>
    </trkpt>
    <trkpt lat="45.82705" lon="15.190286">
        <ele>181.0</ele>
        <time>2023-05-08T15:08:07.985Z</time>
        <extensions>
        <gpxtpx:TrackPointExtension>
        <gpxtpx:Extensions>
            <surface>asphalt</surface>
        </gpxtpx:Extensions>
        </gpxtpx:TrackPointExtension>
        </extensions>
    </trkpt>
    <trkpt lat="45.827069" lon="15.190234">
        <ele>181.3</ele>
        <time>2023-05-08T15:08:09.076Z</time>
        <extensions>
        <gpxtpx:TrackPointExtension>
        <gpxtpx:Extensions>
            <surface>asphalt</surface>
        </gpxtpx:Extensions>
        </gpxtpx:TrackPointExtension>
        </extensions>
    </trkpt>
    <trkpt lat="45.827076" lon="15.19016">
        <ele>181.3</ele>
        <time>2023-05-08T15:08:10.464Z</time>
        <extensions>
        <gpxtpx:TrackPointExtension>
        <gpxtpx:Extensions>
            <surface>asphalt</surface>
        </gpxtpx:Extensions>
        </gpxtpx:TrackPointExtension>
        </extensions>
    </trkpt>
    <trkpt lat="45.827173" lon="15.190174">
        <ele>181.5</ele>
        <time>2023-05-08T15:08:13.065Z</time>
        <extensions>
        <gpxtpx:TrackPointExtension>
        <gpxtpx:Extensions>
            <surface>asphalt</surface>
        </gpxtpx:Extensions>
        </gpxtpx:TrackPointExtension>
        </extensions>
    </trkpt>
    <trkpt lat="45.827682" lon="15.190372">
        <ele>182.8</ele>
        <time>2023-05-08T15:08:27.138Z</time>
        <extensions>
        <gpxtpx:TrackPointExtension>
        <gpxtpx:Extensions>
            <surface>asphalt</surface>
        </gpxtpx:Extensions>
        </gpxtpx:TrackPointExtension>
        </extensions>
    </trkpt>
    <trkpt lat="45.827846" lon="15.190391">
        <ele>183.3</ele>
        <time>2023-05-08T15:08:31.528Z</time>
        <extensions>
        <gpxtpx:TrackPointExtension>
        <gpxtpx:Extensions>
            <surface>asphalt</surface>
        </gpxtpx:Extensions>
        </gpxtpx:TrackPointExtension>
        </extensions>
    </trkpt>
    <trkpt lat="45.82794" lon="15.190393">
        <ele>183.5</ele>
        <time>2023-05-08T15:08:34.036Z</time>
        <extensions>
        <gpxtpx:TrackPointExtension>
        <gpxtpx:Extensions>
            <surface>asphalt</surface>
        </gpxtpx:Extensions>
        </gpxtpx:TrackPointExtension>
        </extensions>
    </trkpt>
    <trkpt lat="45.828037" lon="15.190366">
        <ele>183.5</ele>
        <time>2023-05-08T15:08:36.672Z</time>
        <extensions>
        <gpxtpx:TrackPointExtension>
        <gpxtpx:Extensions>
            <surface>asphalt</surface>
        </gpxtpx:Extensions>
        </gpxtpx:TrackPointExtension>
        </extensions>
    </trkpt>
    <trkpt lat="45.828242" lon="15.190293">
        <ele>183.3</ele>
        <time>2023-05-08T15:08:42.308Z</time>
        <extensions>
        <gpxtpx:TrackPointExtension>
        <gpxtpx:Extensions>
            <surface>asphalt</surface>
        </gpxtpx:Extensions>
        </gpxtpx:TrackPointExtension>
        </extensions>
    </trkpt>
    <trkpt lat="45.828893" lon="15.189964">
        <ele>183.8</ele>
        <time>2023-05-08T15:09:00.726Z</time>
        <extensions>
        <gpxtpx:TrackPointExtension>
        <gpxtpx:Extensions>
            <surface>asphalt</surface>
        </gpxtpx:Extensions>
        </gpxtpx:TrackPointExtension>
        </extensions>
    </trkpt>
    <trkpt lat="45.829387" lon="15.189701">
        <ele>185.0</ele>
        <time>2023-05-08T15:09:14.787Z</time>
        <extensions>
        <gpxtpx:TrackPointExtension>
        <gpxtpx:Extensions>
            <surface>asphalt</surface>
        </gpxtpx:Extensions>
        </gpxtpx:TrackPointExtension>
        </extensions>
    </trkpt>
    <trkpt lat="45.829965" lon="15.18946">
        <ele>186.3</ele>
        <time>2023-05-08T15:09:30.849Z</time>
        <extensions>
        <gpxtpx:TrackPointExtension>
        <gpxtpx:Extensions>
            <surface>asphalt</surface>
        </gpxtpx:Extensions>
        </gpxtpx:TrackPointExtension>
        </extensions>
    </trkpt>
    <trkpt lat="45.830008" lon="15.189425">
        <ele>186.3</ele>
        <time>2023-05-08T15:09:32.168Z</time>
        <extensions>
        <gpxtpx:TrackPointExtension>
        <gpxtpx:Extensions>
            <surface>asphalt</surface>
        </gpxtpx:Extensions>
        </gpxtpx:TrackPointExtension>
        </extensions>
    </trkpt>
    <trkpt lat="45.830373" lon="15.18924">
        <ele>185.8</ele>
        <time>2023-05-08T15:09:42.498Z</time>
        <extensions>
        <gpxtpx:TrackPointExtension>
        <gpxtpx:Extensions>
            <surface>asphalt</surface>
        </gpxtpx:Extensions>
        </gpxtpx:TrackPointExtension>
        </extensions>
    </trkpt>
    <trkpt lat="45.830665" lon="15.189115">
        <ele>185.5</ele>
        <time>2023-05-08T15:09:50.629Z</time>
        <extensions>
        <gpxtpx:TrackPointExtension>
        <gpxtpx:Extensions>
            <surface>asphalt</surface>
        </gpxtpx:Extensions>
        </gpxtpx:TrackPointExtension>
        </extensions>
    </trkpt>
    <trkpt lat="45.830856" lon="15.189036">
        <ele>186.0</ele>
        <time>2023-05-08T15:09:55.933Z</time>
        <extensions>
        <gpxtpx:TrackPointExtension>
        <gpxtpx:Extensions>
            <surface>asphalt</surface>
        </gpxtpx:Extensions>
        </gpxtpx:TrackPointExtension>
        </extensions>
    </trkpt>
    <trkpt lat="45.831044" lon="15.188995">
        <ele>187.8</ele>
        <time>2023-05-08T15:10:01.007Z</time>
        <extensions>
        <gpxtpx:TrackPointExtension>
        <gpxtpx:Extensions>
            <surface>asphalt</surface>
        </gpxtpx:Extensions>
        </gpxtpx:TrackPointExtension>
        </extensions>
    </trkpt>
    <trkpt lat="45.831222" lon="15.188995">
        <ele>189.3</ele>
        <time>2023-05-08T15:10:05.757Z</time>
        <extensions>
        <gpxtpx:TrackPointExtension>
        <gpxtpx:Extensions>
            <surface>asphalt</surface>
        </gpxtpx:Extensions>
        </gpxtpx:TrackPointExtension>
        </extensions>
    </trkpt>
    <trkpt lat="45.831401" lon="15.189021">
        <ele>191.0</ele>
        <time>2023-05-08T15:10:10.558Z</time>
        <extensions>
        <gpxtpx:TrackPointExtension>
        <gpxtpx:Extensions>
            <surface>asphalt</surface>
        </gpxtpx:Extensions>
        </gpxtpx:TrackPointExtension>
        </extensions>
    </trkpt>
    <trkpt lat="45.831746" lon="15.189101">
        <ele>194.8</ele>
        <time>2023-05-08T15:10:19.884Z</time>
        <extensions>
        <gpxtpx:TrackPointExtension>
        <gpxtpx:Extensions>
            <surface>asphalt</surface>
        </gpxtpx:Extensions>
        </gpxtpx:TrackPointExtension>
        </extensions>
    </trkpt>
    <trkpt lat="45.832013" lon="15.189126">
        <ele>198.8</ele>
        <time>2023-05-08T15:10:27.024Z</time>
        <extensions>
        <gpxtpx:TrackPointExtension>
        <gpxtpx:Extensions>
            <surface>asphalt</surface>
        </gpxtpx:Extensions>
        </gpxtpx:TrackPointExtension>
        </extensions>
    </trkpt>
    <trkpt lat="45.832084" lon="15.189101">
        <ele>199.8</ele>
        <time>2023-05-08T15:10:28.974Z</time>
        <extensions>
        <gpxtpx:TrackPointExtension>
        <gpxtpx:Extensions>
            <surface>asphalt</surface>
        </gpxtpx:Extensions>
        </gpxtpx:TrackPointExtension>
        </extensions>
    </trkpt>
    <trkpt lat="45.832163" lon="15.189072">
        <ele>200.8</ele>
        <time>2023-05-08T15:10:31.150Z</time>
        <extensions>
        <gpxtpx:TrackPointExtension>
        <gpxtpx:Extensions>
            <surface>asphalt</surface>
        </gpxtpx:Extensions>
        </gpxtpx:TrackPointExtension>
        </extensions>
    </trkpt>
    <trkpt lat="45.832519" lon="15.188909">
        <ele>205.0</ele>
        <time>2023-05-08T15:10:41.122Z</time>
        <extensions>
        <gpxtpx:TrackPointExtension>
        <gpxtpx:Extensions>
            <surface>asphalt</surface>
        </gpxtpx:Extensions>
        </gpxtpx:TrackPointExtension>
        </extensions>
    </trkpt>
    <trkpt lat="45.832538" lon="15.189026">
        <ele>205.5</ele>
        <time>2023-05-08T15:10:43.355Z</time>
    </trkpt>
    <trkpt lat="45.832632" lon="15.188973">
        <ele>206.0</ele>
        <time>2023-05-08T15:10:46.050Z</time>
    </trkpt>
    <trkpt lat="45.832749" lon="15.188938">
        <ele>206.5</ele>
        <time>2023-05-08T15:10:49.239Z</time>
    </trkpt>
    <trkpt lat="45.832865" lon="15.188943">
        <ele>207.3</ele>
        <time>2023-05-08T15:10:52.336Z</time>
    </trkpt>
    <trkpt lat="45.832968" lon="15.189002">
        <ele>208.0</ele>
        <time>2023-05-08T15:10:55.295Z</time>
    </trkpt>
    <trkpt lat="45.833064" lon="15.18912">
        <ele>208.5</ele>
        <time>2023-05-08T15:10:58.668Z</time>
    </trkpt>
    <trkpt lat="45.833437" lon="15.189809">
        <ele>212.0</ele>
        <time>2023-05-08T15:11:14.891Z</time>
    </trkpt>
    <trkpt lat="45.833064" lon="15.18912">
        <ele>208.5</ele>
        <time>2023-05-08T15:11:31.114Z</time>
    </trkpt>
    <trkpt lat="45.832968" lon="15.189002">
        <ele>208.0</ele>
        <time>2023-05-08T15:11:34.487Z</time>
    </trkpt>
    <trkpt lat="45.832865" lon="15.188943">
        <ele>207.3</ele>
        <time>2023-05-08T15:11:37.446Z</time>
    </trkpt>
    <trkpt lat="45.832749" lon="15.188938">
        <ele>206.5</ele>
        <time>2023-05-08T15:11:40.543Z</time>
    </trkpt>
    <trkpt lat="45.832632" lon="15.188973">
        <ele>206.0</ele>
        <time>2023-05-08T15:11:43.732Z</time>
    </trkpt>
    <trkpt lat="45.832538" lon="15.189026">
        <ele>205.5</ele>
        <time>2023-05-08T15:11:46.427Z</time>
    </trkpt>
    <trkpt lat="45.832519" lon="15.188909">
        <ele>205.0</ele>
        <time>2023-05-08T15:11:48.660Z</time>
    </trkpt>
    <trkpt lat="45.832163" lon="15.189072">
        <ele>200.8</ele>
        <time>2023-05-08T15:11:58.632Z</time>
        <extensions>
        <gpxtpx:TrackPointExtension>
        <gpxtpx:Extensions>
            <surface>asphalt</surface>
        </gpxtpx:Extensions>
        </gpxtpx:TrackPointExtension>
        </extensions>
    </trkpt>
    <trkpt lat="45.832084" lon="15.189101">
        <ele>199.8</ele>
        <time>2023-05-08T15:12:00.808Z</time>
        <extensions>
        <gpxtpx:TrackPointExtension>
        <gpxtpx:Extensions>
            <surface>asphalt</surface>
        </gpxtpx:Extensions>
        </gpxtpx:TrackPointExtension>
        </extensions>
    </trkpt>
    <trkpt lat="45.832013" lon="15.189126">
        <ele>198.8</ele>
        <time>2023-05-08T15:12:02.758Z</time>
        <extensions>
        <gpxtpx:TrackPointExtension>
        <gpxtpx:Extensions>
            <surface>asphalt</surface>
        </gpxtpx:Extensions>
        </gpxtpx:TrackPointExtension>
        </extensions>
    </trkpt>
    <trkpt lat="45.831746" lon="15.189101">
        <ele>194.8</ele>
        <time>2023-05-08T15:12:09.898Z</time>
        <extensions>
        <gpxtpx:TrackPointExtension>
        <gpxtpx:Extensions>
            <surface>asphalt</surface>
        </gpxtpx:Extensions>
        </gpxtpx:TrackPointExtension>
        </extensions>
    </trkpt>
    <trkpt lat="45.831401" lon="15.189021">
        <ele>191.0</ele>
        <time>2023-05-08T15:12:19.224Z</time>
        <extensions>
        <gpxtpx:TrackPointExtension>
        <gpxtpx:Extensions>
            <surface>asphalt</surface>
        </gpxtpx:Extensions>
        </gpxtpx:TrackPointExtension>
        </extensions>
    </trkpt>
    <trkpt lat="45.831222" lon="15.188995">
        <ele>189.3</ele>
        <time>2023-05-08T15:12:24.025Z</time>
        <extensions>
        <gpxtpx:TrackPointExtension>
        <gpxtpx:Extensions>
            <surface>asphalt</surface>
        </gpxtpx:Extensions>
        </gpxtpx:TrackPointExtension>
        </extensions>
    </trkpt>
    <trkpt lat="45.831044" lon="15.188995">
        <ele>187.8</ele>
        <time>2023-05-08T15:12:28.775Z</time>
        <extensions>
        <gpxtpx:TrackPointExtension>
        <gpxtpx:Extensions>
            <surface>asphalt</surface>
        </gpxtpx:Extensions>
        </gpxtpx:TrackPointExtension>
        </extensions>
    </trkpt>
    <trkpt lat="45.830856" lon="15.189036">
        <ele>186.0</ele>
        <time>2023-05-08T15:12:33.849Z</time>
        <extensions>
        <gpxtpx:TrackPointExtension>
        <gpxtpx:Extensions>
            <surface>asphalt</surface>
        </gpxtpx:Extensions>
        </gpxtpx:TrackPointExtension>
        </extensions>
    </trkpt>
    <trkpt lat="45.830665" lon="15.189115">
        <ele>185.5</ele>
        <time>2023-05-08T15:12:39.153Z</time>
        <extensions>
        <gpxtpx:TrackPointExtension>
        <gpxtpx:Extensions>
            <surface>asphalt</surface>
        </gpxtpx:Extensions>
        </gpxtpx:TrackPointExtension>
        </extensions>
    </trkpt>
    <trkpt lat="45.830373" lon="15.18924">
        <ele>185.8</ele>
        <time>2023-05-08T15:12:47.284Z</time>
        <extensions>
        <gpxtpx:TrackPointExtension>
        <gpxtpx:Extensions>
            <surface>asphalt</surface>
        </gpxtpx:Extensions>
        </gpxtpx:TrackPointExtension>
        </extensions>
    </trkpt>
    <trkpt lat="45.830008" lon="15.189425">
        <ele>186.3</ele>
        <time>2023-05-08T15:12:57.614Z</time>
        <extensions>
        <gpxtpx:TrackPointExtension>
        <gpxtpx:Extensions>
            <surface>asphalt</surface>
        </gpxtpx:Extensions>
        </gpxtpx:TrackPointExtension>
        </extensions>
    </trkpt>
    <trkpt lat="45.829965" lon="15.18946">
        <ele>186.3</ele>
        <time>2023-05-08T15:12:58.933Z</time>
        <extensions>
        <gpxtpx:TrackPointExtension>
        <gpxtpx:Extensions>
            <surface>asphalt</surface>
        </gpxtpx:Extensions>
        </gpxtpx:TrackPointExtension>
        </extensions>
    </trkpt>
    <trkpt lat="45.829387" lon="15.189701">
        <ele>185.0</ele>
        <time>2023-05-08T15:13:14.995Z</time>
        <extensions>
        <gpxtpx:TrackPointExtension>
        <gpxtpx:Extensions>
            <surface>asphalt</surface>
        </gpxtpx:Extensions>
        </gpxtpx:TrackPointExtension>
        </extensions>
    </trkpt>
    <trkpt lat="45.828893" lon="15.189964">
        <ele>183.8</ele>
        <time>2023-05-08T15:13:29.056Z</time>
        <extensions>
        <gpxtpx:TrackPointExtension>
        <gpxtpx:Extensions>
            <surface>asphalt</surface>
        </gpxtpx:Extensions>
        </gpxtpx:TrackPointExtension>
        </extensions>
    </trkpt>
    <trkpt lat="45.828242" lon="15.190293">
        <ele>183.3</ele>
        <time>2023-05-08T15:13:47.474Z</time>
        <extensions>
        <gpxtpx:TrackPointExtension>
        <gpxtpx:Extensions>
            <surface>asphalt</surface>
        </gpxtpx:Extensions>
        </gpxtpx:TrackPointExtension>
        </extensions>
    </trkpt>
    <trkpt lat="45.828037" lon="15.190366">
        <ele>183.5</ele>
        <time>2023-05-08T15:13:53.110Z</time>
        <extensions>
        <gpxtpx:TrackPointExtension>
        <gpxtpx:Extensions>
            <surface>asphalt</surface>
        </gpxtpx:Extensions>
        </gpxtpx:TrackPointExtension>
        </extensions>
    </trkpt>
    <trkpt lat="45.82794" lon="15.190393">
        <ele>183.5</ele>
        <time>2023-05-08T15:13:55.746Z</time>
        <extensions>
        <gpxtpx:TrackPointExtension>
        <gpxtpx:Extensions>
            <surface>asphalt</surface>
        </gpxtpx:Extensions>
        </gpxtpx:TrackPointExtension>
        </extensions>
    </trkpt>
    <trkpt lat="45.827846" lon="15.190391">
        <ele>183.3</ele>
        <time>2023-05-08T15:13:58.254Z</time>
        <extensions>
        <gpxtpx:TrackPointExtension>
        <gpxtpx:Extensions>
            <surface>asphalt</surface>
        </gpxtpx:Extensions>
        </gpxtpx:TrackPointExtension>
        </extensions>
    </trkpt>
    <trkpt lat="45.827682" lon="15.190372">
        <ele>182.8</ele>
        <time>2023-05-08T15:14:02.644Z</time>
        <extensions>
        <gpxtpx:TrackPointExtension>
        <gpxtpx:Extensions>
            <surface>asphalt</surface>
        </gpxtpx:Extensions>
        </gpxtpx:TrackPointExtension>
        </extensions>
    </trkpt>
    <trkpt lat="45.827173" lon="15.190174">
        <ele>181.5</ele>
        <time>2023-05-08T15:14:16.717Z</time>
        <extensions>
        <gpxtpx:TrackPointExtension>
        <gpxtpx:Extensions>
            <surface>asphalt</surface>
        </gpxtpx:Extensions>
        </gpxtpx:TrackPointExtension>
        </extensions>
    </trkpt>
    <trkpt lat="45.827076" lon="15.19016">
        <ele>181.3</ele>
        <time>2023-05-08T15:14:19.318Z</time>
        <extensions>
        <gpxtpx:TrackPointExtension>
        <gpxtpx:Extensions>
            <surface>asphalt</surface>
        </gpxtpx:Extensions>
        </gpxtpx:TrackPointExtension>
        </extensions>
    </trkpt>
    <trkpt lat="45.827074" lon="15.190102">
        <ele>181.3</ele>
        <time>2023-05-08T15:14:20.397Z</time>
        <extensions>
        <gpxtpx:TrackPointExtension>
        <gpxtpx:Extensions>
            <surface>asphalt</surface>
        </gpxtpx:Extensions>
        </gpxtpx:TrackPointExtension>
        </extensions>
    </trkpt>
    <trkpt lat="45.827054" lon="15.190032">
        <ele>181.3</ele>
        <time>2023-05-08T15:14:21.803Z</time>
        <extensions>
        <gpxtpx:TrackPointExtension>
        <gpxtpx:Extensions>
            <surface>asphalt</surface>
        </gpxtpx:Extensions>
        </gpxtpx:TrackPointExtension>
        </extensions>
    </trkpt>
    <trkpt lat="45.82702" lon="15.189974">
        <ele>181.5</ele>
        <time>2023-05-08T15:14:23.212Z</time>
        <extensions>
        <gpxtpx:TrackPointExtension>
        <gpxtpx:Extensions>
            <surface>asphalt</surface>
        </gpxtpx:Extensions>
        </gpxtpx:TrackPointExtension>
        </extensions>
    </trkpt>
    <trkpt lat="45.826975" lon="15.189935">
        <ele>181.5</ele>
        <time>2023-05-08T15:14:24.614Z</time>
        <extensions>
        <gpxtpx:TrackPointExtension>
        <gpxtpx:Extensions>
            <surface>asphalt</surface>
        </gpxtpx:Extensions>
        </gpxtpx:TrackPointExtension>
        </extensions>
    </trkpt>
    <trkpt lat="45.826923" lon="15.189918">
        <ele>181.5</ele>
        <time>2023-05-08T15:14:26.037Z</time>
        <extensions>
        <gpxtpx:TrackPointExtension>
        <gpxtpx:Extensions>
            <surface>asphalt</surface>
        </gpxtpx:Extensions>
        </gpxtpx:TrackPointExtension>
        </extensions>
    </trkpt>
    <trkpt lat="45.82687" lon="15.189929">
        <ele>181.5</ele>
        <time>2023-05-08T15:14:27.466Z</time>
        <extensions>
        <gpxtpx:TrackPointExtension>
        <gpxtpx:Extensions>
            <surface>asphalt</surface>
        </gpxtpx:Extensions>
        </gpxtpx:TrackPointExtension>
        </extensions>
    </trkpt>
    <trkpt lat="45.826828" lon="15.18995">
        <ele>181.3</ele>
        <time>2023-05-08T15:14:28.652Z</time>
        <extensions>
        <gpxtpx:TrackPointExtension>
        <gpxtpx:Extensions>
            <surface>asphalt</surface>
        </gpxtpx:Extensions>
        </gpxtpx:TrackPointExtension>
        </extensions>
    </trkpt>
    <trkpt lat="45.826791" lon="15.189992">
        <ele>181.0</ele>
        <time>2023-05-08T15:14:29.910Z</time>
        <extensions>
        <gpxtpx:TrackPointExtension>
        <gpxtpx:Extensions>
            <surface>asphalt</surface>
        </gpxtpx:Extensions>
        </gpxtpx:TrackPointExtension>
        </extensions>
    </trkpt>
    <trkpt lat="45.826764" lon="15.190047">
        <ele>181.0</ele>
        <time>2023-05-08T15:14:31.161Z</time>
        <extensions>
        <gpxtpx:TrackPointExtension>
        <gpxtpx:Extensions>
            <surface>asphalt</surface>
        </gpxtpx:Extensions>
        </gpxtpx:TrackPointExtension>
        </extensions>
    </trkpt>
    <trkpt lat="45.826749" lon="15.19011">
        <ele>180.8</ele>
        <time>2023-05-08T15:14:32.399Z</time>
        <extensions>
        <gpxtpx:TrackPointExtension>
        <gpxtpx:Extensions>
            <surface>asphalt</surface>
        </gpxtpx:Extensions>
        </gpxtpx:TrackPointExtension>
        </extensions>
    </trkpt>
    <trkpt lat="45.82675" lon="15.19018">
        <ele>180.5</ele>
        <time>2023-05-08T15:14:33.701Z</time>
        <extensions>
        <gpxtpx:TrackPointExtension>
        <gpxtpx:Extensions>
            <surface>asphalt</surface>
        </gpxtpx:Extensions>
        </gpxtpx:TrackPointExtension>
        </extensions>
    </trkpt>
    <trkpt lat="45.826675" lon="15.190188">
        <ele>180.5</ele>
        <time>2023-05-08T15:14:35.708Z</time>
        <extensions>
        <gpxtpx:TrackPointExtension>
        <gpxtpx:Extensions>
            <surface>asphalt</surface>
        </gpxtpx:Extensions>
        </gpxtpx:TrackPointExtension>
        </extensions>
    </trkpt>
    <trkpt lat="45.826668" lon="15.190122">
        <ele>180.5</ele>
        <time>2023-05-08T15:14:36.949Z</time>
        <extensions>
        <gpxtpx:TrackPointExtension>
        <gpxtpx:Extensions>
            <surface>asphalt</surface>
        </gpxtpx:Extensions>
        </gpxtpx:TrackPointExtension>
        </extensions>
    </trkpt>
    <trkpt lat="45.826687" lon="15.190054">
        <ele>180.8</ele>
        <time>2023-05-08T15:14:38.311Z</time>
        <extensions>
        <gpxtpx:TrackPointExtension>
        <gpxtpx:Extensions>
            <surface>asphalt</surface>
        </gpxtpx:Extensions>
        </gpxtpx:TrackPointExtension>
        </extensions>
    </trkpt>
    <trkpt lat="45.826713" lon="15.189966">
        <ele>181.0</ele>
        <time>2023-05-08T15:14:40.088Z</time>
        <extensions>
        <gpxtpx:TrackPointExtension>
        <gpxtpx:Extensions>
            <surface>asphalt</surface>
        </gpxtpx:Extensions>
        </gpxtpx:TrackPointExtension>
        </extensions>
    </trkpt>
    <trkpt lat="45.826758" lon="15.189889">
        <ele>181.5</ele>
        <time>2023-05-08T15:14:41.956Z</time>
        <extensions>
        <gpxtpx:TrackPointExtension>
        <gpxtpx:Extensions>
            <surface>asphalt</surface>
        </gpxtpx:Extensions>
        </gpxtpx:TrackPointExtension>
        </extensions>
    </trkpt>
    <trkpt lat="45.826782" lon="15.189817">
        <ele>181.8</ele>
        <time>2023-05-08T15:14:43.440Z</time>
        <extensions>
        <gpxtpx:TrackPointExtension>
        <gpxtpx:Extensions>
            <surface>asphalt</surface>
        </gpxtpx:Extensions>
        </gpxtpx:TrackPointExtension>
        </extensions>
    </trkpt>
    <trkpt lat="45.826759" lon="15.189626">
        <ele>182.5</ele>
        <time>2023-05-08T15:14:47.044Z</time>
        <extensions>
        <gpxtpx:TrackPointExtension>
        <gpxtpx:Extensions>
            <surface>asphalt</surface>
        </gpxtpx:Extensions>
        </gpxtpx:TrackPointExtension>
        </extensions>
    </trkpt>
    <trkpt lat="45.826635" lon="15.189104">
        <ele>183.8</ele>
        <time>2023-05-08T15:14:57.299Z</time>
        <extensions>
        <gpxtpx:TrackPointExtension>
        <gpxtpx:Extensions>
            <surface>asphalt</surface>
        </gpxtpx:Extensions>
        </gpxtpx:TrackPointExtension>
        </extensions>
    </trkpt>
    <trkpt lat="45.826437" lon="15.188368">
        <ele>182.8</ele>
        <time>2023-05-08T15:15:11.970Z</time>
        <extensions>
        <gpxtpx:TrackPointExtension>
        <gpxtpx:Extensions>
            <surface>asphalt</surface>
        </gpxtpx:Extensions>
        </gpxtpx:TrackPointExtension>
        </extensions>
    </trkpt>
    <trkpt lat="45.826343" lon="15.187965">
        <ele>182.8</ele>
        <time>2023-05-08T15:15:19.872Z</time>
        <extensions>
        <gpxtpx:TrackPointExtension>
        <gpxtpx:Extensions>
            <surface>asphalt</surface>
        </gpxtpx:Extensions>
        </gpxtpx:TrackPointExtension>
        </extensions>
    </trkpt>
    <trkpt lat="45.826139" lon="15.187084">
        <ele>183.0</ele>
        <time>2023-05-08T15:15:37.136Z</time>
        <extensions>
        <gpxtpx:TrackPointExtension>
        <gpxtpx:Extensions>
            <surface>asphalt</surface>
        </gpxtpx:Extensions>
        </gpxtpx:TrackPointExtension>
        </extensions>
    </trkpt>
    <trkpt lat="45.826016" lon="15.185967">
        <ele>185.3</ele>
        <time>2023-05-08T15:15:58.165Z</time>
        <extensions>
        <gpxtpx:TrackPointExtension>
        <gpxtpx:Extensions>
            <surface>asphalt</surface>
        </gpxtpx:Extensions>
        </gpxtpx:TrackPointExtension>
        </extensions>
    </trkpt>
    <trkpt lat="45.826032" lon="15.184863">
        <ele>188.0</ele>
        <time>2023-05-08T15:16:18.699Z</time>
        <extensions>
        <gpxtpx:TrackPointExtension>
        <gpxtpx:Extensions>
            <surface>asphalt</surface>
        </gpxtpx:Extensions>
        </gpxtpx:TrackPointExtension>
        </extensions>
    </trkpt>
    <trkpt lat="45.826004" lon="15.184691">
        <ele>188.8</ele>
        <time>2023-05-08T15:16:21.983Z</time>
        <extensions>
        <gpxtpx:TrackPointExtension>
        <gpxtpx:Extensions>
            <surface>asphalt</surface>
        </gpxtpx:Extensions>
        </gpxtpx:TrackPointExtension>
        </extensions>
    </trkpt>
    <trkpt lat="45.826008" lon="15.18438">
        <ele>189.8</ele>
        <time>2023-05-08T15:16:27.767Z</time>
        <extensions>
        <gpxtpx:TrackPointExtension>
        <gpxtpx:Extensions>
            <surface>asphalt</surface>
        </gpxtpx:Extensions>
        </gpxtpx:TrackPointExtension>
        </extensions>
    </trkpt>
    <trkpt lat="45.826036" lon="15.184238">
        <ele>190.3</ele>
        <time>2023-05-08T15:16:30.511Z</time>
        <extensions>
        <gpxtpx:TrackPointExtension>
        <gpxtpx:Extensions>
            <surface>asphalt</surface>
        </gpxtpx:Extensions>
        </gpxtpx:TrackPointExtension>
        </extensions>
    </trkpt>
    <trkpt lat="45.826026" lon="15.183861">
        <ele>189.3</ele>
        <time>2023-05-08T15:16:37.526Z</time>
        <extensions>
        <gpxtpx:TrackPointExtension>
        <gpxtpx:Extensions>
            <surface>asphalt</surface>
        </gpxtpx:Extensions>
        </gpxtpx:TrackPointExtension>
        </extensions>
    </trkpt>
    <trkpt lat="45.825926" lon="15.183778">
        <ele>188.5</ele>
        <time>2023-05-08T15:16:40.608Z</time>
        <extensions>
        <gpxtpx:TrackPointExtension>
        <gpxtpx:Extensions>
            <surface>asphalt</surface>
        </gpxtpx:Extensions>
        </gpxtpx:TrackPointExtension>
        </extensions>
    </trkpt>
    <trkpt lat="45.825847" lon="15.183657">
        <ele>187.5</ele>
        <time>2023-05-08T15:16:43.691Z</time>
        <extensions>
        <gpxtpx:TrackPointExtension>
        <gpxtpx:Extensions>
            <surface>asphalt</surface>
        </gpxtpx:Extensions>
        </gpxtpx:TrackPointExtension>
        </extensions>
    </trkpt>
    <trkpt lat="45.825838" lon="15.183557">
        <ele>187.0</ele>
        <time>2023-05-08T15:16:45.566Z</time>
        <extensions>
        <gpxtpx:TrackPointExtension>
        <gpxtpx:Extensions>
            <surface>asphalt</surface>
        </gpxtpx:Extensions>
        </gpxtpx:TrackPointExtension>
        </extensions>
    </trkpt>
    <trkpt lat="45.825831" lon="15.183482">
        <ele>186.5</ele>
        <time>2023-05-08T15:16:46.973Z</time>
        <extensions>
        <gpxtpx:TrackPointExtension>
        <gpxtpx:Extensions>
            <surface>asphalt</surface>
        </gpxtpx:Extensions>
        </gpxtpx:TrackPointExtension>
        </extensions>
    </trkpt>
    <trkpt lat="45.825879" lon="15.183286">
        <ele>186.3</ele>
        <time>2023-05-08T15:16:50.836Z</time>
        <extensions>
        <gpxtpx:TrackPointExtension>
        <gpxtpx:Extensions>
            <surface>asphalt</surface>
        </gpxtpx:Extensions>
        </gpxtpx:TrackPointExtension>
        </extensions>
    </trkpt>
    <trkpt lat="45.825965" lon="15.183133">
        <ele>186.5</ele>
        <time>2023-05-08T15:16:54.491Z</time>
        <extensions>
        <gpxtpx:TrackPointExtension>
        <gpxtpx:Extensions>
            <surface>asphalt</surface>
        </gpxtpx:Extensions>
        </gpxtpx:TrackPointExtension>
        </extensions>
    </trkpt>
    <trkpt lat="45.825953" lon="15.183025">
        <ele>186.3</ele>
        <time>2023-05-08T15:16:56.524Z</time>
        <extensions>
        <gpxtpx:TrackPointExtension>
        <gpxtpx:Extensions>
            <surface>asphalt</surface>
        </gpxtpx:Extensions>
        </gpxtpx:TrackPointExtension>
        </extensions>
    </trkpt>
    <trkpt lat="45.82574" lon="15.182025">
        <ele>182.8</ele>
        <time>2023-05-08T15:17:15.969Z</time>
        <extensions>
        <gpxtpx:TrackPointExtension>
        <gpxtpx:Extensions>
            <surface>asphalt</surface>
        </gpxtpx:Extensions>
        </gpxtpx:TrackPointExtension>
        </extensions>
    </trkpt>
    <trkpt lat="45.825615" lon="15.181548">
        <ele>181.8</ele>
        <time>2023-05-08T15:17:25.446Z</time>
        <extensions>
        <gpxtpx:TrackPointExtension>
        <gpxtpx:Extensions>
            <surface>asphalt</surface>
        </gpxtpx:Extensions>
        </gpxtpx:TrackPointExtension>
        </extensions>
    </trkpt>
    <trkpt lat="45.8255" lon="15.181003">
        <ele>183.3</ele>
        <time>2023-05-08T15:17:36.035Z</time>
        <extensions>
        <gpxtpx:TrackPointExtension>
        <gpxtpx:Extensions>
            <surface>asphalt</surface>
        </gpxtpx:Extensions>
        </gpxtpx:TrackPointExtension>
        </extensions>
    </trkpt>
    <trkpt lat="45.825378" lon="15.180055">
        <ele>187.5</ele>
        <time>2023-05-08T15:17:53.962Z</time>
        <extensions>
        <gpxtpx:TrackPointExtension>
        <gpxtpx:Extensions>
            <surface>asphalt</surface>
        </gpxtpx:Extensions>
        </gpxtpx:TrackPointExtension>
        </extensions>
    </trkpt>
    <trkpt lat="45.825218" lon="15.179926">
        <ele>187.5</ele>
        <time>2023-05-08T15:17:58.859Z</time>
        <extensions>
        <gpxtpx:TrackPointExtension>
        <gpxtpx:Extensions>
            <surface>asphalt</surface>
        </gpxtpx:Extensions>
        </gpxtpx:TrackPointExtension>
        </extensions>
    </trkpt>
    <trkpt lat="45.825124" lon="15.1797">
        <ele>187.8</ele>
        <time>2023-05-08T15:18:03.753Z</time>
        <extensions>
        <gpxtpx:TrackPointExtension>
        <gpxtpx:Extensions>
            <surface>asphalt</surface>
        </gpxtpx:Extensions>
        </gpxtpx:TrackPointExtension>
        </extensions>
    </trkpt>
    <trkpt lat="45.82514" lon="15.179405">
        <ele>188.3</ele>
        <time>2023-05-08T15:18:09.255Z</time>
        <extensions>
        <gpxtpx:TrackPointExtension>
        <gpxtpx:Extensions>
            <surface>asphalt</surface>
        </gpxtpx:Extensions>
        </gpxtpx:TrackPointExtension>
        </extensions>
    </trkpt>
    <trkpt lat="45.825246" lon="15.179204">
        <ele>189.0</ele>
        <time>2023-05-08T15:18:13.942Z</time>
        <extensions>
        <gpxtpx:TrackPointExtension>
        <gpxtpx:Extensions>
            <surface>asphalt</surface>
        </gpxtpx:Extensions>
        </gpxtpx:TrackPointExtension>
        </extensions>
    </trkpt>
    <trkpt lat="45.825404" lon="15.179066">
        <ele>189.8</ele>
        <time>2023-05-08T15:18:18.878Z</time>
        <extensions>
        <gpxtpx:TrackPointExtension>
        <gpxtpx:Extensions>
            <surface>asphalt</surface>
        </gpxtpx:Extensions>
        </gpxtpx:TrackPointExtension>
        </extensions>
    </trkpt>
    <trkpt lat="45.825439" lon="15.178627">
        <ele>190.3</ele>
        <time>2023-05-08T15:18:27.095Z</time>
        <extensions>
        <gpxtpx:TrackPointExtension>
        <gpxtpx:Extensions>
            <surface>asphalt</surface>
        </gpxtpx:Extensions>
        </gpxtpx:TrackPointExtension>
        </extensions>
    </trkpt>
    <trkpt lat="45.825405" lon="15.177907">
        <ele>193.5</ele>
        <time>2023-05-08T15:18:40.515Z</time>
        <extensions>
        <gpxtpx:TrackPointExtension>
        <gpxtpx:Extensions>
            <surface>asphalt</surface>
        </gpxtpx:Extensions>
        </gpxtpx:TrackPointExtension>
        </extensions>
    </trkpt>
    <trkpt lat="45.825326" lon="15.177262">
        <ele>196.8</ele>
        <time>2023-05-08T15:18:52.693Z</time>
        <extensions>
        <gpxtpx:TrackPointExtension>
        <gpxtpx:Extensions>
            <surface>asphalt</surface>
        </gpxtpx:Extensions>
        </gpxtpx:TrackPointExtension>
        </extensions>
    </trkpt>
    <trkpt lat="45.825216" lon="15.17675">
        <ele>197.3</ele>
        <time>2023-05-08T15:19:02.656Z</time>
        <extensions>
        <gpxtpx:TrackPointExtension>
        <gpxtpx:Extensions>
            <surface>asphalt</surface>
        </gpxtpx:Extensions>
        </gpxtpx:TrackPointExtension>
        </extensions>
    </trkpt>
    <trkpt lat="45.825016" lon="15.176174">
        <ele>198.0</ele>
        <time>2023-05-08T15:19:14.623Z</time>
        <extensions>
        <gpxtpx:TrackPointExtension>
        <gpxtpx:Extensions>
            <surface>asphalt</surface>
        </gpxtpx:Extensions>
        </gpxtpx:TrackPointExtension>
        </extensions>
    </trkpt>
    <trkpt lat="45.824708" lon="15.175504">
        <ele>201.8</ele>
        <time>2023-05-08T15:19:29.549Z</time>
        <extensions>
        <gpxtpx:TrackPointExtension>
        <gpxtpx:Extensions>
            <surface>asphalt</surface>
        </gpxtpx:Extensions>
        </gpxtpx:TrackPointExtension>
        </extensions>
    </trkpt>
    <trkpt lat="45.824298" lon="15.174956">
        <ele>202.3</ele>
        <time>2023-05-08T15:19:44.501Z</time>
        <extensions>
        <gpxtpx:TrackPointExtension>
        <gpxtpx:Extensions>
            <surface>asphalt</surface>
        </gpxtpx:Extensions>
        </gpxtpx:TrackPointExtension>
        </extensions>
    </trkpt>
    <trkpt lat="45.82376" lon="15.174397">
        <ele>203.0</ele>
        <time>2023-05-08T15:20:02.226Z</time>
        <extensions>
        <gpxtpx:TrackPointExtension>
        <gpxtpx:Extensions>
            <surface>asphalt</surface>
        </gpxtpx:Extensions>
        </gpxtpx:TrackPointExtension>
        </extensions>
    </trkpt>
    <trkpt lat="45.823516" lon="15.174198">
        <ele>202.0</ele>
        <time>2023-05-08T15:20:09.715Z</time>
        <extensions>
        <gpxtpx:TrackPointExtension>
        <gpxtpx:Extensions>
            <surface>asphalt</surface>
        </gpxtpx:Extensions>
        </gpxtpx:TrackPointExtension>
        </extensions>
    </trkpt>
    <trkpt lat="45.823091" lon="15.173856">
        <ele>199.0</ele>
        <time>2023-05-08T15:20:22.718Z</time>
        <extensions>
        <gpxtpx:TrackPointExtension>
        <gpxtpx:Extensions>
            <surface>asphalt</surface>
        </gpxtpx:Extensions>
        </gpxtpx:TrackPointExtension>
        </extensions>
    </trkpt>
    <trkpt lat="45.822642" lon="15.173442">
        <ele>198.0</ele>
        <time>2023-05-08T15:20:36.960Z</time>
        <extensions>
        <gpxtpx:TrackPointExtension>
        <gpxtpx:Extensions>
            <surface>asphalt</surface>
        </gpxtpx:Extensions>
        </gpxtpx:TrackPointExtension>
        </extensions>
    </trkpt>
    <trkpt lat="45.822291" lon="15.173074">
        <ele>197.8</ele>
        <time>2023-05-08T15:20:48.560Z</time>
        <extensions>
        <gpxtpx:TrackPointExtension>
        <gpxtpx:Extensions>
            <surface>asphalt</surface>
        </gpxtpx:Extensions>
        </gpxtpx:TrackPointExtension>
        </extensions>
    </trkpt>
    <trkpt lat="45.821985" lon="15.17258">
        <ele>199.0</ele>
        <time>2023-05-08T15:21:00.851Z</time>
        <extensions>
        <gpxtpx:TrackPointExtension>
        <gpxtpx:Extensions>
            <surface>asphalt</surface>
        </gpxtpx:Extensions>
        </gpxtpx:TrackPointExtension>
        </extensions>
    </trkpt>
    <trkpt lat="45.821726" lon="15.171993">
        <ele>198.8</ele>
        <time>2023-05-08T15:21:13.772Z</time>
        <extensions>
        <gpxtpx:TrackPointExtension>
        <gpxtpx:Extensions>
            <surface>asphalt</surface>
        </gpxtpx:Extensions>
        </gpxtpx:TrackPointExtension>
        </extensions>
    </trkpt>
    <trkpt lat="45.821289" lon="15.170502">
        <ele>201.5</ele>
        <time>2023-05-08T15:21:43.854Z</time>
        <extensions>
        <gpxtpx:TrackPointExtension>
        <gpxtpx:Extensions>
            <surface>asphalt</surface>
        </gpxtpx:Extensions>
        </gpxtpx:TrackPointExtension>
        </extensions>
    </trkpt>
    <trkpt lat="45.821137" lon="15.169979">
        <ele>202.8</ele>
        <time>2023-05-08T15:21:54.392Z</time>
        <extensions>
        <gpxtpx:TrackPointExtension>
        <gpxtpx:Extensions>
            <surface>asphalt</surface>
        </gpxtpx:Extensions>
        </gpxtpx:TrackPointExtension>
        </extensions>
    </trkpt>
    <trkpt lat="45.821243" lon="15.169939">
        <ele>202.5</ele>
        <time>2023-05-08T15:21:57.316Z</time>
        <extensions>
        <gpxtpx:TrackPointExtension>
        <gpxtpx:Extensions>
            <surface>asphalt</surface>
        </gpxtpx:Extensions>
        </gpxtpx:TrackPointExtension>
        </extensions>
    </trkpt>
    <trkpt lat="45.821334" lon="15.169873">
        <ele>202.3</ele>
        <time>2023-05-08T15:22:00.037Z</time>
        <extensions>
        <gpxtpx:TrackPointExtension>
        <gpxtpx:Extensions>
            <surface>asphalt</surface>
        </gpxtpx:Extensions>
        </gpxtpx:TrackPointExtension>
        </extensions>
    </trkpt>
    <trkpt lat="45.821424" lon="15.169672">
        <ele>202.0</ele>
        <time>2023-05-08T15:22:04.480Z</time>
        <extensions>
        <gpxtpx:TrackPointExtension>
        <gpxtpx:Extensions>
            <surface>asphalt</surface>
        </gpxtpx:Extensions>
        </gpxtpx:TrackPointExtension>
        </extensions>
    </trkpt>
    <trkpt lat="45.821458" lon="15.169474">
        <ele>202.0</ele>
        <time>2023-05-08T15:22:08.272Z</time>
        <extensions>
        <gpxtpx:TrackPointExtension>
        <gpxtpx:Extensions>
            <surface>asphalt</surface>
        </gpxtpx:Extensions>
        </gpxtpx:TrackPointExtension>
        </extensions>
    </trkpt>
    <trkpt lat="45.821624" lon="15.169287">
        <ele>201.3</ele>
        <time>2023-05-08T15:22:13.904Z</time>
        <extensions>
        <gpxtpx:TrackPointExtension>
        <gpxtpx:Extensions>
            <surface>asphalt</surface>
        </gpxtpx:Extensions>
        </gpxtpx:TrackPointExtension>
        </extensions>
    </trkpt>
    <trkpt lat="45.821803" lon="15.169104">
        <ele>200.8</ele>
        <time>2023-05-08T15:22:19.769Z</time>
        <extensions>
        <gpxtpx:TrackPointExtension>
        <gpxtpx:Extensions>
            <surface>asphalt</surface>
        </gpxtpx:Extensions>
        </gpxtpx:TrackPointExtension>
        </extensions>
    </trkpt>
    <trkpt lat="45.822028" lon="15.168897">
        <ele>201.0</ele>
        <time>2023-05-08T15:22:26.901Z</time>
        <extensions>
        <gpxtpx:TrackPointExtension>
        <gpxtpx:Extensions>
            <surface>asphalt</surface>
        </gpxtpx:Extensions>
        </gpxtpx:TrackPointExtension>
        </extensions>
    </trkpt>
    <trkpt lat="45.822405" lon="15.168353">
        <ele>200.8</ele>
        <time>2023-05-08T15:22:41.169Z</time>
        <extensions>
        <gpxtpx:TrackPointExtension>
        <gpxtpx:Extensions>
            <surface>asphalt</surface>
        </gpxtpx:Extensions>
        </gpxtpx:TrackPointExtension>
        </extensions>
    </trkpt>
    <trkpt lat="45.822552" lon="15.168092">
        <ele>201.0</ele>
        <time>2023-05-08T15:22:47.410Z</time>
        <extensions>
        <gpxtpx:TrackPointExtension>
        <gpxtpx:Extensions>
            <surface>asphalt</surface>
        </gpxtpx:Extensions>
        </gpxtpx:TrackPointExtension>
        </extensions>
    </trkpt>
    <trkpt lat="45.822728" lon="15.167709">
        <ele>202.0</ele>
        <time>2023-05-08T15:22:55.942Z</time>
        <extensions>
        <gpxtpx:TrackPointExtension>
        <gpxtpx:Extensions>
            <surface>asphalt</surface>
        </gpxtpx:Extensions>
        </gpxtpx:TrackPointExtension>
        </extensions>
    </trkpt>
    <trkpt lat="45.822856" lon="15.167336">
        <ele>202.5</ele>
        <time>2023-05-08T15:23:03.674Z</time>
        <extensions>
        <gpxtpx:TrackPointExtension>
        <gpxtpx:Extensions>
            <surface>asphalt</surface>
        </gpxtpx:Extensions>
        </gpxtpx:TrackPointExtension>
        </extensions>
    </trkpt>
    <trkpt lat="45.823005" lon="15.166758">
        <ele>203.5</ele>
        <time>2023-05-08T15:23:15.135Z</time>
        <extensions>
        <gpxtpx:TrackPointExtension>
        <gpxtpx:Extensions>
            <surface>asphalt</surface>
        </gpxtpx:Extensions>
        </gpxtpx:TrackPointExtension>
        </extensions>
    </trkpt>
    <trkpt lat="45.823076" lon="15.16623">
        <ele>205.8</ele>
        <time>2023-05-08T15:23:25.135Z</time>
        <extensions>
        <gpxtpx:TrackPointExtension>
        <gpxtpx:Extensions>
            <surface>asphalt</surface>
        </gpxtpx:Extensions>
        </gpxtpx:TrackPointExtension>
        </extensions>
    </trkpt>
    <trkpt lat="45.823091" lon="15.165869">
        <ele>207.8</ele>
        <time>2023-05-08T15:23:31.860Z</time>
        <extensions>
        <gpxtpx:TrackPointExtension>
        <gpxtpx:Extensions>
            <surface>asphalt</surface>
        </gpxtpx:Extensions>
        </gpxtpx:TrackPointExtension>
        </extensions>
    </trkpt>
    <trkpt lat="45.82309" lon="15.165393">
        <ele>210.5</ele>
        <time>2023-05-08T15:23:40.712Z</time>
        <extensions>
        <gpxtpx:TrackPointExtension>
        <gpxtpx:Extensions>
            <surface>asphalt</surface>
        </gpxtpx:Extensions>
        </gpxtpx:TrackPointExtension>
        </extensions>
    </trkpt>
    <trkpt lat="45.823043" lon="15.164895">
        <ele>212.8</ele>
        <time>2023-05-08T15:23:50.058Z</time>
        <extensions>
        <gpxtpx:TrackPointExtension>
        <gpxtpx:Extensions>
            <surface>asphalt</surface>
        </gpxtpx:Extensions>
        </gpxtpx:TrackPointExtension>
        </extensions>
    </trkpt>
    <trkpt lat="45.822898" lon="15.164085">
        <ele>213.8</ele>
        <time>2023-05-08T15:24:05.610Z</time>
        <extensions>
        <gpxtpx:TrackPointExtension>
        <gpxtpx:Extensions>
            <surface>asphalt</surface>
        </gpxtpx:Extensions>
        </gpxtpx:TrackPointExtension>
        </extensions>
    </trkpt>
    <trkpt lat="45.822736" lon="15.163267">
        <ele>210.0</ele>
        <time>2023-05-08T15:24:21.425Z</time>
        <extensions>
        <gpxtpx:TrackPointExtension>
        <gpxtpx:Extensions>
            <surface>asphalt</surface>
        </gpxtpx:Extensions>
        </gpxtpx:TrackPointExtension>
        </extensions>
    </trkpt>
    <trkpt lat="45.822607" lon="15.162535">
        <ele>202.0</ele>
        <time>2023-05-08T15:24:35.466Z</time>
        <extensions>
        <gpxtpx:TrackPointExtension>
        <gpxtpx:Extensions>
            <surface>asphalt</surface>
        </gpxtpx:Extensions>
        </gpxtpx:TrackPointExtension>
        </extensions>
    </trkpt>
    <trkpt lat="45.822481" lon="15.161441">
        <ele>191.0</ele>
        <time>2023-05-08T15:24:56.087Z</time>
        <extensions>
        <gpxtpx:TrackPointExtension>
        <gpxtpx:Extensions>
            <surface>asphalt</surface>
        </gpxtpx:Extensions>
        </gpxtpx:TrackPointExtension>
        </extensions>
    </trkpt>
    <trkpt lat="45.822445" lon="15.16078">
        <ele>189.0</ele>
        <time>2023-05-08T15:25:08.417Z</time>
        <extensions>
        <gpxtpx:TrackPointExtension>
        <gpxtpx:Extensions>
            <surface>asphalt</surface>
        </gpxtpx:Extensions>
        </gpxtpx:TrackPointExtension>
        </extensions>
    </trkpt>
    <trkpt lat="45.822441" lon="15.160039">
        <ele>190.5</ele>
        <time>2023-05-08T15:25:22.198Z</time>
        <extensions>
        <gpxtpx:TrackPointExtension>
        <gpxtpx:Extensions>
            <surface>asphalt</surface>
        </gpxtpx:Extensions>
        </gpxtpx:TrackPointExtension>
        </extensions>
    </trkpt>
    <trkpt lat="45.822466" lon="15.159471">
        <ele>192.0</ele>
        <time>2023-05-08T15:25:32.782Z</time>
        <extensions>
        <gpxtpx:TrackPointExtension>
        <gpxtpx:Extensions>
            <surface>asphalt</surface>
        </gpxtpx:Extensions>
        </gpxtpx:TrackPointExtension>
        </extensions>
    </trkpt>
    <trkpt lat="45.822529" lon="15.158041">
        <ele>187.5</ele>
        <time>2023-05-08T15:25:59.429Z</time>
        <extensions>
        <gpxtpx:TrackPointExtension>
        <gpxtpx:Extensions>
            <surface>asphalt</surface>
        </gpxtpx:Extensions>
        </gpxtpx:TrackPointExtension>
        </extensions>
    </trkpt>
    <trkpt lat="45.822473" lon="15.158037">
        <ele>187.5</ele>
        <time>2023-05-08T15:26:00.925Z</time>
    </trkpt>
    <trkpt lat="45.822542" lon="15.15673">
        <ele>184.0</ele>
        <time>2023-05-08T15:26:25.301Z</time>
        <extensions>
        <gpxtpx:TrackPointExtension>
        <gpxtpx:Extensions>
            <surface>asphalt</surface>
        </gpxtpx:Extensions>
        </gpxtpx:TrackPointExtension>
        </extensions>
    </trkpt>
    <trkpt lat="45.822549" lon="15.156536">
        <ele>183.5</ele>
        <time>2023-05-08T15:26:28.913Z</time>
        <extensions>
        <gpxtpx:TrackPointExtension>
        <gpxtpx:Extensions>
            <surface>asphalt</surface>
        </gpxtpx:Extensions>
        </gpxtpx:TrackPointExtension>
        </extensions>
    </trkpt>
    <trkpt lat="45.822614" lon="15.156522">
        <ele>183.8</ele>
        <time>2023-05-08T15:26:30.667Z</time>
        <extensions>
        <gpxtpx:TrackPointExtension>
        <gpxtpx:Extensions>
            <surface>asphalt</surface>
        </gpxtpx:Extensions>
        </gpxtpx:TrackPointExtension>
        </extensions>
    </trkpt>
    <trkpt lat="45.822671" lon="15.156473">
        <ele>183.8</ele>
        <time>2023-05-08T15:26:32.440Z</time>
        <extensions>
        <gpxtpx:TrackPointExtension>
        <gpxtpx:Extensions>
            <surface>asphalt</surface>
        </gpxtpx:Extensions>
        </gpxtpx:TrackPointExtension>
        </extensions>
    </trkpt>
    <trkpt lat="45.822712" lon="15.156392">
        <ele>183.8</ele>
        <time>2023-05-08T15:26:34.301Z</time>
        <extensions>
        <gpxtpx:TrackPointExtension>
        <gpxtpx:Extensions>
            <surface>asphalt</surface>
        </gpxtpx:Extensions>
        </gpxtpx:TrackPointExtension>
        </extensions>
    </trkpt>
    <trkpt lat="45.822727" lon="15.156295">
        <ele>183.5</ele>
        <time>2023-05-08T15:26:36.148Z</time>
        <extensions>
        <gpxtpx:TrackPointExtension>
        <gpxtpx:Extensions>
            <surface>asphalt</surface>
        </gpxtpx:Extensions>
        </gpxtpx:TrackPointExtension>
        </extensions>
    </trkpt>
    <trkpt lat="45.82272" lon="15.15622">
        <ele>183.3</ele>
        <time>2023-05-08T15:26:37.555Z</time>
        <extensions>
        <gpxtpx:TrackPointExtension>
        <gpxtpx:Extensions>
            <surface>asphalt</surface>
        </gpxtpx:Extensions>
        </gpxtpx:TrackPointExtension>
        </extensions>
    </trkpt>
    <trkpt lat="45.822697" lon="15.156152">
        <ele>182.8</ele>
        <time>2023-05-08T15:26:38.960Z</time>
        <extensions>
        <gpxtpx:TrackPointExtension>
        <gpxtpx:Extensions>
            <surface>asphalt</surface>
        </gpxtpx:Extensions>
        </gpxtpx:TrackPointExtension>
        </extensions>
    </trkpt>
    <trkpt lat="45.822661" lon="15.156097">
        <ele>182.5</ele>
        <time>2023-05-08T15:26:40.363Z</time>
        <extensions>
        <gpxtpx:TrackPointExtension>
        <gpxtpx:Extensions>
            <surface>asphalt</surface>
        </gpxtpx:Extensions>
        </gpxtpx:TrackPointExtension>
        </extensions>
    </trkpt>
    <trkpt lat="45.822614" lon="15.15606">
        <ele>182.3</ele>
        <time>2023-05-08T15:26:41.793Z</time>
        <extensions>
        <gpxtpx:TrackPointExtension>
        <gpxtpx:Extensions>
            <surface>asphalt</surface>
        </gpxtpx:Extensions>
        </gpxtpx:TrackPointExtension>
        </extensions>
    </trkpt>
    <trkpt lat="45.822562" lon="15.156046">
        <ele>182.0</ele>
        <time>2023-05-08T15:26:43.204Z</time>
        <extensions>
        <gpxtpx:TrackPointExtension>
        <gpxtpx:Extensions>
            <surface>asphalt</surface>
        </gpxtpx:Extensions>
        </gpxtpx:TrackPointExtension>
        </extensions>
    </trkpt>
    <trkpt lat="45.822514" lon="15.156053">
        <ele>181.8</ele>
        <time>2023-05-08T15:26:44.491Z</time>
        <extensions>
        <gpxtpx:TrackPointExtension>
        <gpxtpx:Extensions>
            <surface>asphalt</surface>
        </gpxtpx:Extensions>
        </gpxtpx:TrackPointExtension>
        </extensions>
    </trkpt>
    <trkpt lat="45.82247" lon="15.15608">
        <ele>181.8</ele>
        <time>2023-05-08T15:26:45.768Z</time>
        <extensions>
        <gpxtpx:TrackPointExtension>
        <gpxtpx:Extensions>
            <surface>asphalt</surface>
        </gpxtpx:Extensions>
        </gpxtpx:TrackPointExtension>
        </extensions>
    </trkpt>
    <trkpt lat="45.822432" lon="15.156123">
        <ele>182.0</ele>
        <time>2023-05-08T15:26:47.059Z</time>
        <extensions>
        <gpxtpx:TrackPointExtension>
        <gpxtpx:Extensions>
            <surface>asphalt</surface>
        </gpxtpx:Extensions>
        </gpxtpx:TrackPointExtension>
        </extensions>
    </trkpt>
    <trkpt lat="45.822404" lon="15.156179">
        <ele>182.3</ele>
        <time>2023-05-08T15:26:48.340Z</time>
        <extensions>
        <gpxtpx:TrackPointExtension>
        <gpxtpx:Extensions>
            <surface>asphalt</surface>
        </gpxtpx:Extensions>
        </gpxtpx:TrackPointExtension>
        </extensions>
    </trkpt>
    <trkpt lat="45.822389" lon="15.156245">
        <ele>182.5</ele>
        <time>2023-05-08T15:26:49.631Z</time>
        <extensions>
        <gpxtpx:TrackPointExtension>
        <gpxtpx:Extensions>
            <surface>asphalt</surface>
        </gpxtpx:Extensions>
        </gpxtpx:TrackPointExtension>
        </extensions>
    </trkpt>
    <trkpt lat="45.822262" lon="15.156205">
        <ele>182.3</ele>
        <time>2023-05-08T15:26:53.100Z</time>
        <extensions>
        <gpxtpx:TrackPointExtension>
        <gpxtpx:Extensions>
            <surface>asphalt</surface>
        </gpxtpx:Extensions>
        </gpxtpx:TrackPointExtension>
        </extensions>
    </trkpt>
    <trkpt lat="45.82212" lon="15.156143">
        <ele>182.3</ele>
        <time>2023-05-08T15:26:57.061Z</time>
        <extensions>
        <gpxtpx:TrackPointExtension>
        <gpxtpx:Extensions>
            <surface>asphalt</surface>
        </gpxtpx:Extensions>
        </gpxtpx:TrackPointExtension>
        </extensions>
    </trkpt>
    <trkpt lat="45.821834" lon="15.156036">
        <ele>182.3</ele>
        <time>2023-05-08T15:27:04.948Z</time>
        <extensions>
        <gpxtpx:TrackPointExtension>
        <gpxtpx:Extensions>
            <surface>asphalt</surface>
        </gpxtpx:Extensions>
        </gpxtpx:TrackPointExtension>
        </extensions>
    </trkpt>
    <trkpt lat="45.821643" lon="15.155974">
        <ele>182.3</ele>
        <time>2023-05-08T15:27:10.173Z</time>
        <extensions>
        <gpxtpx:TrackPointExtension>
        <gpxtpx:Extensions>
            <surface>asphalt</surface>
        </gpxtpx:Extensions>
        </gpxtpx:TrackPointExtension>
        </extensions>
    </trkpt>
    <trkpt lat="45.821262" lon="15.155859">
        <ele>182.5</ele>
        <time>2023-05-08T15:27:20.563Z</time>
        <extensions>
        <gpxtpx:TrackPointExtension>
        <gpxtpx:Extensions>
            <surface>asphalt</surface>
        </gpxtpx:Extensions>
        </gpxtpx:TrackPointExtension>
        </extensions>
    </trkpt>
    <trkpt lat="45.820841" lon="15.15576">
        <ele>182.5</ele>
        <time>2023-05-08T15:27:31.948Z</time>
        <extensions>
        <gpxtpx:TrackPointExtension>
        <gpxtpx:Extensions>
            <surface>asphalt</surface>
        </gpxtpx:Extensions>
        </gpxtpx:TrackPointExtension>
        </extensions>
    </trkpt>
    <trkpt lat="45.820447" lon="15.155691">
        <ele>182.0</ele>
        <time>2023-05-08T15:27:42.540Z</time>
        <extensions>
        <gpxtpx:TrackPointExtension>
        <gpxtpx:Extensions>
            <surface>asphalt</surface>
        </gpxtpx:Extensions>
        </gpxtpx:TrackPointExtension>
        </extensions>
    </trkpt>
    <trkpt lat="45.82013" lon="15.155624">
        <ele>181.5</ele>
        <time>2023-05-08T15:27:51.090Z</time>
        <extensions>
        <gpxtpx:TrackPointExtension>
        <gpxtpx:Extensions>
            <surface>asphalt</surface>
        </gpxtpx:Extensions>
        </gpxtpx:TrackPointExtension>
        </extensions>
    </trkpt>
    <trkpt lat="45.819897" lon="15.155552">
        <ele>181.0</ele>
        <time>2023-05-08T15:27:57.450Z</time>
        <extensions>
        <gpxtpx:TrackPointExtension>
        <gpxtpx:Extensions>
            <surface>asphalt</surface>
        </gpxtpx:Extensions>
        </gpxtpx:TrackPointExtension>
        </extensions>
    </trkpt>
    <trkpt lat="45.819808" lon="15.155525">
        <ele>181.0</ele>
        <time>2023-05-08T15:27:59.877Z</time>
        <extensions>
        <gpxtpx:TrackPointExtension>
        <gpxtpx:Extensions>
            <surface>asphalt</surface>
        </gpxtpx:Extensions>
        </gpxtpx:TrackPointExtension>
        </extensions>
    </trkpt>
    <trkpt lat="45.818854" lon="15.155219">
        <ele>179.8</ele>
        <time>2023-05-08T15:28:25.964Z</time>
        <extensions>
        <gpxtpx:TrackPointExtension>
        <gpxtpx:Extensions>
            <surface>asphalt</surface>
        </gpxtpx:Extensions>
        </gpxtpx:TrackPointExtension>
        </extensions>
    </trkpt>
    <trkpt lat="45.818727" lon="15.155163">
        <ele>179.5</ele>
        <time>2023-05-08T15:28:29.509Z</time>
        <extensions>
        <gpxtpx:TrackPointExtension>
        <gpxtpx:Extensions>
            <surface>asphalt</surface>
        </gpxtpx:Extensions>
        </gpxtpx:TrackPointExtension>
        </extensions>
    </trkpt>
    <trkpt lat="45.818409" lon="15.155059">
        <ele>179.3</ele>
        <time>2023-05-08T15:28:38.213Z</time>
        <extensions>
        <gpxtpx:TrackPointExtension>
        <gpxtpx:Extensions>
            <surface>asphalt</surface>
        </gpxtpx:Extensions>
        </gpxtpx:TrackPointExtension>
        </extensions>
    </trkpt>
    <trkpt lat="45.818218" lon="15.155023">
        <ele>179.3</ele>
        <time>2023-05-08T15:28:43.353Z</time>
        <extensions>
        <gpxtpx:TrackPointExtension>
        <gpxtpx:Extensions>
            <surface>asphalt</surface>
        </gpxtpx:Extensions>
        </gpxtpx:TrackPointExtension>
        </extensions>
    </trkpt>
    <trkpt lat="45.818089" lon="15.154999">
        <ele>179.5</ele>
        <time>2023-05-08T15:28:46.824Z</time>
        <extensions>
        <gpxtpx:TrackPointExtension>
        <gpxtpx:Extensions>
            <surface>asphalt</surface>
        </gpxtpx:Extensions>
        </gpxtpx:TrackPointExtension>
        </extensions>
    </trkpt>
    <trkpt lat="45.817759" lon="15.154969">
        <ele>180.3</ele>
        <time>2023-05-08T15:28:55.648Z</time>
        <extensions>
        <gpxtpx:TrackPointExtension>
        <gpxtpx:Extensions>
            <surface>asphalt</surface>
        </gpxtpx:Extensions>
        </gpxtpx:TrackPointExtension>
        </extensions>
    </trkpt>
    <trkpt lat="45.817549" lon="15.154928">
        <ele>180.5</ele>
        <time>2023-05-08T15:29:01.303Z</time>
        <extensions>
        <gpxtpx:TrackPointExtension>
        <gpxtpx:Extensions>
            <surface>asphalt</surface>
        </gpxtpx:Extensions>
        </gpxtpx:TrackPointExtension>
        </extensions>
    </trkpt>
    <trkpt lat="45.81743" lon="15.154884">
        <ele>180.8</ele>
        <time>2023-05-08T15:29:04.582Z</time>
        <extensions>
        <gpxtpx:TrackPointExtension>
        <gpxtpx:Extensions>
            <surface>asphalt</surface>
        </gpxtpx:Extensions>
        </gpxtpx:TrackPointExtension>
        </extensions>
    </trkpt>
    <trkpt lat="45.817185" lon="15.154796">
        <ele>180.8</ele>
        <time>2023-05-08T15:29:11.322Z</time>
        <extensions>
        <gpxtpx:TrackPointExtension>
        <gpxtpx:Extensions>
            <surface>asphalt</surface>
        </gpxtpx:Extensions>
        </gpxtpx:TrackPointExtension>
        </extensions>
    </trkpt>
    <trkpt lat="45.817049" lon="15.154718">
        <ele>181.0</ele>
        <time>2023-05-08T15:29:15.230Z</time>
        <extensions>
        <gpxtpx:TrackPointExtension>
        <gpxtpx:Extensions>
            <surface>asphalt</surface>
        </gpxtpx:Extensions>
        </gpxtpx:TrackPointExtension>
        </extensions>
    </trkpt>
    <trkpt lat="45.816935" lon="15.154654">
        <ele>181.0</ele>
        <time>2023-05-08T15:29:18.496Z</time>
        <extensions>
        <gpxtpx:TrackPointExtension>
        <gpxtpx:Extensions>
            <surface>asphalt</surface>
        </gpxtpx:Extensions>
        </gpxtpx:TrackPointExtension>
        </extensions>
    </trkpt>
    <trkpt lat="45.816893" lon="15.15463">
        <ele>181.0</ele>
        <time>2023-05-08T15:29:19.702Z</time>
        <extensions>
        <gpxtpx:TrackPointExtension>
        <gpxtpx:Extensions>
            <surface>asphalt</surface>
        </gpxtpx:Extensions>
        </gpxtpx:TrackPointExtension>
        </extensions>
    </trkpt>
    <trkpt lat="45.816803" lon="15.154579">
        <ele>181.0</ele>
        <time>2023-05-08T15:29:22.284Z</time>
        <extensions>
        <gpxtpx:TrackPointExtension>
        <gpxtpx:Extensions>
            <surface>asphalt</surface>
        </gpxtpx:Extensions>
        </gpxtpx:TrackPointExtension>
        </extensions>
    </trkpt>
    <trkpt lat="45.815891" lon="15.154061">
        <ele>180.8</ele>
        <time>2023-05-08T15:29:48.459Z</time>
        <extensions>
        <gpxtpx:TrackPointExtension>
        <gpxtpx:Extensions>
            <surface>asphalt</surface>
        </gpxtpx:Extensions>
        </gpxtpx:TrackPointExtension>
        </extensions>
    </trkpt>
    <trkpt lat="45.815042" lon="15.153618">
        <ele>179.3</ele>
        <time>2023-05-08T15:30:12.567Z</time>
        <extensions>
        <gpxtpx:TrackPointExtension>
        <gpxtpx:Extensions>
            <surface>asphalt</surface>
        </gpxtpx:Extensions>
        </gpxtpx:TrackPointExtension>
        </extensions>
    </trkpt>
    <trkpt lat="45.815024" lon="15.153613">
        <ele>179.3</ele>
        <time>2023-05-08T15:30:13.056Z</time>
        <extensions>
        <gpxtpx:TrackPointExtension>
        <gpxtpx:Extensions>
            <surface>asphalt</surface>
        </gpxtpx:Extensions>
        </gpxtpx:TrackPointExtension>
        </extensions>
    </trkpt>
    <trkpt lat="45.814905" lon="15.153551">
        <ele>179.0</ele>
        <time>2023-05-08T15:30:16.434Z</time>
        <extensions>
        <gpxtpx:TrackPointExtension>
        <gpxtpx:Extensions>
            <surface>asphalt</surface>
        </gpxtpx:Extensions>
        </gpxtpx:TrackPointExtension>
        </extensions>
    </trkpt>
    <trkpt lat="45.814662" lon="15.15342">
        <ele>178.5</ele>
        <time>2023-05-08T15:30:23.361Z</time>
        <extensions>
        <gpxtpx:TrackPointExtension>
        <gpxtpx:Extensions>
            <surface>asphalt</surface>
        </gpxtpx:Extensions>
        </gpxtpx:TrackPointExtension>
        </extensions>
    </trkpt>
    <trkpt lat="45.814535" lon="15.153359">
        <ele>178.3</ele>
        <time>2023-05-08T15:30:26.935Z</time>
        <extensions>
        <gpxtpx:TrackPointExtension>
        <gpxtpx:Extensions>
            <surface>asphalt</surface>
        </gpxtpx:Extensions>
        </gpxtpx:TrackPointExtension>
        </extensions>
    </trkpt>
    <trkpt lat="45.8144" lon="15.153309">
        <ele>178.0</ele>
        <time>2023-05-08T15:30:30.655Z</time>
        <extensions>
        <gpxtpx:TrackPointExtension>
        <gpxtpx:Extensions>
            <surface>asphalt</surface>
        </gpxtpx:Extensions>
        </gpxtpx:TrackPointExtension>
        </extensions>
    </trkpt>
    <trkpt lat="45.81418" lon="15.153282">
        <ele>177.8</ele>
        <time>2023-05-08T15:30:36.547Z</time>
        <extensions>
        <gpxtpx:TrackPointExtension>
        <gpxtpx:Extensions>
            <surface>asphalt</surface>
        </gpxtpx:Extensions>
        </gpxtpx:TrackPointExtension>
        </extensions>
    </trkpt>
    <trkpt lat="45.814064" lon="15.153292">
        <ele>177.8</ele>
        <time>2023-05-08T15:30:39.648Z</time>
        <extensions>
        <gpxtpx:TrackPointExtension>
        <gpxtpx:Extensions>
            <surface>asphalt</surface>
        </gpxtpx:Extensions>
        </gpxtpx:TrackPointExtension>
        </extensions>
    </trkpt>
    <trkpt lat="45.813947" lon="15.153316">
        <ele>177.8</ele>
        <time>2023-05-08T15:30:42.802Z</time>
        <extensions>
        <gpxtpx:TrackPointExtension>
        <gpxtpx:Extensions>
            <surface>asphalt</surface>
        </gpxtpx:Extensions>
        </gpxtpx:TrackPointExtension>
        </extensions>
    </trkpt>
    <trkpt lat="45.813856" lon="15.153342">
        <ele>178.0</ele>
        <time>2023-05-08T15:30:45.278Z</time>
        <extensions>
        <gpxtpx:TrackPointExtension>
        <gpxtpx:Extensions>
            <surface>asphalt</surface>
        </gpxtpx:Extensions>
        </gpxtpx:TrackPointExtension>
        </extensions>
    </trkpt>
    <trkpt lat="45.813753" lon="15.153385">
        <ele>178.0</ele>
        <time>2023-05-08T15:30:48.140Z</time>
        <extensions>
        <gpxtpx:TrackPointExtension>
        <gpxtpx:Extensions>
            <surface>asphalt</surface>
        </gpxtpx:Extensions>
        </gpxtpx:TrackPointExtension>
        </extensions>
    </trkpt>
    <trkpt lat="45.813507" lon="15.153533">
        <ele>178.5</ele>
        <time>2023-05-08T15:30:55.258Z</time>
        <extensions>
        <gpxtpx:TrackPointExtension>
        <gpxtpx:Extensions>
            <surface>asphalt</surface>
        </gpxtpx:Extensions>
        </gpxtpx:TrackPointExtension>
        </extensions>
    </trkpt>
    <trkpt lat="45.813481" lon="15.153552">
        <ele>178.5</ele>
        <time>2023-05-08T15:30:56.036Z</time>
        <extensions>
        <gpxtpx:TrackPointExtension>
        <gpxtpx:Extensions>
            <surface>asphalt</surface>
        </gpxtpx:Extensions>
        </gpxtpx:TrackPointExtension>
        </extensions>
    </trkpt>
    <trkpt lat="45.813296" lon="15.153757">
        <ele>179.3</ele>
        <time>2023-05-08T15:31:02.274Z</time>
        <extensions>
        <gpxtpx:TrackPointExtension>
        <gpxtpx:Extensions>
            <surface>asphalt</surface>
        </gpxtpx:Extensions>
        </gpxtpx:TrackPointExtension>
        </extensions>
    </trkpt>
    <trkpt lat="45.813212" lon="15.153864">
        <ele>179.3</ele>
        <time>2023-05-08T15:31:05.271Z</time>
        <extensions>
        <gpxtpx:TrackPointExtension>
        <gpxtpx:Extensions>
            <surface>asphalt</surface>
        </gpxtpx:Extensions>
        </gpxtpx:TrackPointExtension>
        </extensions>
    </trkpt>
    <trkpt lat="45.813183" lon="15.153902">
        <ele>179.5</ele>
        <time>2023-05-08T15:31:06.319Z</time>
        <extensions>
        <gpxtpx:TrackPointExtension>
        <gpxtpx:Extensions>
            <surface>asphalt</surface>
        </gpxtpx:Extensions>
        </gpxtpx:TrackPointExtension>
        </extensions>
    </trkpt>
    <trkpt lat="45.813074" lon="15.154078">
        <ele>180.0</ele>
        <time>2023-05-08T15:31:10.698Z</time>
        <extensions>
        <gpxtpx:TrackPointExtension>
        <gpxtpx:Extensions>
            <surface>asphalt</surface>
        </gpxtpx:Extensions>
        </gpxtpx:TrackPointExtension>
        </extensions>
    </trkpt>
    <trkpt lat="45.813011" lon="15.154207">
        <ele>180.3</ele>
        <time>2023-05-08T15:31:13.627Z</time>
        <extensions>
        <gpxtpx:TrackPointExtension>
        <gpxtpx:Extensions>
            <surface>asphalt</surface>
        </gpxtpx:Extensions>
        </gpxtpx:TrackPointExtension>
        </extensions>
    </trkpt>
    <trkpt lat="45.812939" lon="15.154441">
        <ele>180.5</ele>
        <time>2023-05-08T15:31:18.384Z</time>
        <extensions>
        <gpxtpx:TrackPointExtension>
        <gpxtpx:Extensions>
            <surface>asphalt</surface>
        </gpxtpx:Extensions>
        </gpxtpx:TrackPointExtension>
        </extensions>
    </trkpt>
    <trkpt lat="45.812907" lon="15.154581">
        <ele>180.8</ele>
        <time>2023-05-08T15:31:21.124Z</time>
        <extensions>
        <gpxtpx:TrackPointExtension>
        <gpxtpx:Extensions>
            <surface>asphalt</surface>
        </gpxtpx:Extensions>
        </gpxtpx:TrackPointExtension>
        </extensions>
    </trkpt>
    <trkpt lat="45.812813" lon="15.155038">
        <ele>181.8</ele>
        <time>2023-05-08T15:31:29.986Z</time>
        <extensions>
        <gpxtpx:TrackPointExtension>
        <gpxtpx:Extensions>
            <surface>asphalt</surface>
        </gpxtpx:Extensions>
        </gpxtpx:TrackPointExtension>
        </extensions>
    </trkpt>
    <trkpt lat="45.812772" lon="15.155274">
        <ele>182.3</ele>
        <time>2023-05-08T15:31:34.510Z</time>
        <extensions>
        <gpxtpx:TrackPointExtension>
        <gpxtpx:Extensions>
            <surface>asphalt</surface>
        </gpxtpx:Extensions>
        </gpxtpx:TrackPointExtension>
        </extensions>
    </trkpt>
    <trkpt lat="45.812734" lon="15.155525">
        <ele>183.0</ele>
        <time>2023-05-08T15:31:39.287Z</time>
        <extensions>
        <gpxtpx:TrackPointExtension>
        <gpxtpx:Extensions>
            <surface>asphalt</surface>
        </gpxtpx:Extensions>
        </gpxtpx:TrackPointExtension>
        </extensions>
    </trkpt>
    <trkpt lat="45.812674" lon="15.15574">
        <ele>183.5</ele>
        <time>2023-05-08T15:31:43.594Z</time>
        <extensions>
        <gpxtpx:TrackPointExtension>
        <gpxtpx:Extensions>
            <surface>asphalt</surface>
        </gpxtpx:Extensions>
        </gpxtpx:TrackPointExtension>
        </extensions>
    </trkpt>
    <trkpt lat="45.812624" lon="15.155876">
        <ele>184.5</ele>
        <time>2023-05-08T15:31:46.454Z</time>
        <extensions>
        <gpxtpx:TrackPointExtension>
        <gpxtpx:Extensions>
            <surface>asphalt</surface>
        </gpxtpx:Extensions>
        </gpxtpx:TrackPointExtension>
        </extensions>
    </trkpt>
    <trkpt lat="45.812547" lon="15.156015">
        <ele>186.5</ele>
        <time>2023-05-08T15:31:49.756Z</time>
        <extensions>
        <gpxtpx:TrackPointExtension>
        <gpxtpx:Extensions>
            <surface>asphalt</surface>
        </gpxtpx:Extensions>
        </gpxtpx:TrackPointExtension>
        </extensions>
    </trkpt>
    <trkpt lat="45.812497" lon="15.156094">
        <ele>187.5</ele>
        <time>2023-05-08T15:31:51.740Z</time>
        <extensions>
        <gpxtpx:TrackPointExtension>
        <gpxtpx:Extensions>
            <surface>asphalt</surface>
        </gpxtpx:Extensions>
        </gpxtpx:TrackPointExtension>
        </extensions>
    </trkpt>
    <trkpt lat="45.812342" lon="15.156226">
        <ele>189.3</ele>
        <time>2023-05-08T15:31:56.550Z</time>
        <extensions>
        <gpxtpx:TrackPointExtension>
        <gpxtpx:Extensions>
            <surface>asphalt</surface>
        </gpxtpx:Extensions>
        </gpxtpx:TrackPointExtension>
        </extensions>
    </trkpt>
    <trkpt lat="45.812217" lon="15.156298">
        <ele>190.3</ele>
        <time>2023-05-08T15:32:00.144Z</time>
        <extensions>
        <gpxtpx:TrackPointExtension>
        <gpxtpx:Extensions>
            <surface>asphalt</surface>
        </gpxtpx:Extensions>
        </gpxtpx:TrackPointExtension>
        </extensions>
    </trkpt>
    <trkpt lat="45.812079" lon="15.156346">
        <ele>190.8</ele>
        <time>2023-05-08T15:32:03.933Z</time>
        <extensions>
        <gpxtpx:TrackPointExtension>
        <gpxtpx:Extensions>
            <surface>asphalt</surface>
        </gpxtpx:Extensions>
        </gpxtpx:TrackPointExtension>
        </extensions>
    </trkpt>
    <trkpt lat="45.811842" lon="15.156381">
        <ele>191.3</ele>
        <time>2023-05-08T15:32:10.291Z</time>
        <extensions>
        <gpxtpx:TrackPointExtension>
        <gpxtpx:Extensions>
            <surface>asphalt</surface>
        </gpxtpx:Extensions>
        </gpxtpx:TrackPointExtension>
        </extensions>
    </trkpt>
    <trkpt lat="45.811303" lon="15.156407">
        <ele>187.3</ele>
        <time>2023-05-08T15:32:24.683Z</time>
        <extensions>
        <gpxtpx:TrackPointExtension>
        <gpxtpx:Extensions>
            <surface>asphalt</surface>
        </gpxtpx:Extensions>
        </gpxtpx:TrackPointExtension>
        </extensions>
    </trkpt>
    <trkpt lat="45.810966" lon="15.156486">
        <ele>184.0</ele>
        <time>2023-05-08T15:32:33.795Z</time>
        <extensions>
        <gpxtpx:TrackPointExtension>
        <gpxtpx:Extensions>
            <surface>asphalt</surface>
        </gpxtpx:Extensions>
        </gpxtpx:TrackPointExtension>
        </extensions>
    </trkpt>
    <trkpt lat="45.810704" lon="15.156586">
        <ele>182.5</ele>
        <time>2023-05-08T15:32:41.030Z</time>
        <extensions>
        <gpxtpx:TrackPointExtension>
        <gpxtpx:Extensions>
            <surface>asphalt</surface>
        </gpxtpx:Extensions>
        </gpxtpx:TrackPointExtension>
        </extensions>
    </trkpt>
    <trkpt lat="45.810508" lon="15.156708">
        <ele>183.0</ele>
        <time>2023-05-08T15:32:46.731Z</time>
        <extensions>
        <gpxtpx:TrackPointExtension>
        <gpxtpx:Extensions>
            <surface>asphalt</surface>
        </gpxtpx:Extensions>
        </gpxtpx:TrackPointExtension>
        </extensions>
    </trkpt>
    <trkpt lat="45.810281" lon="15.156877">
        <ele>183.8</ele>
        <time>2023-05-08T15:32:53.556Z</time>
        <extensions>
        <gpxtpx:TrackPointExtension>
        <gpxtpx:Extensions>
            <surface>asphalt</surface>
        </gpxtpx:Extensions>
        </gpxtpx:TrackPointExtension>
        </extensions>
    </trkpt>
    <trkpt lat="45.810093" lon="15.157057">
        <ele>184.3</ele>
        <time>2023-05-08T15:32:59.587Z</time>
        <extensions>
        <gpxtpx:TrackPointExtension>
        <gpxtpx:Extensions>
            <surface>asphalt</surface>
        </gpxtpx:Extensions>
        </gpxtpx:TrackPointExtension>
        </extensions>
    </trkpt>
    <trkpt lat="45.809955" lon="15.157215">
        <ele>184.8</ele>
        <time>2023-05-08T15:33:04.298Z</time>
        <extensions>
        <gpxtpx:TrackPointExtension>
        <gpxtpx:Extensions>
            <surface>asphalt</surface>
        </gpxtpx:Extensions>
        </gpxtpx:TrackPointExtension>
        </extensions>
    </trkpt>
    <trkpt lat="45.809746" lon="15.157481">
        <ele>184.8</ele>
        <time>2023-05-08T15:33:11.754Z</time>
        <extensions>
        <gpxtpx:TrackPointExtension>
        <gpxtpx:Extensions>
            <surface>asphalt</surface>
        </gpxtpx:Extensions>
        </gpxtpx:TrackPointExtension>
        </extensions>
    </trkpt>
    <trkpt lat="45.809532" lon="15.15777">
        <ele>184.3</ele>
        <time>2023-05-08T15:33:19.597Z</time>
        <extensions>
        <gpxtpx:TrackPointExtension>
        <gpxtpx:Extensions>
            <surface>asphalt</surface>
        </gpxtpx:Extensions>
        </gpxtpx:TrackPointExtension>
        </extensions>
    </trkpt>
    <trkpt lat="45.809184" lon="15.158247">
        <ele>183.5</ele>
        <time>2023-05-08T15:33:32.441Z</time>
        <extensions>
        <gpxtpx:TrackPointExtension>
        <gpxtpx:Extensions>
            <surface>asphalt</surface>
        </gpxtpx:Extensions>
        </gpxtpx:TrackPointExtension>
        </extensions>
    </trkpt>
    <trkpt lat="45.809096" lon="15.158367">
        <ele>183.5</ele>
        <time>2023-05-08T15:33:35.681Z</time>
        <extensions>
        <gpxtpx:TrackPointExtension>
        <gpxtpx:Extensions>
            <surface>asphalt</surface>
        </gpxtpx:Extensions>
        </gpxtpx:TrackPointExtension>
        </extensions>
    </trkpt>
    <trkpt lat="45.808154" lon="15.159645">
        <ele>185.8</ele>
        <time>2023-05-08T15:34:10.280Z</time>
        <extensions>
        <gpxtpx:TrackPointExtension>
        <gpxtpx:Extensions>
            <surface>asphalt</surface>
        </gpxtpx:Extensions>
        </gpxtpx:TrackPointExtension>
        </extensions>
    </trkpt>
    <trkpt lat="45.807951" lon="15.159882">
        <ele>185.0</ele>
        <time>2023-05-08T15:34:17.264Z</time>
        <extensions>
        <gpxtpx:TrackPointExtension>
        <gpxtpx:Extensions>
            <surface>asphalt</surface>
        </gpxtpx:Extensions>
        </gpxtpx:TrackPointExtension>
        </extensions>
    </trkpt>
    <trkpt lat="45.807686" lon="15.160154">
        <ele>185.0</ele>
        <time>2023-05-08T15:34:25.959Z</time>
        <extensions>
        <gpxtpx:TrackPointExtension>
        <gpxtpx:Extensions>
            <surface>asphalt</surface>
        </gpxtpx:Extensions>
        </gpxtpx:TrackPointExtension>
        </extensions>
    </trkpt>
    <trkpt lat="45.807504" lon="15.160306">
        <ele>186.0</ele>
        <time>2023-05-08T15:34:31.579Z</time>
        <extensions>
        <gpxtpx:TrackPointExtension>
        <gpxtpx:Extensions>
            <surface>asphalt</surface>
        </gpxtpx:Extensions>
        </gpxtpx:TrackPointExtension>
        </extensions>
    </trkpt>
    <trkpt lat="45.807327" lon="15.160435">
        <ele>188.0</ele>
        <time>2023-05-08T15:34:36.877Z</time>
        <extensions>
        <gpxtpx:TrackPointExtension>
        <gpxtpx:Extensions>
            <surface>asphalt</surface>
        </gpxtpx:Extensions>
        </gpxtpx:TrackPointExtension>
        </extensions>
    </trkpt>
    <trkpt lat="45.807122" lon="15.160547">
        <ele>189.0</ele>
        <time>2023-05-08T15:34:42.731Z</time>
        <extensions>
        <gpxtpx:TrackPointExtension>
        <gpxtpx:Extensions>
            <surface>asphalt</surface>
        </gpxtpx:Extensions>
        </gpxtpx:TrackPointExtension>
        </extensions>
    </trkpt>
    <trkpt lat="45.806163" lon="15.160977">
        <ele>188.3</ele>
        <time>2023-05-08T15:35:09.544Z</time>
        <extensions>
        <gpxtpx:TrackPointExtension>
        <gpxtpx:Extensions>
            <surface>asphalt</surface>
        </gpxtpx:Extensions>
        </gpxtpx:TrackPointExtension>
        </extensions>
    </trkpt>
    <trkpt lat="45.805932" lon="15.161071">
        <ele>187.3</ele>
        <time>2023-05-08T15:35:15.951Z</time>
        <extensions>
        <gpxtpx:TrackPointExtension>
        <gpxtpx:Extensions>
            <surface>asphalt</surface>
        </gpxtpx:Extensions>
        </gpxtpx:TrackPointExtension>
        </extensions>
    </trkpt>
    <trkpt lat="45.805786" lon="15.161144">
        <ele>186.8</ele>
        <time>2023-05-08T15:35:20.077Z</time>
        <extensions>
        <gpxtpx:TrackPointExtension>
        <gpxtpx:Extensions>
            <surface>asphalt</surface>
        </gpxtpx:Extensions>
        </gpxtpx:TrackPointExtension>
        </extensions>
    </trkpt>
    <trkpt lat="45.805661" lon="15.161243">
        <ele>186.3</ele>
        <time>2023-05-08T15:35:23.887Z</time>
        <extensions>
        <gpxtpx:TrackPointExtension>
        <gpxtpx:Extensions>
            <surface>asphalt</surface>
        </gpxtpx:Extensions>
        </gpxtpx:TrackPointExtension>
        </extensions>
    </trkpt>
    <trkpt lat="45.805644" lon="15.161257">
        <ele>186.3</ele>
        <time>2023-05-08T15:35:24.410Z</time>
        <extensions>
        <gpxtpx:TrackPointExtension>
        <gpxtpx:Extensions>
            <surface>asphalt</surface>
        </gpxtpx:Extensions>
        </gpxtpx:TrackPointExtension>
        </extensions>
    </trkpt>
    <trkpt lat="45.805529" lon="15.161369">
        <ele>185.8</ele>
        <time>2023-05-08T15:35:28.119Z</time>
        <extensions>
        <gpxtpx:TrackPointExtension>
        <gpxtpx:Extensions>
            <surface>asphalt</surface>
        </gpxtpx:Extensions>
        </gpxtpx:TrackPointExtension>
        </extensions>
    </trkpt>
    <trkpt lat="45.805366" lon="15.161569">
        <ele>185.3</ele>
        <time>2023-05-08T15:35:33.843Z</time>
        <extensions>
        <gpxtpx:TrackPointExtension>
        <gpxtpx:Extensions>
            <surface>asphalt</surface>
        </gpxtpx:Extensions>
        </gpxtpx:TrackPointExtension>
        </extensions>
    </trkpt>
    <trkpt lat="45.805266" lon="15.161724">
        <ele>184.3</ele>
        <time>2023-05-08T15:35:37.771Z</time>
        <extensions>
        <gpxtpx:TrackPointExtension>
        <gpxtpx:Extensions>
            <surface>asphalt</surface>
        </gpxtpx:Extensions>
        </gpxtpx:TrackPointExtension>
        </extensions>
    </trkpt>
    <trkpt lat="45.805203" lon="15.161855">
        <ele>183.3</ele>
        <time>2023-05-08T15:35:40.731Z</time>
        <extensions>
        <gpxtpx:TrackPointExtension>
        <gpxtpx:Extensions>
            <surface>asphalt</surface>
        </gpxtpx:Extensions>
        </gpxtpx:TrackPointExtension>
        </extensions>
    </trkpt>
    <trkpt lat="45.805111" lon="15.162094">
        <ele>182.8</ele>
        <time>2023-05-08T15:35:45.810Z</time>
        <extensions>
        <gpxtpx:TrackPointExtension>
        <gpxtpx:Extensions>
            <surface>asphalt</surface>
        </gpxtpx:Extensions>
        </gpxtpx:TrackPointExtension>
        </extensions>
    </trkpt>
    <trkpt lat="45.804939" lon="15.162551">
        <ele>183.3</ele>
        <time>2023-05-08T15:35:55.471Z</time>
        <extensions>
        <gpxtpx:TrackPointExtension>
        <gpxtpx:Extensions>
            <surface>asphalt</surface>
        </gpxtpx:Extensions>
        </gpxtpx:TrackPointExtension>
        </extensions>
    </trkpt>
    <trkpt lat="45.804854" lon="15.162473">
        <ele>182.3</ele>
        <time>2023-05-08T15:35:58.163Z</time>
    </trkpt>
    <trkpt lat="45.804774" lon="15.162493">
        <ele>181.8</ele>
        <time>2023-05-08T15:36:00.330Z</time>
    </trkpt>
    <trkpt lat="45.804664" lon="15.162431">
        <ele>180.0</ele>
        <time>2023-05-08T15:36:03.484Z</time>
    </trkpt>
    <trkpt lat="45.804481" lon="15.162362">
        <ele>177.5</ele>
        <time>2023-05-08T15:36:08.533Z</time>
    </trkpt>
    <trkpt lat="45.804433" lon="15.162383">
        <ele>177.3</ele>
        <time>2023-05-08T15:36:09.872Z</time>
    </trkpt>
    <trkpt lat="45.804396" lon="15.162382">
        <ele>177.0</ele>
        <time>2023-05-08T15:36:10.859Z</time>
    </trkpt>
    <trkpt lat="45.804291" lon="15.162344">
        <ele>175.5</ele>
        <time>2023-05-08T15:36:13.748Z</time>
    </trkpt>
    <trkpt lat="45.804188" lon="15.162323">
        <ele>174.5</ele>
        <time>2023-05-08T15:36:16.524Z</time>
    </trkpt>
    <trkpt lat="45.804099" lon="15.162295">
        <ele>173.3</ele>
        <time>2023-05-08T15:36:18.955Z</time>
    </trkpt>
    <trkpt lat="45.803937" lon="15.162252">
        <ele>173.3</ele>
        <time>2023-05-08T15:36:23.351Z</time>
    </trkpt>
    <trkpt lat="45.802594" lon="15.161837">
        <ele>172.8</ele>
        <time>2023-05-08T15:37:00.013Z</time>
    </trkpt>
    <trkpt lat="45.802365" lon="15.161738">
        <ele>174.5</ele>
        <time>2023-05-08T15:37:06.395Z</time>
    </trkpt>
    <trkpt lat="45.802329" lon="15.161682">
        <ele>174.8</ele>
        <time>2023-05-08T15:37:07.812Z</time>
    </trkpt>
    <trkpt lat="45.802304" lon="15.161615">
        <ele>175.0</ele>
        <time>2023-05-08T15:37:09.225Z</time>
    </trkpt>
    <trkpt lat="45.802301" lon="15.161516">
        <ele>175.3</ele>
        <time>2023-05-08T15:37:11.068Z</time>
    </trkpt>
    <trkpt lat="45.802318" lon="15.161403">
        <ele>175.3</ele>
        <time>2023-05-08T15:37:13.218Z</time>
    </trkpt>
    <trkpt lat="45.802336" lon="15.161303">
        <ele>175.3</ele>
        <time>2023-05-08T15:37:15.139Z</time>
    </trkpt>
    <trkpt lat="45.80239" lon="15.161087">
        <ele>175.3</ele>
        <time>2023-05-08T15:37:19.408Z</time>
    </trkpt>
    <trkpt lat="45.802395" lon="15.160986">
        <ele>175.3</ele>
        <time>2023-05-08T15:37:21.291Z</time>
    </trkpt>
    <trkpt lat="45.802392" lon="15.160934">
        <ele>175.3</ele>
        <time>2023-05-08T15:37:22.261Z</time>
    </trkpt>
    <trkpt lat="45.80237" lon="15.160804">
        <ele>175.5</ele>
        <time>2023-05-08T15:37:24.749Z</time>
    </trkpt>
    <trkpt lat="45.802361" lon="15.160743">
        <ele>175.8</ele>
        <time>2023-05-08T15:37:25.909Z</time>
    </trkpt>
    <trkpt lat="45.802358" lon="15.16064">
        <ele>176.0</ele>
        <time>2023-05-08T15:37:27.826Z</time>
    </trkpt>
    <trkpt lat="45.802361" lon="15.160319">
        <ele>176.5</ele>
        <time>2023-05-08T15:37:33.798Z</time>
    </trkpt>
    <trkpt lat="45.802369" lon="15.160217">
        <ele>176.8</ele>
        <time>2023-05-08T15:37:35.707Z</time>
    </trkpt>
    <trkpt lat="45.802357" lon="15.159559">
        <ele>179.3</ele>
        <time>2023-05-08T15:37:47.952Z</time>
    </trkpt>
    <trkpt lat="45.802358" lon="15.159467">
        <ele>179.8</ele>
        <time>2023-05-08T15:37:49.663Z</time>
    </trkpt>
    <trkpt lat="45.802358" lon="15.159428">
        <ele>180.0</ele>
        <time>2023-05-08T15:37:50.388Z</time>
    </trkpt>
    <trkpt lat="45.802361" lon="15.159384">
        <ele>180.3</ele>
        <time>2023-05-08T15:37:51.210Z</time>
    </trkpt>
    <trkpt lat="45.802358" lon="15.159277">
        <ele>180.8</ele>
        <time>2023-05-08T15:37:53.202Z</time>
    </trkpt>
    <trkpt lat="45.802278" lon="15.159298">
        <ele>181.5</ele>
        <time>2023-05-08T15:37:55.372Z</time>
        <extensions>
        <gpxtpx:TrackPointExtension>
        <gpxtpx:Extensions>
            <surface>asphalt</surface>
        </gpxtpx:Extensions>
        </gpxtpx:TrackPointExtension>
        </extensions>
    </trkpt>
    <trkpt lat="45.802264" lon="15.159089">
        <ele>182.5</ele>
        <time>2023-05-08T15:37:59.278Z</time>
    </trkpt>
    <trkpt lat="45.802239" lon="15.158763">
        <ele>184.3</ele>
        <time>2023-05-08T15:38:05.379Z</time>
    </trkpt>
    <trkpt lat="45.802217" lon="15.158426">
        <ele>185.8</ele>
        <time>2023-05-08T15:38:11.676Z</time>
    </trkpt>
    <trkpt lat="45.802153" lon="15.157917">
        <ele>187.5</ele>
        <time>2023-05-08T15:38:21.298Z</time>
    </trkpt>
    <trkpt lat="45.802082" lon="15.157429">
        <ele>189.3</ele>
        <time>2023-05-08T15:38:30.572Z</time>
    </trkpt>
    <trkpt lat="45.802003" lon="15.156959">
        <ele>191.8</ele>
        <time>2023-05-08T15:38:39.566Z</time>
    </trkpt>
    <trkpt lat="45.801919" lon="15.156501">
        <ele>192.5</ele>
        <time>2023-05-08T15:38:48.376Z</time>
    </trkpt>
    <trkpt lat="45.801842" lon="15.156164">
        <ele>191.0</ele>
        <time>2023-05-08T15:38:54.973Z</time>
    </trkpt>
    <trkpt lat="45.801748" lon="15.155799">
        <ele>188.8</ele>
        <time>2023-05-08T15:39:02.212Z</time>
    </trkpt>
    <trkpt lat="45.801564" lon="15.155242">
        <ele>186.8</ele>
        <time>2023-05-08T15:39:13.679Z</time>
    </trkpt>
    <trkpt lat="45.801366" lon="15.154721">
        <ele>185.0</ele>
        <time>2023-05-08T15:39:24.718Z</time>
    </trkpt>
    <trkpt lat="45.801133" lon="15.15424">
        <ele>182.0</ele>
        <time>2023-05-08T15:39:35.615Z</time>
    </trkpt>
    <trkpt lat="45.800961" lon="15.153938">
        <ele>179.3</ele>
        <time>2023-05-08T15:39:42.870Z</time>
    </trkpt>
    <trkpt lat="45.80044" lon="15.153218">
        <ele>175.5</ele>
        <time>2023-05-08T15:40:02.176Z</time>
    </trkpt>
    <trkpt lat="45.800321" lon="15.153031">
        <ele>175.0</ele>
        <time>2023-05-08T15:40:06.886Z</time>
    </trkpt>
    <trkpt lat="45.800251" lon="15.152941">
        <ele>174.8</ele>
        <time>2023-05-08T15:40:09.394Z</time>
    </trkpt>
    <trkpt lat="45.80003" lon="15.152623">
        <ele>174.3</ele>
        <time>2023-05-08T15:40:17.747Z</time>
    </trkpt>
    <trkpt lat="45.799753" lon="15.152257">
        <ele>174.0</ele>
        <time>2023-05-08T15:40:27.797Z</time>
    </trkpt>
    <trkpt lat="45.799418" lon="15.151766">
        <ele>172.8</ele>
        <time>2023-05-08T15:40:40.578Z</time>
    </trkpt>
    <trkpt lat="45.799104" lon="15.151141">
        <ele>172.5</ele>
        <time>2023-05-08T15:40:54.911Z</time>
    </trkpt>
    <trkpt lat="45.798996" lon="15.150913">
        <ele>173.3</ele>
        <time>2023-05-08T15:41:00.039Z</time>
    </trkpt>
    <trkpt lat="45.798841" lon="15.150554">
        <ele>173.8</ele>
        <time>2023-05-08T15:41:07.895Z</time>
    </trkpt>
    <trkpt lat="45.798585" lon="15.149989">
        <ele>175.8</ele>
        <time>2023-05-08T15:41:20.432Z</time>
    </trkpt>
    <trkpt lat="45.7985" lon="15.149803">
        <ele>175.8</ele>
        <time>2023-05-08T15:41:24.569Z</time>
    </trkpt>
    <trkpt lat="45.798215" lon="15.149304">
        <ele>175.5</ele>
        <time>2023-05-08T15:41:36.570Z</time>
    </trkpt>
    <trkpt lat="45.798005" lon="15.149013">
        <ele>175.5</ele>
        <time>2023-05-08T15:41:44.362Z</time>
    </trkpt>
    <trkpt lat="45.797875" lon="15.148855">
        <ele>176.0</ele>
        <time>2023-05-08T15:41:48.909Z</time>
    </trkpt>
    <trkpt lat="45.797631" lon="15.148596">
        <ele>177.3</ele>
        <time>2023-05-08T15:41:57.009Z</time>
    </trkpt>
    <trkpt lat="45.797199" lon="15.148238">
        <ele>180.5</ele>
        <time>2023-05-08T15:42:10.323Z</time>
    </trkpt>
    <trkpt lat="45.796573" lon="15.147702">
        <ele>182.5</ele>
        <time>2023-05-08T15:42:29.779Z</time>
    </trkpt>
    <trkpt lat="45.796339" lon="15.147467">
        <ele>183.3</ele>
        <time>2023-05-08T15:42:37.402Z</time>
    </trkpt>
    <trkpt lat="45.795997" lon="15.14704">
        <ele>183.5</ele>
        <time>2023-05-08T15:42:49.502Z</time>
    </trkpt>
    <trkpt lat="45.795835" lon="15.146807">
        <ele>182.3</ele>
        <time>2023-05-08T15:42:55.624Z</time>
    </trkpt>
    <trkpt lat="45.795592" lon="15.146359">
        <ele>182.3</ele>
        <time>2023-05-08T15:43:06.185Z</time>
    </trkpt>
    <trkpt lat="45.794986" lon="15.145045">
        <ele>176.5</ele>
        <time>2023-05-08T15:43:35.498Z</time>
    </trkpt>
    <trkpt lat="45.794785" lon="15.144648">
        <ele>174.8</ele>
        <time>2023-05-08T15:43:44.627Z</time>
    </trkpt>
    <trkpt lat="45.79464" lon="15.144401">
        <ele>173.8</ele>
        <time>2023-05-08T15:43:50.634Z</time>
    </trkpt>
    <trkpt lat="45.794231" lon="15.143631">
        <ele>171.3</ele>
        <time>2023-05-08T15:44:08.645Z</time>
    </trkpt>
    <trkpt lat="45.793946" lon="15.143065">
        <ele>170.3</ele>
        <time>2023-05-08T15:44:21.635Z</time>
    </trkpt>
    <trkpt lat="45.79365" lon="15.142396">
        <ele>167.8</ele>
        <time>2023-05-08T15:44:36.378Z</time>
    </trkpt>
    <trkpt lat="45.793311" lon="15.141613">
        <ele>170.0</ele>
        <time>2023-05-08T15:44:53.527Z</time>
        <extensions>
        <gpxtpx:TrackPointExtension>
        <gpxtpx:Extensions>
            <surface>asphalt</surface>
        </gpxtpx:Extensions>
        </gpxtpx:TrackPointExtension>
        </extensions>
    </trkpt>
    <trkpt lat="45.793108" lon="15.141049">
        <ele>172.8</ele>
        <time>2023-05-08T15:45:05.337Z</time>
        <extensions>
        <gpxtpx:TrackPointExtension>
        <gpxtpx:Extensions>
            <surface>asphalt</surface>
        </gpxtpx:Extensions>
        </gpxtpx:TrackPointExtension>
        </extensions>
    </trkpt>
    <trkpt lat="45.792971" lon="15.140646">
        <ele>174.8</ele>
        <time>2023-05-08T15:45:13.679Z</time>
        <extensions>
        <gpxtpx:TrackPointExtension>
        <gpxtpx:Extensions>
            <surface>asphalt</surface>
        </gpxtpx:Extensions>
        </gpxtpx:TrackPointExtension>
        </extensions>
    </trkpt>
    <trkpt lat="45.792893" lon="15.140338">
        <ele>175.8</ele>
        <time>2023-05-08T15:45:19.776Z</time>
        <extensions>
        <gpxtpx:TrackPointExtension>
        <gpxtpx:Extensions>
            <surface>asphalt</surface>
        </gpxtpx:Extensions>
        </gpxtpx:TrackPointExtension>
        </extensions>
    </trkpt>
    <trkpt lat="45.792792" lon="15.139899">
        <ele>176.5</ele>
        <time>2023-05-08T15:45:28.377Z</time>
        <extensions>
        <gpxtpx:TrackPointExtension>
        <gpxtpx:Extensions>
            <surface>asphalt</surface>
        </gpxtpx:Extensions>
        </gpxtpx:TrackPointExtension>
        </extensions>
    </trkpt>
    <trkpt lat="45.792676" lon="15.139369">
        <ele>176.3</ele>
        <time>2023-05-08T15:45:38.713Z</time>
        <extensions>
        <gpxtpx:TrackPointExtension>
        <gpxtpx:Extensions>
            <surface>asphalt</surface>
        </gpxtpx:Extensions>
        </gpxtpx:TrackPointExtension>
        </extensions>
    </trkpt>
    </trkseg>
</trk>
</gpx>